[[{"header":{"parameterUnit":"m.s-1","parameterCategory":1,"la1":31.0,"la2":29.5877,"lo1":-88.7671,"lo2":-86.6584,"dy":0.0162,"dx":0.0185,"nx":115,"ny":88,"refTime":"2023-10-07T12:00:00:Z","depth":0,"parameterNumber":2,"parameterNumberName":"U-component_of_WINDS"},"data":[0.0,0.0,0.0,0.0,0.0,0.0,0.0,0.0,0.0,0.0,0.0,0.0,0.0,0.0,0.0,0.0,0.0,0.0,0.0,0.0,0.0,0.0,0.0,0.0,0.0,0.0,0.0,0.0,0.0,0.0,0.0,0.0,0.0,0.0,0.0,0.0,0.0,0.0,0.0,0.0,0.0,0.0,0.0,0.0,0.0,0.0,0.0,0.0,0.0,0.0,0.0,0.0,0.0,0.0,0.0,0.0,0.0,0.0,0.0,0.0,0.0,0.0,0.0,0.0,0.0,0.0,0.0,0.0,0.0,0.0,0.0,0.0,0.0,0.0,0.0,0.0,0.0,0.0,0.0,0.0,0.0,0.0,0.0,0.0,0.0,0.0,0.0,0.0,0.0,0.0,0.0,0.0,0.0,0.0,0.0,0.0,0.0,0.0,0.0,0.0,0.0,0.0,0.0,0.0,0.0,0.0,0.0,0.0,0.0,0.0,0.0,0.0,0.0,0.0,0.0,0.0,0.0,0.0,0.0,0.0,0.0,0.0,0.0,0.0,0.0,0.0,0.0,0.0,0.0,0.0,0.0,0.0,0.0,0.0,0.0,0.0,0.0,0.0,0.0,0.0,0.0,0.0,0.0,0.0,0.0,0.0,0.0,0.0,0.0,0.0,0.0,0.0,0.0,0.0,0.0,0.0,0.0,0.0,0.0,0.0,0.0,0.0,0.0,0.0,0.0,0.0,0.0,0.0,0.0,0.0,0.0,0.0,0.0,0.0,0.0,0.0,0.0,0.0,0.0,0.0,0.0,0.0,0.0,0.0,0.0,0.0,0.0,0.0,0.0,0.0,0.0,0.0,0.0,0.0,0.0,0.0,0.0,0.0,0.0,0.0,0.0,0.0,0.0,0.0,0.0,0.0,0.0,0.0,0.0,0.0,0.0,0.0,0.0,0.0,0.0,0.0,0.0,0.0,0.0,0.0,0.0,0.0,0.0,0.0,0.0,0.0,0.0,0.0,0.0,0.0,0.0,0.0,0.0,0.0,0.0,0.0,0.0,0.0,0.0,0.0,0.0,0.0,0.0,0.0,0.0,0.0,0.0,0.0,0.0,0.0,0.0,0.0,0.0,0.0,0.0,0.0,0.0,0.0,0.0,0.0,0.0,0.0,0.0,0.0,0.0,0.0,0.0,0.0,0.0,0.0,0.0,0.0,0.0,0.0,0.0,0.0,0.0,0.0,0.0,0.0,0.0,0.0,0.0,0.0,0.0,0.0,0.0,0.0,0.0,0.0,0.0,0.0,0.0,0.0,0.0,0.0,0.0,0.0,0.0,0.0,0.0,0.0,0.0,0.0,0.0,0.0,0.0,0.0,0.0,0.0,0.0,0.0,0.0,0.0,0.0,0.0,0.0,0.0,0.0,0.0,0.0,0.0,0.0,0.0,0.0,0.0,0.0,0.0,0.0,0.0,0.0,0.0,0.0,0.0,0.0,0.0,0.0,0.0,0.0,0.0,0.0,0.0,0.0,0.0,0.0,0.0,0.0,0.0,0.0,0.0,0.0,0.0,0.0,0.0,0.0,0.0,0.0,0.0,0.0,0.0,0.0,0.0,0.0,0.0,0.0,0.0,0.0,0.0,0.0,0.0,0.0,0.0,0.0,0.0,0.0,0.0,0.0,0.0,0.0,0.0,0.0,0.0,0.0,0.0,0.0,0.0,0.0,0.0,0.0,0.0,0.0,0.0,0.0,0.0,0.0,0.0,0.0,0.0,0.0,0.0,0.0,0.0,0.0,0.0,0.0,0.0,0.0,0.0,0.0,0.0,0.0,0.0,0.0,0.0,0.0,0.0,0.0,0.0,0.0,0.0,0.0,0.0,0.0,0.0,0.0,0.0,0.0,0.0,0.0,0.0,0.0,0.0,0.0,0.0,0.0,0.0,0.0,0.0,0.0,0.0,0.0,0.0,0.0,0.0,0.0,0.0,0.0,0.0,0.0,0.0,0.0,0.0,0.0,0.0,0.0,0.0,0.0,0.0,0.0,0.0,0.0,0.0,0.0,0.0,0.0,0.0,0.0,0.0,0.0,0.0,0.0,0.0,0.0,0.0,0.0,0.0,0.0,0.0,0.0,0.0,0.0,0.0,0.0,0.0,0.0,0.0,0.0,0.0,0.0,0.0,0.0,0.0,0.0,0.0,0.0,0.0,0.0,0.0,0.0,0.0,0.0,0.0,0.0,0.0,0.0,0.0,0.0,0.0,0.0,0.0,0.0,0.0,0.0,0.0,0.0,0.0,0.0,0.0,0.0,0.0,0.0,0.0,0.0,0.0,0.0,0.0,0.0,0.0,0.0,0.0,0.0,0.0,0.0,0.0,0.0,0.0,0.0,0.0,0.0,0.0,0.0,0.0,0.0,0.0,0.0,0.0,0.0,0.0,0.0,0.0,0.0,0.0,0.0,0.0,0.0,0.0,0.0,0.0,0.0,0.0,0.0,0.0,0.0,0.0,0.0,0.0,0.0,0.0,0.0,0.0,0.0,0.0,0.0,0.0,0.0,0.0,0.0,0.0,0.0,0.0,0.0,0.0,0.0,0.0,0.0,0.0,0.0,0.0,0.0,0.0,0.0,0.0,0.0,0.0,0.0,0.0,0.0,0.0,0.0,0.0,0.0,0.0,0.0,0.0,0.0,0.0,0.0,0.0,0.0,0.0,0.0,0.0,0.0,0.0,0.0,0.0,0.0,0.0,0.0,0.0,0.0,0.0,0.0,0.0,0.0,0.0,0.0,0.0,0.0,0.0,0.0,0.0,0.0,0.0,0.0,0.0,0.0,0.0,0.0,0.0,0.0,0.0,0.0,0.0,0.0,0.0,0.0,0.0,0.0,0.0,0.0,0.0,0.0,0.0,0.0,0.0,0.0,0.0,0.0,0.0,0.0,0.0,0.0,0.0,0.0,0.0,0.0,0.0,0.0,0.0,0.0,0.0,0.0,0.0,0.0,0.0,0.0,0.0,0.0,0.0,0.0,0.0,0.0,0.0,0.0,0.0,0.0,0.0,0.0,0.0,0.0,0.0,0.0,0.0,0.0,0.0,0.0,0.0,0.0,0.0,0.0,0.0,0.0,0.0,0.0,0.0,0.0,0.0,0.0,0.0,0.0,0.0,0.0,0.0,0.0,0.0,0.0,0.0,0.0,0.0,0.0,0.0,0.0,0.0,0.0,0.0,0.0,0.0,0.0,0.0,0.0,0.0,0.0,0.0,0.0,0.0,0.0,0.0,0.0,0.0,0.0,0.0,0.0,0.0,0.0,0.0,0.0,0.0,0.0,0.0,0.0,0.0,0.0,0.0,0.0,0.0,0.0,0.0,0.0,0.0,0.0,0.0,0.0,0.0,0.0,0.0,0.0,0.0,0.0,0.0,0.0,0.0,0.0,0.0,0.0,0.0,0.0,0.0,0.0,0.0,0.0,0.0,0.0,0.0,0.0,0.0,0.0,0.0,0.0,0.0,0.0,0.0,0.0,0.0,0.0,0.0,0.0,0.0,0.0,0.0,0.0,0.0,0.0,0.0,0.0,0.0,0.0,0.0,0.0,0.0,0.0,0.0,0.0,0.0,0.0,0.0,0.0,0.0,0.0,0.0,0.0,0.0,0.0,0.0,0.0,0.0,0.0,0.0,0.0,0.0,0.0,0.0,0.0,0.0,0.0,0.0,0.0,0.0,0.0,0.0,0.0,0.0,0.0,0.0,0.0,0.0,0.0,0.0,0.0,0.0,0.0,0.0,0.0,0.0,0.0,0.0,0.0,0.0,0.0,0.0,0.0,0.0,0.0,0.0,0.0,0.0,0.0,0.0,0.0,0.0,0.0,0.0,0.0,0.0,0.0,0.0,0.0,0.0,0.0,0.0,0.0,0.0,0.0,0.0,0.0,0.0,0.0,0.0,0.0,0.0,0.0,0.0,0.0,0.0,0.0,0.0,0.0,0.0,0.0,0.0,0.0,0.0,0.0,0.0,0.0,0.0,0.0,0.0,0.0,0.0,0.0,0.0,0.0,0.0,0.0,0.0,0.0,0.0,0.0,0.0,0.0,0.0,0.0,0.0,0.0,0.0,0.0,0.0,0.0,0.0,0.0,0.0,0.0,0.0,0.0,0.0,0.0,0.0,0.0,0.0,0.0,0.0,0.0,0.0,0.0,0.0,0.0,0.0,0.0,0.0,0.0,0.0,0.0,0.0,0.0,0.0,0.0,0.0,0.0,0.0,0.0,0.0,0.0,0.0,0.0,0.0,-2.6961,0.0,0.0,0.0,0.0,0.0,0.0,0.0,0.0,0.0,0.0,0.0,0.0,0.0,0.0,0.0,0.0,0.0,0.0,0.0,0.0,0.0,0.0,0.0,0.0,0.0,0.0,0.0,0.0,0.0,0.0,0.0,0.0,0.0,0.0,0.0,0.0,0.0,0.0,0.0,0.0,0.0,0.0,0.0,0.0,0.0,0.0,0.0,0.0,0.0,0.0,0.0,0.0,0.0,0.0,0.0,0.0,0.0,0.0,0.0,0.0,0.0,0.0,0.0,0.0,0.0,0.0,0.0,0.0,0.0,0.0,0.0,0.0,0.0,0.0,0.0,0.0,0.0,0.0,0.0,0.0,0.0,0.0,0.0,0.0,0.0,0.0,0.0,0.0,0.0,0.0,0.0,0.0,0.0,0.0,0.0,0.0,0.0,0.0,0.0,0.0,0.0,0.0,0.0,0.0,0.0,0.0,0.0,0.0,0.0,0.0,-3.0101,-2.9634,-3.07,-3.0116,-2.7587,0.0,0.0,0.0,0.0,0.0,0.0,0.0,0.0,0.0,0.0,0.0,0.0,0.0,0.0,0.0,0.0,0.0,0.0,0.0,0.0,0.0,0.0,0.0,0.0,0.0,0.0,0.0,0.0,0.0,0.0,0.0,0.0,0.0,0.0,0.0,0.0,0.0,0.0,0.0,0.0,0.0,0.0,0.0,0.0,0.0,0.0,0.0,0.0,0.0,0.0,0.0,0.0,0.0,0.0,0.0,0.0,0.0,0.0,0.0,0.0,0.0,0.0,0.0,0.0,0.0,0.0,0.0,0.0,0.0,0.0,0.0,0.0,0.0,0.0,0.0,0.0,0.0,0.0,0.0,0.0,0.0,0.0,0.0,0.0,0.0,0.0,0.0,0.0,0.0,0.0,0.0,0.0,0.0,0.0,0.0,0.0,0.0,0.0,0.0,0.0,0.0,0.0,0.0,0.0,0.0,0.0,0.0,0.0,0.0,0.0,0.0,0.0,-3.2273,-3.1546,-2.8921,0.0,0.0,0.0,0.0,0.0,0.0,0.0,0.0,0.0,0.0,0.0,0.0,0.0,0.0,0.0,0.0,0.0,0.0,0.0,0.0,0.0,0.0,0.0,0.0,0.0,0.0,0.0,0.0,0.0,0.0,0.0,0.0,0.0,0.0,0.0,0.0,0.0,0.0,0.0,0.0,0.0,0.0,0.0,0.0,0.0,0.0,0.0,0.0,0.0,0.0,0.0,0.0,0.0,0.0,0.0,0.0,0.0,0.0,0.0,0.0,0.0,0.0,0.0,0.0,0.0,0.0,0.0,0.0,0.0,0.0,0.0,0.0,0.0,0.0,0.0,0.0,0.0,0.0,0.0,0.0,0.0,0.0,0.0,0.0,0.0,0.0,0.0,0.0,0.0,0.0,0.0,0.0,0.0,0.0,0.0,0.0,0.0,0.0,0.0,0.0,0.0,0.0,0.0,0.0,0.0,0.0,0.0,0.0,0.0,0.0,-3.1072,-3.4979,-3.4556,0.0,-3.1935,0.0,0.0,0.0,0.0,0.0,0.0,0.0,0.0,0.0,0.0,0.0,0.0,0.0,0.0,0.0,0.0,0.0,0.0,0.0,0.0,0.0,0.0,0.0,0.0,0.0,0.0,0.0,0.0,0.0,0.0,0.0,0.0,0.0,0.0,0.0,0.0,0.0,0.0,0.0,0.0,0.0,0.0,0.0,0.0,0.0,0.0,0.0,0.0,0.0,0.0,0.0,0.0,0.0,0.0,0.0,0.0,0.0,0.0,0.0,0.0,0.0,0.0,0.0,0.0,0.0,0.0,0.0,0.0,0.0,0.0,0.0,0.0,0.0,0.0,0.0,0.0,0.0,0.0,0.0,0.0,0.0,0.0,0.0,0.0,0.0,0.0,0.0,0.0,0.0,0.0,0.0,0.0,0.0,0.0,0.0,0.0,0.0,0.0,0.0,0.0,0.0,0.0,0.0,0.0,0.0,0.0,0.0,0.0,0.0,0.0,-3.2425,-3.5509,-3.4472,-3.2949,0.0,0.0,0.0,0.0,0.0,0.0,0.0,0.0,0.0,0.0,0.0,0.0,0.0,0.0,0.0,0.0,0.0,0.0,0.0,0.0,0.0,0.0,0.0,0.0,0.0,0.0,0.0,0.0,0.0,0.0,0.0,0.0,0.0,0.0,0.0,0.0,0.0,0.0,0.0,0.0,0.0,0.0,0.0,0.0,0.0,0.0,0.0,0.0,0.0,0.0,0.0,0.0,0.0,0.0,0.0,0.0,0.0,0.0,0.0,0.0,0.0,0.0,0.0,0.0,0.0,0.0,0.0,0.0,0.0,0.0,0.0,0.0,0.0,0.0,0.0,0.0,0.0,0.0,0.0,0.0,0.0,0.0,0.0,0.0,0.0,0.0,0.0,0.0,0.0,0.0,0.0,0.0,0.0,0.0,0.0,0.0,0.0,0.0,0.0,0.0,0.0,0.0,0.0,0.0,0.0,0.0,0.0,0.0,0.0,0.0,-3.2391,-3.415,-3.6569,-3.4996,-3.3068,-3.1072,0.0,0.0,0.0,0.0,0.0,0.0,0.0,0.0,0.0,0.0,0.0,0.0,0.0,0.0,0.0,0.0,0.0,0.0,0.0,0.0,0.0,0.0,0.0,0.0,0.0,0.0,0.0,0.0,0.0,0.0,0.0,0.0,0.0,0.0,0.0,0.0,0.0,0.0,0.0,0.0,0.0,0.0,0.0,0.0,0.0,0.0,0.0,0.0,0.0,0.0,0.0,0.0,0.0,0.0,0.0,0.0,0.0,0.0,0.0,0.0,0.0,0.0,0.0,0.0,0.0,0.0,0.0,0.0,0.0,0.0,0.0,0.0,0.0,0.0,0.0,0.0,0.0,0.0,0.0,0.0,0.0,0.0,0.0,0.0,0.0,0.0,0.0,0.0,0.0,0.0,0.0,0.0,0.0,0.0,0.0,0.0,0.0,0.0,0.0,0.0,0.0,0.0,0.0,0.0,0.0,0.0,0.0,0.0,-3.6975,-3.5385,-3.6146,-3.963,-3.7043,-3.481,0.0,0.0,0.0,0.0,0.0,0.0,0.0,0.0,0.0,0.0,0.0,0.0,0.0,0.0,0.0,0.0,0.0,0.0,0.0,0.0,0.0,0.0,0.0,0.0,0.0,0.0,0.0,0.0,0.0,0.0,0.0,0.0,0.0,0.0,0.0,0.0,0.0,0.0,0.0,0.0,0.0,0.0,0.0,0.0,0.0,0.0,0.0,0.0,0.0,0.0,0.0,0.0,0.0,0.0,0.0,0.0,0.0,0.0,0.0,0.0,0.0,0.0,0.0,0.0,0.0,0.0,0.0,0.0,0.0,0.0,0.0,0.0,0.0,0.0,0.0,0.0,0.0,0.0,0.0,0.0,0.0,0.0,0.0,0.0,0.0,0.0,0.0,0.0,0.0,0.0,0.0,0.0,0.0,0.0,0.0,0.0,0.0,0.0,0.0,0.0,0.0,0.0,0.0,0.0,0.0,0.0,0.0,0.0,0.0,-3.2526,-3.4891,-3.7274,-3.9521,-3.6448,-3.4489,0.0,0.0,0.0,0.0,0.0,0.0,0.0,0.0,0.0,0.0,0.0,0.0,0.0,0.0,0.0,0.0,0.0,0.0,0.0,0.0,0.0,0.0,0.0,0.0,0.0,0.0,0.0,0.0,0.0,0.0,0.0,0.0,0.0,0.0,0.0,0.0,0.0,0.0,0.0,0.0,0.0,0.0,0.0,0.0,0.0,0.0,0.0,0.0,0.0,0.0,0.0,0.0,0.0,0.0,0.0,0.0,0.0,0.0,0.0,0.0,0.0,0.0,0.0,0.0,0.0,0.0,0.0,0.0,0.0,0.0,0.0,0.0,0.0,0.0,0.0,0.0,0.0,0.0,0.0,0.0,0.0,0.0,0.0,0.0,0.0,0.0,0.0,0.0,0.0,0.0,0.0,0.0,0.0,0.0,0.0,0.0,0.0,0.0,0.0,0.0,0.0,0.0,0.0,0.0,0.0,0.0,0.0,0.0,0.0,-3.2844,0.0,-3.8953,-3.926,-3.626,-3.4018,0.0,0.0,0.0,0.0,0.0,0.0,0.0,0.0,0.0,0.0,0.0,0.0,0.0,0.0,0.0,0.0,0.0,0.0,0.0,0.0,0.0,0.0,0.0,0.0,0.0,0.0,0.0,0.0,0.0,0.0,0.0,0.0,0.0,0.0,0.0,0.0,0.0,0.0,0.0,0.0,0.0,0.0,0.0,0.0,0.0,0.0,0.0,0.0,0.0,0.0,0.0,0.0,0.0,0.0,0.0,0.0,0.0,0.0,0.0,0.0,0.0,0.0,0.0,0.0,0.0,0.0,0.0,0.0,0.0,0.0,0.0,0.0,0.0,0.0,0.0,0.0,0.0,0.0,0.0,0.0,0.0,0.0,0.0,0.0,0.0,0.0,0.0,0.0,0.0,0.0,0.0,0.0,0.0,0.0,0.0,0.0,0.0,0.0,0.0,0.0,0.0,0.0,0.0,0.0,0.0,0.0,0.0,0.0,-3.2827,-3.9129,-4.1085,-4.0968,-3.9105,-3.678,-3.3567,0.0,0.0,0.0,0.0,0.0,0.0,0.0,0.0,0.0,0.0,0.0,0.0,0.0,0.0,0.0,0.0,0.0,0.0,0.0,0.0,0.0,0.0,0.0,0.0,0.0,0.0,0.0,0.0,0.0,0.0,0.0,0.0,0.0,0.0,0.0,0.0,0.0,0.0,0.0,0.0,0.0,0.0,0.0,0.0,0.0,0.0,0.0,0.0,0.0,0.0,0.0,0.0,0.0,0.0,0.0,0.0,0.0,0.0,0.0,0.0,0.0,0.0,0.0,0.0,0.0,0.0,0.0,0.0,0.0,0.0,0.0,0.0,0.0,0.0,0.0,0.0,0.0,0.0,0.0,0.0,0.0,0.0,0.0,0.0,0.0,0.0,0.0,0.0,0.0,0.0,0.0,0.0,0.0,0.0,0.0,0.0,0.0,0.0,0.0,0.0,0.0,0.0,0.0,0.0,0.0,0.0,0.0,0.0,0.0,-3.6324,-3.8201,-3.9944,-4.1307,-3.6858,-3.4372,0.0,0.0,0.0,0.0,0.0,0.0,0.0,0.0,0.0,0.0,0.0,0.0,0.0,0.0,0.0,0.0,0.0,0.0,0.0,0.0,0.0,0.0,0.0,0.0,0.0,0.0,0.0,0.0,0.0,0.0,0.0,0.0,0.0,0.0,0.0,0.0,0.0,0.0,0.0,0.0,0.0,0.0,0.0,0.0,0.0,0.0,0.0,0.0,0.0,0.0,0.0,0.0,0.0,0.0,0.0,0.0,0.0,0.0,0.0,0.0,0.0,0.0,0.0,0.0,0.0,0.0,0.0,0.0,0.0,0.0,0.0,0.0,0.0,0.0,0.0,0.0,0.0,0.0,0.0,0.0,0.0,0.0,0.0,0.0,0.0,0.0,0.0,0.0,0.0,0.0,0.0,0.0,0.0,0.0,0.0,0.0,0.0,0.0,0.0,0.0,0.0,0.0,0.0,0.0,0.0,0.0,0.0,0.0,0.0,-3.6798,-3.9083,-4.0893,-4.2124,-3.7711,-3.514,-3.4634,0.0,0.0,0.0,0.0,0.0,0.0,0.0,0.0,0.0,0.0,0.0,0.0,0.0,0.0,0.0,0.0,0.0,0.0,0.0,0.0,0.0,0.0,0.0,0.0,0.0,0.0,0.0,0.0,0.0,0.0,0.0,0.0,0.0,0.0,0.0,0.0,0.0,0.0,0.0,0.0,0.0,0.0,0.0,0.0,0.0,0.0,0.0,0.0,0.0,0.0,0.0,0.0,0.0,0.0,0.0,0.0,0.0,0.0,0.0,0.0,0.0,0.0,0.0,0.0,0.0,0.0,0.0,0.0,0.0,0.0,0.0,0.0,0.0,0.0,0.0,0.0,0.0,0.0,0.0,0.0,0.0,0.0,0.0,0.0,0.0,0.0,0.0,0.0,0.0,0.0,0.0,0.0,0.0,0.0,0.0,0.0,0.0,0.0,0.0,0.0,0.0,0.0,0.0,0.0,0.0,0.0,0.0,0.0,-3.9835,-4.2994,-4.3644,-4.1629,-3.9221,-3.5938,0.0,0.0,0.0,0.0,0.0,0.0,0.0,0.0,0.0,0.0,0.0,0.0,0.0,0.0,0.0,0.0,0.0,0.0,0.0,0.0,0.0,0.0,0.0,0.0,0.0,0.0,0.0,0.0,0.0,0.0,0.0,0.0,0.0,0.0,0.0,0.0,0.0,0.0,0.0,0.0,0.0,0.0,0.0,0.0,0.0,0.0,0.0,0.0,0.0,0.0,0.0,0.0,0.0,0.0,0.0,0.0,0.0,0.0,0.0,0.0,0.0,0.0,0.0,0.0,0.0,0.0,0.0,0.0,0.0,0.0,0.0,0.0,0.0,0.0,0.0,0.0,0.0,0.0,0.0,0.0,0.0,0.0,0.0,0.0,0.0,0.0,0.0,0.0,0.0,0.0,0.0,0.0,0.0,0.0,0.0,0.0,0.0,0.0,0.0,0.0,0.0,0.0,0.0,0.0,0.0,0.0,0.0,0.0,0.0,-4.0814,-4.3851,-4.5303,-4.5007,-4.0823,-3.7768,0.0,0.0,0.0,0.0,0.0,0.0,0.0,0.0,0.0,0.0,0.0,0.0,0.0,0.0,0.0,0.0,0.0,0.0,0.0,0.0,0.0,0.0,0.0,0.0,0.0,0.0,0.0,0.0,0.0,0.0,0.0,0.0,0.0,0.0,0.0,0.0,0.0,0.0,0.0,0.0,0.0,0.0,0.0,0.0,0.0,0.0,0.0,0.0,0.0,0.0,0.0,0.0,0.0,0.0,0.0,0.0,0.0,0.0,0.0,0.0,0.0,0.0,0.0,0.0,0.0,0.0,0.0,0.0,0.0,0.0,0.0,0.0,0.0,0.0,0.0,0.0,0.0,0.0,0.0,0.0,0.0,0.0,0.0,0.0,0.0,0.0,0.0,0.0,0.0,0.0,0.0,0.0,0.0,0.0,0.0,0.0,0.0,0.0,0.0,0.0,0.0,0.0,0.0,0.0,0.0,0.0,0.0,0.0,-3.87,-4.1627,-4.4604,-4.6299,-4.6627,-4.31,-3.9973,0.0,0.0,0.0,0.0,0.0,0.0,0.0,0.0,0.0,0.0,0.0,0.0,0.0,0.0,0.0,0.0,0.0,0.0,0.0,0.0,0.0,0.0,0.0,0.0,0.0,0.0,0.0,0.0,0.0,0.0,0.0,0.0,0.0,0.0,0.0,0.0,0.0,0.0,0.0,0.0,0.0,0.0,0.0,0.0,0.0,0.0,0.0,0.0,0.0,0.0,0.0,0.0,0.0,0.0,0.0,0.0,0.0,0.0,0.0,0.0,0.0,0.0,0.0,0.0,0.0,0.0,0.0,0.0,0.0,0.0,0.0,0.0,0.0,0.0,0.0,0.0,0.0,0.0,0.0,0.0,0.0,0.0,0.0,0.0,0.0,0.0,0.0,0.0,0.0,0.0,0.0,0.0,0.0,0.0,0.0,0.0,0.0,0.0,0.0,0.0,0.0,0.0,0.0,0.0,0.0,0.0,0.0,0.0,-3.9343,-4.2252,-4.5077,-4.6633,-4.6735,-4.5213,-4.2033,0.0,0.0,0.0,0.0,0.0,0.0,0.0,0.0,0.0,0.0,0.0,0.0,0.0,0.0,0.0,0.0,0.0,0.0,0.0,0.0,0.0,0.0,0.0,0.0,0.0,0.0,0.0,0.0,0.0,0.0,0.0,0.0,0.0,0.0,0.0,0.0,0.0,0.0,0.0,0.0,0.0,0.0,0.0,0.0,0.0,0.0,0.0,0.0,0.0,0.0,0.0,0.0,0.0,0.0,0.0,0.0,0.0,0.0,0.0,0.0,0.0,0.0,0.0,0.0,0.0,0.0,0.0,0.0,0.0,0.0,0.0,0.0,0.0,0.0,0.0,0.0,0.0,0.0,0.0,0.0,0.0,0.0,0.0,0.0,0.0,0.0,0.0,0.0,0.0,0.0,0.0,0.0,0.0,0.0,0.0,0.0,0.0,0.0,0.0,0.0,0.0,0.0,0.0,0.0,0.0,0.0,0.0,0.0,-3.9343,-4.2219,-4.4096,-4.5602,-4.6752,-4.4181,-4.1441,0.0,0.0,0.0,0.0,0.0,0.0,0.0,0.0,0.0,0.0,0.0,0.0,0.0,0.0,0.0,0.0,0.0,0.0,0.0,0.0,0.0,0.0,0.0,0.0,0.0,0.0,0.0,0.0,0.0,0.0,0.0,0.0,0.0,0.0,0.0,0.0,0.0,0.0,0.0,0.0,0.0,0.0,0.0,0.0,0.0,0.0,0.0,0.0,-3.5723,0.0,0.0,0.0,0.0,0.0,0.0,0.0,0.0,0.0,0.0,0.0,0.0,0.0,0.0,0.0,0.0,0.0,0.0,0.0,0.0,0.0,0.0,0.0,0.0,0.0,0.0,0.0,0.0,0.0,0.0,0.0,0.0,0.0,0.0,0.0,0.0,0.0,0.0,0.0,0.0,0.0,0.0,0.0,0.0,0.0,0.0,0.0,0.0,0.0,0.0,0.0,0.0,0.0,0.0,0.0,0.0,0.0,0.0,0.0,-3.9512,-4.1728,-4.3267,-4.4418,-4.5111,-4.3318,-4.1255,0.0,0.0,0.0,0.0,0.0,0.0,0.0,0.0,0.0,0.0,0.0,0.0,0.0,0.0,0.0,0.0,0.0,0.0,0.0,0.0,0.0,0.0,0.0,0.0,0.0,0.0,0.0,0.0,0.0,0.0,0.0,0.0,0.0,0.0,0.0,0.0,0.0,0.0,0.0,0.0,0.0,0.0,0.0,0.0,0.0,0.0,0.0,0.0,0.0,0.0,0.0,0.0,0.0,0.0,0.0,0.0,0.0,0.0,0.0,0.0,0.0,0.0,0.0,0.0,0.0,0.0,0.0,0.0,0.0,0.0,0.0,0.0,0.0,0.0,0.0,0.0,0.0,0.0,0.0,0.0,0.0,0.0,0.0,0.0,0.0,0.0,0.0,0.0,0.0,0.0,0.0,0.0,0.0,0.0,0.0,0.0,0.0,0.0,0.0,0.0,0.0,0.0,0.0,0.0,0.0,0.0,0.0,-3.7753,-3.9478,-4.117,-4.2439,-4.3132,-4.3234,-4.2506,-4.0983,-3.8603,0.0,0.0,0.0,0.0,0.0,0.0,0.0,0.0,0.0,0.0,0.0,0.0,0.0,0.0,0.0,0.0,0.0,0.0,0.0,0.0,0.0,0.0,0.0,0.0,0.0,0.0,0.0,0.0,0.0,0.0,0.0,0.0,0.0,0.0,0.0,0.0,0.0,0.0,-3.2756,-3.5453,0.0,0.0,0.0,0.0,0.0,0.0,0.0,0.0,-3.8142,0.0,0.0,0.0,0.0,0.0,0.0,0.0,0.0,0.0,0.0,0.0,0.0,0.0,0.0,0.0,0.0,0.0,0.0,0.0,0.0,0.0,0.0,0.0,0.0,0.0,0.0,0.0,0.0,0.0,0.0,0.0,0.0,0.0,0.0,0.0,0.0,0.0,0.0,0.0,0.0,0.0,0.0,0.0,0.0,0.0,0.0,0.0,0.0,0.0,0.0,0.0,0.0,0.0,0.0,0.0,0.0,-3.7449,-3.728,-3.8447,-4.1119,-4.1424,-4.1847,-4.2422,-4.1762,-3.9833,-3.6571,0.0,0.0,0.0,0.0,0.0,0.0,0.0,0.0,0.0,0.0,0.0,0.0,0.0,0.0,0.0,0.0,0.0,0.0,0.0,0.0,0.0,0.0,0.0,0.0,0.0,0.0,0.0,0.0,0.0,0.0,0.0,0.0,0.0,0.0,0.0,0.0,0.0,0.0,0.0,-3.8058,-3.958,0.0,0.0,0.0,0.0,0.0,0.0,0.0,0.0,-3.8159,0.0,0.0,0.0,0.0,0.0,0.0,0.0,0.0,0.0,0.0,0.0,0.0,0.0,0.0,0.0,0.0,0.0,0.0,0.0,0.0,0.0,0.0,0.0,0.0,0.0,0.0,0.0,0.0,0.0,0.0,0.0,0.0,0.0,0.0,0.0,0.0,0.0,0.0,0.0,0.0,0.0,0.0,0.0,0.0,0.0,0.0,0.0,0.0,0.0,0.0,0.0,0.0,0.0,0.0,0.0,-3.6535,-3.7516,-3.8802,-4.0544,-4.0612,-4.0781,-4.1119,-3.9765,-3.7702,0.0,0.0,0.0,0.0,0.0,0.0,0.0,0.0,0.0,0.0,0.0,0.0,0.0,0.0,0.0,0.0,0.0,0.0,0.0,0.0,0.0,0.0,0.0,0.0,0.0,0.0,0.0,0.0,0.0,0.0,0.0,0.0,0.0,0.0,0.0,0.0,0.0,0.0,0.0,0.0,-3.8937,-4.0493,-4.1677,0.0,0.0,0.0,0.0,0.0,0.0,-3.8853,-3.8396,0.0,0.0,0.0,0.0,0.0,0.0,0.0,0.0,0.0,0.0,0.0,0.0,0.0,0.0,0.0,0.0,0.0,0.0,0.0,0.0,0.0,0.0,0.0,0.0,0.0,0.0,0.0,0.0,0.0,0.0,0.0,0.0,0.0,0.0,0.0,0.0,0.0,0.0,0.0,0.0,0.0,0.0,0.0,0.0,0.0,0.0,0.0,0.0,0.0,0.0,0.0,0.0,0.0,0.0,0.0,-3.5588,-3.755,-3.9039,-4.002,-4.0087,-4.0003,-3.9817,-3.8119,-3.6071,0.0,0.0,0.0,0.0,0.0,0.0,0.0,0.0,0.0,0.0,0.0,0.0,0.0,0.0,0.0,0.0,0.0,0.0,0.0,0.0,0.0,0.0,0.0,0.0,0.0,0.0,0.0,0.0,0.0,0.0,0.0,0.0,0.0,0.0,0.0,0.0,0.0,0.0,0.0,0.0,0.0,-4.1863,-4.3014,-4.2929,0.0,0.0,0.0,0.0,-3.9834,-3.9884,0.0,0.0,0.0,0.0,0.0,0.0,0.0,0.0,0.0,0.0,0.0,0.0,0.0,0.0,0.0,0.0,0.0,0.0,0.0,0.0,0.0,0.0,0.0,0.0,0.0,0.0,0.0,0.0,0.0,0.0,0.0,0.0,0.0,0.0,0.0,0.0,0.0,0.0,0.0,0.0,0.0,0.0,0.0,0.0,0.0,0.0,0.0,0.0,0.0,0.0,0.0,0.0,0.0,0.0,0.0,0.0,-3.5504,-3.6535,-3.8024,-3.9952,-4.007,-3.9782,-3.9069,-3.8272,-3.6283,0.0,0.0,0.0,0.0,0.0,0.0,0.0,0.0,0.0,0.0,0.0,0.0,0.0,0.0,0.0,0.0,0.0,0.0,0.0,0.0,0.0,0.0,0.0,0.0,0.0,0.0,0.0,0.0,0.0,0.0,0.0,0.0,0.0,0.0,0.0,0.0,0.0,0.0,0.0,0.0,0.0,-4.5145,-4.276,-4.3504,-4.3775,0.0,0.0,-4.1407,-4.2692,-4.2895,0.0,0.0,0.0,0.0,0.0,0.0,0.0,0.0,0.0,0.0,0.0,0.0,0.0,0.0,0.0,0.0,0.0,0.0,0.0,0.0,0.0,0.0,0.0,0.0,0.0,0.0,0.0,0.0,0.0,0.0,0.0,0.0,0.0,0.0,0.0,0.0,0.0,0.0,0.0,0.0,0.0,0.0,0.0,0.0,0.0,0.0,0.0,0.0,0.0,0.0,0.0,0.0,0.0,0.0,0.0,-3.2138,-3.4895,-3.6163,-3.7449,-3.8785,-3.8836,-3.8489,-3.7725,-3.5936,-3.4089,0.0,0.0,0.0,0.0,0.0,0.0,0.0,0.0,0.0,0.0,0.0,0.0,0.0,0.0,0.0,0.0,0.0,0.0,0.0,0.0,0.0,0.0,0.0,0.0,0.0,0.0,0.0,0.0,0.0,0.0,0.0,0.0,0.0,0.0,0.0,0.0,0.0,0.0,0.0,0.0,0.0,0.0,-4.4265,-4.479,0.0,0.0,0.0,-4.2354,-4.3842,0.0,0.0,0.0,0.0,0.0,0.0,0.0,0.0,0.0,0.0,0.0,0.0,0.0,0.0,0.0,0.0,0.0,0.0,0.0,0.0,0.0,0.0,0.0,0.0,0.0,0.0,0.0,0.0,0.0,0.0,0.0,0.0,0.0,0.0,0.0,0.0,0.0,0.0,0.0,0.0,0.0,0.0,0.0,0.0,0.0,0.0,0.0,0.0,0.0,0.0,0.0,0.0,0.0,0.0,0.0,0.0,0.0,-3.4201,-3.5723,-3.6848,-3.758,-3.7614,-3.7203,-3.6287,-3.3944,0.0,0.0,0.0,0.0,0.0,0.0,0.0,0.0,0.0,0.0,0.0,0.0,0.0,0.0,0.0,0.0,0.0,0.0,0.0,0.0,0.0,0.0,0.0,0.0,0.0,0.0,0.0,-2.4103,0.0,0.0,0.0,0.0,0.0,0.0,0.0,0.0,0.0,0.0,0.0,0.0,0.0,0.0,-4.413,-4.5263,-4.5737,-4.6227,0.0,0.0,-4.3335,-4.4654,-4.4045,-4.2675,0.0,0.0,0.0,0.0,0.0,0.0,0.0,0.0,0.0,0.0,0.0,0.0,0.0,0.0,0.0,0.0,0.0,0.0,0.0,0.0,0.0,0.0,0.0,0.0,0.0,0.0,0.0,0.0,0.0,0.0,0.0,0.0,0.0,0.0,0.0,0.0,0.0,0.0,0.0,0.0,0.0,0.0,0.0,0.0,0.0,0.0,0.0,0.0,0.0,0.0,0.0,0.0,0.0,0.0,0.0,-3.344,-3.4928,-3.6071,-3.6836,-3.6886,-3.6231,-3.4873,-3.3458,-3.1744,0.0,0.0,0.0,0.0,0.0,0.0,0.0,0.0,0.0,0.0,0.0,0.0,0.0,0.0,0.0,0.0,0.0,0.0,0.0,0.0,0.0,0.0,0.0,0.0,0.0,0.0,0.0,0.0,0.0,0.0,0.0,0.0,0.0,0.0,0.0,0.0,0.0,0.0,0.0,0.0,0.0,-4.4536,-4.4637,-4.5838,-4.6972,0.0,0.0,-4.4722,-4.5517,-4.6092,-4.5043,-4.0815,0.0,0.0,0.0,0.0,0.0,0.0,0.0,0.0,0.0,0.0,0.0,0.0,0.0,0.0,0.0,0.0,0.0,0.0,0.0,0.0,0.0,0.0,0.0,0.0,0.0,0.0,0.0,0.0,0.0,0.0,0.0,0.0,0.0,0.0,0.0,0.0,0.0,0.0,0.0,0.0,0.0,0.0,0.0,0.0,0.0,0.0,0.0,0.0,0.0,0.0,0.0,0.0,0.0,-3.097,-3.2696,-3.374,-3.4681,-3.5415,-3.5034,-3.4398,-3.3432,-3.2501,-3.1251,0.0,0.0,0.0,0.0,0.0,0.0,0.0,0.0,0.0,0.0,0.0,0.0,0.0,0.0,0.0,0.0,0.0,0.0,0.0,0.0,0.0,0.0,0.0,0.0,0.0,0.0,0.0,0.0,-2.5869,-2.6273,-2.5884,0.0,0.0,0.0,0.0,0.0,0.0,0.0,0.0,0.0,0.0,-4.457,-4.457,-4.5855,0.0,0.0,-4.572,-4.4993,-4.6194,-4.5043,-4.3436,-4.1728,-3.9763,0.0,0.0,0.0,0.0,0.0,0.0,0.0,0.0,0.0,0.0,0.0,0.0,0.0,0.0,0.0,0.0,0.0,0.0,0.0,0.0,0.0,0.0,0.0,0.0,0.0,0.0,0.0,0.0,0.0,0.0,0.0,0.0,0.0,0.0,0.0,0.0,0.0,0.0,0.0,0.0,0.0,0.0,0.0,0.0,0.0,0.0,0.0,0.0,0.0,0.0,0.0,0.0,-3.0252,-3.1724,-3.2521,-3.3258,-3.3971,-3.3531,-3.2986,-3.2296,-3.1428,-3.0464,0.0,0.0,0.0,0.0,0.0,0.0,0.0,0.0,0.0,0.0,0.0,0.0,0.0,0.0,0.0,0.0,0.0,0.0,0.0,0.0,0.0,0.0,0.0,0.0,0.0,0.0,0.0,0.0,-2.6677,-2.6946,-2.6108,0.0,0.0,0.0,0.0,0.0,0.0,0.0,0.0,0.0,0.0,-4.4057,-4.4553,-4.5483,-4.6126,-4.6126,-4.4857,-4.4333,-4.5585,-4.3923,-4.2282,-4.1409,0.0,0.0,0.0,0.0,0.0,0.0,0.0,0.0,0.0,0.0,0.0,0.0,0.0,0.0,0.0,0.0,0.0,0.0,0.0,0.0,0.0,0.0,0.0,0.0,0.0,0.0,0.0,0.0,0.0,0.0,0.0,0.0,0.0,0.0,0.0,0.0,0.0,0.0,0.0,0.0,0.0,0.0,0.0,0.0,0.0,0.0,0.0,0.0,0.0,0.0,0.0,0.0,0.0,-2.8918,-3.0414,-3.1182,-3.1876,-3.2602,-3.2641,-3.2226,-3.1522,-3.0283,-2.9295,-2.8622,0.0,0.0,0.0,0.0,0.0,0.0,0.0,0.0,0.0,0.0,0.0,0.0,0.0,0.0,0.0,0.0,0.0,0.0,0.0,0.0,0.0,0.0,0.0,0.0,0.0,0.0,-2.8353,-2.7365,-2.6138,0.0,0.0,0.0,0.0,0.0,0.0,0.0,0.0,0.0,0.0,-4.0819,-4.2808,-4.4305,-4.4604,-4.4688,-4.4637,-4.3369,-4.2658,-4.3415,-4.319,-4.2144,0.0,0.0,0.0,0.0,0.0,0.0,0.0,0.0,0.0,0.0,0.0,0.0,0.0,0.0,0.0,0.0,0.0,0.0,0.0,0.0,0.0,0.0,0.0,0.0,0.0,0.0,0.0,-3.523,-3.3761,0.0,0.0,0.0,0.0,0.0,0.0,0.0,0.0,0.0,0.0,0.0,-3.3446,-3.4393,0.0,0.0,0.0,0.0,0.0,0.0,0.0,0.0,0.0,0.0,0.0,0.0,-2.8281,-2.9649,-3.0022,-3.0545,-3.1228,-3.083,-3.0498,-3.0223,-2.9819,-2.9056,-2.7949,0.0,0.0,0.0,0.0,0.0,0.0,0.0,0.0,0.0,0.0,0.0,0.0,0.0,0.0,0.0,0.0,0.0,0.0,0.0,0.0,0.0,0.0,0.0,0.0,0.0,-2.8173,0.0,0.0,0.0,0.0,0.0,0.0,0.0,0.0,0.0,0.0,0.0,-3.6683,-3.7988,-4.0475,-4.2045,-4.1606,-4.3297,-4.4011,0.0,0.0,0.0,0.0,0.0,0.0,0.0,0.0,0.0,0.0,0.0,0.0,0.0,0.0,-3.7719,-3.4427,-3.2946,-3.2258,-3.2467,0.0,0.0,0.0,0.0,0.0,0.0,0.0,0.0,0.0,0.0,0.0,0.0,0.0,0.0,0.0,0.0,-3.4996,0.0,0.0,0.0,0.0,0.0,0.0,0.0,0.0,-3.4539,-3.5047,-3.414,-3.5133,-3.5055,0.0,-3.3404,-3.1762,0.0,0.0,0.0,0.0,0.0,0.0,0.0,0.0,-2.7926,-2.9092,-2.9169,-2.9521,-3.0201,-2.9818,-2.9594,-2.9594,-2.9355,-2.8607,-2.7275,-2.6408,-2.5734,0.0,0.0,0.0,0.0,0.0,0.0,0.0,0.0,0.0,0.0,0.0,0.0,0.0,0.0,0.0,0.0,0.0,0.0,0.0,0.0,0.0,0.0,0.0,-2.8233,0.0,0.0,0.0,0.0,0.0,0.0,0.0,0.0,0.0,-3.3242,-3.5147,-3.6951,-3.827,-3.9914,-4.072,-4.0055,0.0,0.0,0.0,0.0,0.0,0.0,0.0,-3.955,-4.004,-3.9203,-3.8635,-3.91,-3.9647,-3.9768,-3.8886,0.0,0.0,-3.6342,-3.4801,-3.3963,-3.4173,-3.332,-3.2766,-3.3425,-3.3215,-3.2961,0.0,0.0,0.0,0.0,0.0,0.0,0.0,0.0,-4.1643,-4.0262,0.0,-3.6113,0.0,0.0,0.0,0.0,0.0,0.0,0.0,0.0,-3.4575,-3.5516,-3.5519,-3.5453,-3.5501,-3.5473,-3.4743,-3.3396,-3.1435,-2.9501,0.0,0.0,0.0,0.0,0.0,0.0,-2.771,-2.8494,-2.8569,-2.8846,-2.9439,-2.9475,-2.9505,-2.949,-2.8876,-2.7919,-2.6707,-2.6602,-2.6019,-2.4746,-2.4627,0.0,0.0,0.0,0.0,0.0,0.0,0.0,0.0,0.0,0.0,0.0,0.0,0.0,0.0,0.0,0.0,0.0,0.0,0.0,0.0,-2.8592,0.0,0.0,0.0,0.0,0.0,0.0,0.0,0.0,0.0,0.0,-3.449,-3.5658,-3.7264,-3.9265,0.0,0.0,0.0,0.0,-3.963,-3.887,-3.9333,-3.975,-3.975,-4.0125,-3.9998,-3.8762,0.0,0.0,-3.8616,-3.8931,-3.896,-3.7674,-3.7988,-3.8781,-3.9903,-3.7958,-3.6567,-3.7045,-3.5654,-3.4786,-3.5295,-3.5185,-3.4986,-4.1796,0.0,0.0,0.0,0.0,-3.943,-4.0815,-4.1675,-4.2108,-4.112,-3.9123,-3.8362,0.0,0.0,0.0,0.0,0.0,0.0,-3.3652,-3.3925,-3.4988,-3.5232,-3.4817,-3.4778,-3.4538,-3.4106,-3.3396,-3.2781,-3.2153,-3.0262,-2.8758,-2.7738,0.0,0.0,0.0,0.0,-2.6447,-2.7141,-2.7634,-2.75,-2.6752,-2.7664,-2.8195,-2.8143,-2.7515,-2.72,-2.7325,-2.6841,-2.6632,-2.6707,-2.5375,0.0,0.0,0.0,0.0,0.0,0.0,0.0,0.0,0.0,0.0,0.0,0.0,0.0,0.0,0.0,0.0,0.0,0.0,0.0,-2.922,-2.8442,-2.7919,0.0,0.0,0.0,0.0,0.0,0.0,0.0,0.0,0.0,-3.5699,-3.624,-3.6522,0.0,0.0,-3.7635,-3.6886,-3.8182,-3.8708,-3.7348,0.0,0.0,0.0,-3.7855,-3.7706,-3.7714,-3.8412,-3.8826,-3.8452,-3.8556,-3.8422,-3.7539,-3.7554,-3.7823,-3.8078,-3.7345,-3.6582,-3.6626,-3.5908,-3.5295,-3.5459,-3.4986,-3.4633,-4.3792,-4.1796,-4.1221,-4.0439,-3.9776,-4.088,-4.1728,-4.2267,-4.1677,-4.0916,-4.007,-3.9277,-3.7619,-3.5333,-3.4436,0.0,0.0,0.0,-3.3697,-3.416,-3.4546,-3.4485,-3.4145,-3.4098,-3.3739,-3.3095,-3.2437,-3.1973,-3.1689,-3.0013,-2.8637,-2.764,0.0,0.0,-2.6572,-2.6198,-2.6063,-2.6213,-2.6587,-2.6408,-2.5644,-2.6393,-2.6916,-2.7156,-2.6797,-2.6901,-2.7545,-2.7186,-2.6916,-2.6782,-2.5659,-2.4956,0.0,0.0,0.0,0.0,0.0,0.0,0.0,0.0,0.0,0.0,0.0,-2.6467,-2.6228,0.0,0.0,0.0,-2.7964,-2.8981,-2.9849,-2.922,0.0,0.0,0.0,0.0,0.0,0.0,0.0,-3.3918,-3.4203,-3.4622,-3.5564,-3.5923,-3.6148,-3.6252,-3.6561,-3.6554,-3.5974,0.0,-3.7606,-3.6595,-3.744,-3.7968,-3.7458,-3.7105,-3.6985,-3.7345,-3.7734,-3.7988,-3.8003,-3.8003,-3.7674,-3.6911,-3.6656,-3.6492,-3.5953,-3.5258,-3.5251,-3.6231,-3.5953,-3.5444,-3.5175,-3.4587,-3.4222,-4.5077,-4.4265,-4.2929,-4.2405,-4.2458,-4.2036,-4.197,-4.2039,-4.0679,-4.0104,-4.0037,-3.9172,-3.8007,-3.6571,-3.4525,0.0,0.0,-3.3849,-3.3574,-3.3574,-3.3455,-3.3395,-3.3335,-3.3275,-3.2886,-3.2183,-3.1584,-3.0941,-3.0223,-2.9026,-2.8113,-2.75,-2.7475,-2.7111,-2.6542,-2.6452,-2.6138,-2.554,-2.5585,-2.5615,-2.56,-2.551,-2.5794,-2.6482,-2.6404,-2.6673,-2.7315,-2.736,-2.6792,-2.5642,-2.5508,-2.491,-2.3672,0.0,0.0,0.0,0.0,0.0,0.0,0.0,0.0,0.0,0.0,0.0,0.0,0.0,0.0,0.0,-2.8248,0.0,-3.0477,-3.0492,0.0,0.0,0.0,-3.1422,-3.1467,-3.2602,-3.3365,-3.341,0.0,0.0,-3.4472,0.0,-3.5804,-3.7015,-3.6207,-3.5729,-3.6327,-3.6439,-3.6417,-3.6357,-3.6866,-3.724,-3.712,-3.7045,-3.6941,-3.6971,-3.7135,-3.6985,-3.6985,-3.6985,-3.6552,-3.5444,-3.525,-3.4876,-3.3589,-3.2794,-3.2946,-3.5478,-3.5478,-3.4892,-3.4263,-3.3908,-3.3381,-4.3521,-4.2861,-4.3047,-4.3474,-4.4045,-4.3926,-4.2625,-4.0618,-4.0217,-4.0022,-4.0022,-3.8658,-3.754,-3.6582,-3.5477,-3.51,-3.5235,-3.4583,-3.4247,-3.4173,-3.3215,-3.2482,-3.1988,-3.1465,-3.0627,-2.9564,-2.937,-2.8936,-2.8263,-2.7455,-2.6991,-2.6811,-2.6318,-2.6004,-2.5824,-2.5345,-2.5031,-2.4821,-2.5345,-2.56,-2.5585,-2.4597,-2.4657,-2.5809,-2.4893,-2.4684,-2.536,-2.5389,-2.5258,-2.4951,-2.4875,-2.452,-2.3708,-2.3644,0.0,0.0,0.0,0.0,0.0,0.0,0.0,0.0,0.0,-2.7395,-2.5734,0.0,-2.8667,0.0,-2.8652,-2.9879,-3.1093,-3.0387,0.0,0.0,-3.0971,-3.0956,-3.148,-3.1809,-3.2183,-3.2691,-3.3036,-3.335,-3.3679,-3.3873,-3.4277,-3.5055,-3.537,-3.5579,-3.5714,-3.5744,-3.5744,-3.5729,-3.5848,-3.5953,-3.5923,-3.5504,-3.5205,-3.5175,-3.4786,-3.4427,-3.4442,-3.4427,-3.4158,-3.341,-3.323,-3.2901,-3.2094,-3.1812,-3.1812,-3.2542,-3.2358,-3.2018,-3.1863,-3.1274,-3.0691,-4.2675,-4.2337,-4.2743,-4.3034,-4.328,-4.328,-4.2047,-4.0093,-3.9582,-3.9452,-3.9446,-3.7966,-3.6687,-3.5644,-3.5217,-3.4891,-3.4577,-3.3903,-3.344,-3.311,-3.2108,-3.112,-3.0223,-2.9849,-2.8966,-2.7724,-2.7709,-2.7365,-2.6692,-2.6033,-2.5734,-2.5704,-2.5046,-2.4582,-2.4328,-2.4522,-2.4477,-2.4163,-2.4522,-2.4717,-2.4702,-2.3984,-2.4103,-2.5075,-2.4224,-2.4028,-2.465,-2.4433,-2.4141,-2.3808,-2.3784,-2.3454,-2.2824,-2.2747,-2.2606,0.0,0.0,0.0,0.0,0.0,0.0,0.0,0.0,0.0,0.0,0.0,-2.9071,0.0,-2.9564,-3.0537,-3.1854,-3.1315,-3.118,-3.1898,-3.1898,-3.1869,-3.1958,-3.2228,-3.2542,-3.2901,-3.2946,-3.308,-3.3455,-3.3499,-3.3634,-3.3993,-3.4367,-3.4711,-3.4996,-3.504,-3.4951,-3.4666,-3.4607,-3.4607,-3.4607,-3.4292,-3.3948,-3.3649,-3.3305,-3.2976,-3.2677,-3.2617,-3.2407,-3.1779,-3.1367,-3.0911,-3.0234,-2.9492,-2.9123,-2.9029,-2.8587,-2.8787,-2.9975,-2.9582,-2.895,-4.21,-4.2016,-4.21,-4.1882,-4.1426,-4.1239,-4.078,-3.9999,-3.8983,-3.8455,-3.8235,-3.6833,-3.5507,-3.4415,-3.4352,-3.4038,-3.3469,-3.2721,-3.2078,-3.1437,-3.0567,-2.9535,-2.8472,-2.8293,-2.756,-2.6378,-2.6258,-2.5869,-2.5226,-2.4567,-2.4209,-2.4179,-2.3655,-2.3044,-2.2524,-2.3583,-2.3911,-2.349,-2.355,-2.3551,-2.3508,-2.3465,-2.3747,-2.4162,-2.367,-2.3617,-2.4146,-2.3616,-2.3078,-2.2517,-2.2539,-2.2277,-2.1643,-2.1649,-2.1663,0.0,-2.1649,0.0,0.0,0.0,0.0,0.0,0.0,0.0,0.0,-2.8023,-2.9355,-3.0537,-3.0642,-3.112,-3.2287,-3.2392,-3.2377,-3.2392,-3.2826,-3.2916,-3.2467,-3.2766,-3.3036,-3.3095,-3.3051,-3.2991,-3.2901,-3.3051,-3.311,-3.3185,-3.3215,-3.3425,-3.3963,-3.4233,-3.4128,-3.3484,-3.344,-3.3619,-3.3455,-3.3305,-3.2991,-3.2422,-3.2123,-3.1855,-3.1023,-3.0934,-3.0696,-2.9855,-2.9141,-2.8512,-2.7909,-2.6668,-2.5882,-2.5948,-2.5288,-2.5563,-2.7737,-2.8005,-2.7305,-4.1068,-4.0561,-4.1153,-4.1001,-4.0341,-3.9479,-3.953,-4.002,-3.8596,-3.7006,-3.5309,-3.4424,-3.3984,-3.3679,-3.3679,-3.3619,-3.3425,-3.2258,-3.1601,-3.1392,-2.9175,-2.8008,-2.7709,-2.6677,-2.5764,-2.5001,-2.4433,-2.3849,-2.3263,-2.2577,-2.2248,-2.2233,-2.2113,-2.1776,-2.1274,0.0,0.0,0.0,-2.334,-2.3377,-2.2875,-2.2875,-2.2678,-2.2255,-2.1663,0.0,-2.1511,-2.1425,-2.1272,-2.1215,-2.1601,0.0,0.0,0.0,0.0,0.0,0.0,0.0,0.0,0.0,0.0,0.0,-2.5902,-2.6755,-2.739,-2.9071,-3.0477,-3.1255,-3.1287,-3.1435,-3.1631,-3.1719,-3.1661,-3.1704,-3.133,-3.1225,-3.1614,-3.0941,-3.0507,-3.1001,-3.0642,-3.0342,-3.0462,-3.0731,-3.13,-3.1824,-3.184,-3.1958,-3.2063,-3.2961,-3.3395,-3.2856,-3.2976,-3.3215,-3.2781,-3.2243,-3.1674,-3.1046,-3.0432,-2.9729,-2.8624,-2.8353,-2.7697,-2.6312,-2.5678,-2.543,-2.4787,-2.4343,-2.419,-2.4159,-2.3553,-2.3433,-2.4728,-2.4942,-2.4461,-4.0206,0.0,-3.9952,-3.948,0.0,-3.9076,-3.911,-3.8579,-3.6764,-3.5245,-3.3978,-3.3634,-3.314,-3.2527,-3.2527,-3.2168,-3.1524,-3.0537,-2.9909,-2.949,-2.7859,-2.6737,-2.6093,-2.5091,-2.4283,-2.3655,-2.2981,-2.2349,-2.1831,-2.1724,-2.156,-2.1289,-2.1318,-2.1142,-2.0793,-2.0524,-2.0761,-2.1425,-2.1975,-2.213,-2.1815,-2.2098,-2.2039,-2.1697,0.0,0.0,0.0,0.0,0.0,0.0,0.0,0.0,0.0,0.0,0.0,-2.0346,-2.057,-2.1086,-2.1704,-2.2336,-2.3104,-2.4069,-2.5334,-2.6688,-2.7957,-2.8996,-2.9849,-3.0507,-3.0567,-3.0567,-3.0567,-3.0567,-3.0567,-3.0552,-3.0268,-3.0208,-3.0432,-2.9998,-2.9699,-2.9953,-2.9789,-2.9594,-2.9594,-2.9459,-2.9785,-3.038,-3.0184,-2.9994,-3.0142,-3.118,-3.1779,-3.118,-3.1315,-3.1435,-3.1135,-3.0821,-3.0178,-2.9295,-2.8786,-2.7966,-2.6439,-2.6176,-2.571,-2.4427,-2.3898,-2.3525,-2.3241,-2.2883,-2.2631,-2.2578,-2.2309,-2.2056,-2.2355,-2.256,-2.2623,-3.9445,-3.8802,-3.8819,-3.8036,-3.6934,-3.8807,-3.8264,-3.6126,0.0,0.0,0.0,-3.3021,-3.2302,-3.1195,-3.1061,-3.0432,-2.9385,-2.8592,-2.7874,-2.7186,-2.6422,-2.542,-2.4268,-2.358,-2.2996,-2.2488,-2.1844,-2.1262,-2.0732,-2.1064,-2.095,-2.0436,-2.0395,-2.0298,-2.007,-1.9581,-1.9376,-1.9496,-2.0329,-2.0757,-2.0763,-2.117,-2.1424,-2.1363,-2.0868,-2.0597,-2.061,-2.0105,-1.9798,-1.9798,-1.9798,-1.9798,-1.9798,-1.9798,-1.9798,-1.9798,-1.9798,-2.0055,-2.061,-2.1235,-2.2153,-2.339,-2.4519,-2.5994,-2.7936,-2.818,-2.8468,-2.9,-2.9148,-2.9178,-2.906,-2.9045,-2.9,-2.8951,-2.8818,-2.8719,-2.8877,-2.8684,-2.8399,-2.8729,-2.8497,-2.8512,-2.837,-2.8119,-2.8086,-2.8498,-2.8207,-2.7784,-2.7948,-2.9134,-3.0073,-2.9639,-2.953,-2.9253,-2.8925,-2.8675,-2.8269,-2.7049,-2.6864,-2.6241,-2.4753,-2.4212,-2.3858,-2.3012,-2.2457,-2.2115,-2.2035,-2.1609,-2.1247,-2.1179,-2.1179,-2.1066,-2.069,-2.0878,-2.1179,-3.8717,-3.8058,-3.8058,-3.7584,-3.6852,-3.7286,-3.5575,-3.2567,-3.374,-3.3393,-3.1779,-3.118,-3.0537,-2.9834,-2.9265,-2.8906,-2.8652,-2.744,-2.6512,0.0,-2.4597,-2.364,-2.2936,-2.2278,-2.1919,-2.1784,-2.1171,-2.0557,-2.0038,-1.9532,-1.9037,-1.8581,-1.8474,-1.83,-1.776,-1.7235,-1.6991,-1.7063,-1.91,-2.0196,-2.0161,-2.0193,-2.0197,-2.0067,-1.9978,-1.9952,-1.9952,-1.9837,-1.9798,-1.9798,-1.9798,-1.9798,-1.9798,-1.9798,-1.9798,-1.9798,-1.9798,-1.985,-1.9965,-2.0496,-2.143,-2.2604,-2.2924,-2.3884,-2.5879,-2.6515,-2.6807,-2.6976,-2.7328,-2.7411,-2.699,-2.6975,-2.6805,-2.6337,-2.576,-2.5646,-2.6196,-2.5378,-2.4996,-2.5516,-2.485,-2.469,-2.4963,-2.5497,-2.5864,-2.5635,-2.5964,-2.5696,-2.5369,-2.6989,-2.8644,-2.8689,-2.8243,-2.7423,-2.6547,-2.5726,-2.5327,-2.4399,-2.4366,-2.4002,-2.261,-2.2373,-2.192,-2.0643,-2.0501,-2.0372,-2.0308,-2.0141,-2.0137,-2.0162,-2.0175,-2.0087,-1.9999,-2.0087,-2.0112,-3.7973,-3.7263,-3.684,-3.5994,-3.4922,-3.3808,-3.1895,-2.959,-3.0335,-3.0643,-3.0447,-3.0133,-2.943,-2.8502,-2.8188,-2.744,-2.6393,-2.542,-2.4627,-2.3969,-2.3011,-2.2274,-2.1715,-2.1028,-2.06,-2.0232,-1.9602,-1.9027,-1.8547,-1.8467,-1.8171,-1.7747,-1.7933,-1.772,-1.6909,-1.6921,-1.6808,-1.6534,-1.7922,-1.8616,-1.8616,-1.8866,-1.8971,-1.8932,-1.8932,-1.8932,-1.8945,-1.9208,-1.9246,-1.8945,-1.9497,-1.9673,-1.9409,-1.9648,-1.9798,-1.9798,-1.9798,-1.9798,-1.9798,-2.0118,-2.0406,-2.0686,-2.0722,-2.1073,-2.2021,-2.3881,-2.5098,-2.5497,-2.5446,-2.542,-2.5459,-2.5219,-2.4894,-2.4615,-2.4323,-2.4295,-2.4462,-2.4142,-2.3826,-2.41,-2.3881,-2.3715,-2.3715,-2.3834,-2.4066,-2.4118,-2.4441,-2.4287,-2.3729,-2.4901,-2.5957,-2.5891,-2.5654,-2.5284,-2.468,-2.4376,-2.3905,-2.3261,-2.3164,-2.2615,-2.1576,-2.1255,-2.0833,-2.0067,-1.9798,-1.9798,-1.9798,-1.9798,-1.9798,-1.9798,-1.9798,-1.9798,-1.9798,-1.9798,-1.9798,-3.684,-3.5943,-3.5368,-3.4471,-3.3313,-3.13,-2.922,-2.7223,-2.7151,-2.7728,-2.8637,-2.8846,-2.8248,-2.7171,-2.6826,-2.5824,-2.4418,-2.3535,-2.2832,-2.2233,-2.171,-2.1089,-2.0428,-1.9926,-1.939,-1.8877,-1.8367,-1.7827,-1.7435,-1.7706,-1.7666,-1.7242,-1.7558,-1.7312,-1.6509,-1.6909,-1.6921,-1.6547,-1.6961,-1.725,-1.7388,-1.7802,-1.8078,-1.8204,-1.8204,-1.8204,-1.8229,-1.8618,-1.8595,-1.8279,-1.9007,-1.9258,-1.8882,-1.9221,-1.9447,-1.9447,-1.9434,-1.9447,-1.946,-1.9523,-1.9415,-1.8957,-1.8904,-1.8917,-1.9107,-2.1054,-2.2784,-2.3392,-2.3224,-2.3242,-2.3562,-2.3344,-2.2992,-2.2869,-2.2842,-2.2698,-2.2828,-2.2814,-2.2828,-2.2828,-2.2733,-2.2586,-2.2685,-2.2374,-2.2307,-2.2811,-2.2944,-2.2828,-2.2828,-2.2828,-2.2828,-2.2906,-2.304,-2.3183,-2.31,-2.2801,-2.2509,-2.2088,-2.1997,-2.1509,-2.0791,-2.0573,-2.0409,-1.9901,-1.9798,-1.9798,-1.9798,-1.9798,-1.9798,-1.9798,-1.9798,-1.9798,-1.9798,-1.966,-1.9685,-3.503,-3.3812,-3.3694,-3.3533,-3.3162,-3.1755,-2.9054,-2.6031,-2.5786,-2.5821,-2.6093,-2.6602,-2.6452,-2.5674,-2.4567,-2.3924,-2.3535,-2.2413,-2.153,-2.0923,-2.0842,-2.0188,-1.9166,-1.9022,-1.8697,-1.8242,-1.8094,-1.7747,-1.7271,-1.7312,-1.7105,-1.6637,-1.6637,-1.665,-1.6509,-1.6552,-1.6565,-1.6534,-1.6559,-1.6861,-1.735,-1.7426,-1.7689,-1.8191,-1.8191,-1.8204,-1.8129,-1.8254,-1.8254,-1.8216,-1.8304,-1.8342,-1.8292,-1.8329,-1.8367,-1.838,-1.838,-1.8355,-1.8355,-1.8352,-1.8324,-1.8298,-1.827,-1.827,-1.827,-1.8545,-1.9164,-2.013,-2.0757,-2.104,-2.1089,-2.1038,-2.0835,-2.0399,-2.0348,-2.0143,-2.0246,-2.0143,-2.0156,-2.0143,-2.0002,-1.9623,-2.0207,-2.0302,-2.0514,-2.1,-2.074,-2.045,-2.0399,-2.0399,-2.0399,-2.0489,-2.1146,-2.1595,-2.1266,-2.0564,-2.054,-2.0284,-2.0144,-2.0118,-2.0067,-2.0003,-1.985,-1.9901,-1.9798,-1.9798,-1.9798,-1.9798,-1.9786,-1.9673,-1.9685,-1.9736,-1.9723,-1.9409,-1.9221,-3.3964,-3.3372,-3.2933,-3.2068,-3.0843,-2.8812,-2.6596,-2.4459,-2.403,-2.4073,-2.4328,-2.3924,-2.3954,-2.4373,-2.3834,-2.2996,-2.1889,-2.135,-2.0584,-1.9698,-1.9631,-1.9037,-1.804,-1.7947,-1.7666,-1.7188,-1.716,-1.7034,-1.6866,-1.6837,-1.671,-1.6522,-1.6534,-1.6534,-1.6534,-1.6534,-1.6534,-1.6534,-1.6534,-1.6635,-1.6835,-1.6861,-1.6974,-1.7174,-1.7212,-1.72,-1.725,-1.7526,-1.7564,-1.7287,-1.7827,-1.8041,-1.7739,-1.8028,-1.8204,-1.8204,-1.8204,-1.8053,-1.7752,-1.7714,-1.7576,-1.7237,-1.7212,-1.72,-1.72,-1.72,-1.7539,-1.8267,-1.8882,-1.9345,-1.9677,-1.9431,-1.9095,-1.8894,-1.8857,-1.8869,-1.8857,-1.8857,-1.8844,-1.8832,-1.8668,-1.8606,-1.8781,-1.8897,-1.905,-1.9208,-1.9003,-1.8907,-1.8869,-1.8857,-1.8857,-1.8931,-1.9353,-1.9834,-2.0028,-2.0003,-1.9837,-1.9786,-1.9798,-1.9798,-1.9773,-1.9798,-1.9798,-1.9786,-1.9798,-1.9798,-1.9798,-1.9773,-1.9748,-1.9497,-1.9007,-1.8857,-1.8844,-1.8694,-1.8694,-3.2276,-3.1849,-3.0883,-2.9823,-2.8706,-2.6487,-2.4395,-2.2683,-2.245,-2.2667,-2.2951,-2.2099,-2.2099,-2.2727,-2.2817,-2.2009,-2.0774,-2.0362,-1.9727,-1.8907,-1.8765,-1.8198,-1.734,-1.7312,-1.7034,-1.6552,-1.6522,-1.6522,-1.6534,-1.6534,-1.6534,-1.6534,-1.6534,-1.6534,-1.6534,-1.6534,-1.6534,-1.6534,-1.6534,-1.6534,-1.6534,-1.6534,-1.6534,-1.6534,-1.6534,-1.6534,-1.6534,-1.6923,-1.6961,-1.6559,-1.7313,-1.7564,-1.72,-1.7526,-1.7739,-1.7739,-1.7739,-1.7576,-1.7174,-1.7137,-1.6961,-1.6584,-1.6534,-1.6534,-1.6534,-1.6534,-1.6697,-1.7112,-1.7513,-1.8045,-1.8688,-1.8448,-1.8204,-1.8204,-1.8204,-1.8204,-1.8229,-1.8204,-1.8242,-1.8204,-1.8103,-1.7978,-1.8003,-1.8163,-1.8314,-1.8314,-1.8242,-1.8204,-1.8204,-1.8242,-1.8242,-1.8204,-1.8229,-1.853,-1.9208,-1.9284,-1.9397,-1.9535,-1.9472,-1.9321,-1.9535,-1.9585,-1.9585,-1.9447,-1.9635,-1.9673,-1.951,-1.9497,-1.9384,-1.8833,-1.8405,-1.8103,-1.8317,-1.8129,-1.8003,-2.952,-2.8322,-2.657,-2.6586,-2.7348,-2.6034,-2.3366,-2.02,-2.1188,-2.1739,-2.1814,-2.1665,-2.1365,-2.0917,-2.0961,-2.0812,-2.0527,-1.9572,-1.904,-1.8817,-1.838,-1.7867,-1.7312,-1.7312,-1.7034,-1.6522,-1.6534,-1.6534,-1.6534,-1.6534,-1.6534,-1.6534,-1.6534,-1.6534,-1.6534,-1.6534,-1.6534,-1.6534,-1.6534,-1.6534,-1.6534,-1.6534,-1.6534,-1.6534,-1.6534,-1.6534,-1.6534,-1.6534,-1.6547,-1.6534,-1.6579,-1.6622,-1.6584,-1.6622,-1.6672,-1.666,-1.6647,-1.6635,-1.6609,-1.6609,-1.6572,-1.6534,-1.6534,-1.6534,-1.6534,-1.6534,-1.6559,-1.6584,-1.6697,-1.7144,-1.7996,-1.8084,-1.8053,-1.8078,-1.8141,-1.8116,-1.8141,-1.8028,-1.8179,-1.8053,-1.7677,-1.7438,-1.7426,-1.7877,-1.8028,-1.8078,-1.8141,-1.8091,-1.8028,-1.8091,-1.8066,-1.8053,-1.8078,-1.8204,-1.8267,-1.853,-1.8694,-1.8832,-1.8819,-1.853,-1.8819,-1.9058,-1.9058,-1.9133,-1.9346,-1.9359,-1.9158,-1.8932,-1.8719,-1.8304,-1.779,-1.7601,-1.7727,-1.7601,-1.7488,-2.8814,-2.7754,-2.5605,-2.5253,-2.5821,-2.3647,-2.1515,-1.98,-2.0212,-2.0662,-2.0946,-2.0617,-2.0288,-2.0049,-2.0049,-2.0064,-2.0019,-1.9582,-1.9043,-1.8458,-1.8171,-1.7626,-1.6837,-1.6795,-1.6723,-1.6522,-1.6534,-1.6534,-1.6534,-1.6534,-1.6534,-1.6534,-1.6534,-1.6534,-1.6534,-1.6534,-1.6534,-1.6534,-1.6534,-1.6534,-1.6534,-1.6534,-1.6534,-1.6534,-1.6534,-1.6534,-1.6534,-1.6534,-1.6534,-1.6534,-1.6534,-1.6534,-1.6534,-1.6534,-1.6534,-1.6534,-1.6534,-1.6534,-1.6534,-1.6534,-1.6534,-1.6534,-1.6534,-1.6534,-1.6534,-1.6534,-1.6534,-1.6534,-1.6534,-1.6785,-1.6929,-1.7124,-1.7124,-1.7124,-1.7137,-1.7174,-1.7124,-1.7124,-1.7124,-1.7099,-1.6923,-1.6835,-1.6898,-1.7011,-1.7124,-1.7112,-1.7124,-1.7162,-1.7137,-1.7137,-1.72,-1.7137,-1.7124,-1.7124,-1.708,-1.784,-1.8292,-1.8367,-1.8355,-1.8304,-1.8468,-1.8505,-1.8505,-1.8518,-1.8807,-1.8844,-1.8543,-1.8154,-1.7953,-1.7752,-1.7237,-1.7087,-1.7087,-1.6928,-1.686,-2.6974,-2.6198,-2.4152,-2.3606,-2.3887,-2.1633,-2.0272,-1.9739,-1.9708,-1.9944,-2.0228,-1.9884,-1.9705,-1.9705,-1.9705,-1.9603,-1.9406,-1.9258,-1.8688,-1.7867,-1.7666,-1.7188,-1.6595,-1.6534,-1.6534,-1.6534,-1.6534,-1.6534,-1.6534,-1.6534,-1.6534,-1.6534,-1.6534,-1.6534,-1.6534,-1.6534,-1.6534,-1.6534,-1.6534,-1.6534,-1.6534,-1.6534,-1.6534,-1.6534,-1.6534,-1.6534,-1.6534,-1.6534,-1.6534,-1.6534,-1.6534,-1.6534,-1.6534,-1.6534,-1.6534,-1.6534,-1.6534,-1.6534,-1.6534,-1.6534,-1.6534,-1.6534,-1.6534,-1.6534,-1.6534,-1.6534,-1.6534,-1.6534,-1.6534,-1.6534,-1.6534,-1.6547,-1.6534,-1.6534,-1.6534,-1.6534,-1.6534,-1.6547,-1.6559,-1.6597,-1.6584,-1.6547,-1.6534,-1.6547,-1.6559,-1.6534,-1.6534,-1.6534,-1.6534,-1.6534,-1.6534,-1.6534,-1.6597,-1.6635,-1.6685,-1.72,-1.7689,-1.7802,-1.7689,-1.7752,-1.7915,-1.794,-1.7953,-1.7965,-1.8016,-1.8053,-1.7852,-1.7438,-1.7192,-1.708,-1.6892,-1.666,-1.6511,-1.6268,-1.6149,-2.3819,-2.3604,-2.1992,-2.1615,-2.1744,-2.043,-1.9735,-1.9713,-1.972,-1.9735,-1.9809,-1.9705,-1.9705,-1.969,-1.9654,-1.9369,-1.8893,-1.8419,-1.7894,-1.7353,-1.6921,-1.6637,-1.6522,-1.6534,-1.6534,-1.6534,-1.6534,-1.6534,-1.6534,-1.6534,-1.6534,-1.6534,-1.6534,-1.6534,-1.6534,-1.6534,-1.6534,-1.6534,-1.6534,-1.6534,-1.6534,-1.6534,-1.6534,-1.6534,-1.6534,-1.6534,-1.6534,-1.6534,-1.6534,-1.6534,-1.6534,-1.6534,-1.6534,-1.6534,-1.6534,-1.6534,-1.6534,-1.6534,-1.6534,-1.6534,-1.6534,-1.6534,-1.6534,-1.6534,-1.6534,-1.6534,-1.6534,-1.6534,-1.6534,-1.6534,-1.6534,-1.6534,-1.6534,-1.6534,-1.6534,-1.6534,-1.6534,-1.6534,-1.6534,-1.6534,-1.6534,-1.6534,-1.6534,-1.6534,-1.6534,-1.6534,-1.6534,-1.6534,-1.6534,-1.6534,-1.6534,-1.6534,-1.6534,-1.6534,-1.6534,-1.6584,-1.6923,-1.7162,-1.6961,-1.6911,-1.725,-1.7375,-1.7375,-1.7355,-1.7309,-1.7347,-1.7045,-1.663,-1.6369,-1.6247,-1.6175,-1.612,-1.5832,-1.5555,-1.5377,-2.3298,-2.2849,-2.1632,-2.1122,-2.1089,-2.0127,-1.9705,-1.9705,-1.9705,-1.9705,-1.9705,-1.9705,-1.9705,-1.9617,-1.9317,-1.8855,-1.8341,-1.7787,-1.7463,-1.7271,-1.7105,-1.6837,-1.6565,-1.6534,-1.6534,-1.6534,-1.6534,-1.6534,-1.6534,-1.6534,-1.6534,-1.6534,-1.6534,-1.6534,-1.6534,-1.6534,-1.6534,-1.6534,-1.6534,-1.6534,-1.6534,-1.6479,-1.6479,-1.6534,-1.6534,-1.6534,-1.6534,-1.6534,-1.6534,-1.6479,-1.6534,-1.6534,-1.6534,-1.6534,-1.6534,-1.6534,-1.6534,-1.6534,-1.6534,-1.6534,-1.6534,-1.6534,-1.6534,-1.6534,-1.6534,-1.6534,-1.6534,-1.6534,-1.6534,-1.6534,-1.6534,-1.6534,-1.6534,-1.6534,-1.6534,-1.6534,-1.6534,-1.6534,-1.6534,-1.6534,-1.6534,-1.6534,-1.6534,-1.6534,-1.6534,-1.6534,-1.6534,-1.6534,-1.6534,-1.6534,-1.6534,-1.6534,-1.6534,-1.6534,-1.6534,-1.6534,-1.6697,-1.6873,-1.6685,-1.6547,-1.6798,-1.6923,-1.6898,-1.6835,-1.6806,-1.6602,-1.626,-1.5969,-1.5748,-1.5433,-1.5344,-1.5197,-1.5062,-1.488,-1.4732,-2.2474,-2.1971,-2.1086,-2.0856,-2.0889,-2.0066,-1.9705,-1.9705,-1.9705,-1.9705,-1.9705,-1.9705,-1.9705,-1.9617,-1.9132,-1.8612,-1.8052,-1.7544,-1.7188,-1.7034,-1.6993,-1.6795,-1.6522,-1.6534,-1.6534,-1.6534,-1.6534,-1.6534,-1.6534,-1.6534,-1.6534,-1.6534,-1.6534,-1.6534,-1.6534,-1.6534,-1.6534,-1.6534,-1.6534,-1.638,-1.6238,-1.6194,-1.6064,-1.5876,-1.5832,-1.5832,-1.5844,-1.5844,-1.6008,-1.6392,-1.6534,-1.6534,-1.6534,-1.6534,-1.6534,-1.6534,-1.6534,-1.6534,-1.6534,-1.6534,-1.6534,-1.6534,-1.6534,-1.6534,-1.6534,-1.6534,-1.6534,-1.6534,-1.6534,-1.6534,-1.6534,-1.6534,-1.6534,-1.6534,-1.6534,-1.6534,-1.6534,-1.6534,-1.6534,-1.6534,-1.6534,-1.6534,-1.6534,-1.6534,-1.6534,-1.6534,-1.6534,-1.6534,-1.6534,-1.6534,-1.6479,-1.6479,-1.6534,-1.6534,-1.6534,-1.6534,-1.6534,-1.6584,-1.6572,-1.6534,-1.6647,-1.6672,-1.666,-1.6616,-1.6585,-1.6333,-1.6029,-1.5683,-1.5377,-1.4971,-1.4571,-1.4606,-1.456,-1.4422,-1.4236,-2.1368,-2.0959,-2.0516,-2.0537,-2.074,-2.0015,-1.9705,-1.9705,-1.9705,-1.9705,-1.9705,-1.9705,-1.9654,-1.953,-1.9006,-1.8496,-1.8013,-1.7422,-1.6964,-1.668,-1.6565,-1.6522,-1.6534,-1.6534,-1.6534,-1.6534,-1.6534,-1.6534,-1.6534,-1.6534,-1.6534,-1.6534,-1.6534,-1.6534,-1.6479,-1.6479,-1.638,-1.638,-1.6337,-1.6008,-1.5588,-1.5543,-1.532,-1.4835,-1.4846,-1.4835,-1.4892,-1.4926,-1.5287,-1.6207,-1.625,-1.6207,-1.6337,-1.6436,-1.6392,-1.6392,-1.6479,-1.6534,-1.6534,-1.6534,-1.6534,-1.6534,-1.6534,-1.6534,-1.6534,-1.6534,-1.6534,-1.6534,-1.6534,-1.6534,-1.6534,-1.6534,-1.6534,-1.6479,-1.6392,-1.6349,-1.6392,-1.6306,-1.6163,-1.6238,-1.638,-1.6392,-1.625,-1.6293,-1.6392,-1.6392,-1.6436,-1.6534,-1.6479,-1.6423,-1.6423,-1.6337,-1.6207,-1.602,-1.5844,-1.6151,-1.6151,-1.625,-1.6293,-1.638,-1.625,-1.6207,-1.6076,-1.612,-1.6107,-1.592,-1.5543,-1.5005,-1.4687,-1.434,-1.4154,-1.4201,-1.4061,-1.3836,-1.3742,-2.1368,-2.0959,-2.0483,-2.0204,-2.0051,-1.9792,-1.9705,-1.9705,-1.9705,-1.9705,-1.9705,-1.9705,-1.9457,-1.908,-1.8574,-1.8013,-1.7504,-1.6993,-1.668,-1.6522,-1.6534,-1.6534,-1.6534,-1.6534,-1.6534,-1.6534,-1.6534,-1.6534,-1.6534,-1.6479,-1.6479,-1.6534,-1.6436,-1.6436,-1.6479,-1.6008,-1.5864,-1.5776,-1.5377,-1.5164,-1.5017,-1.4915,-1.488,-1.4744,-1.4663,-1.4663,-1.4709,-1.4709,-1.4789,-1.5107,-1.5152,-1.5164,-1.5344,-1.5688,-1.5952,-1.6008,-1.6281,-1.6534,-1.6534,-1.6534,-1.6534,-1.6534,-1.6534,-1.6534,-1.6534,-1.6534,-1.6534,-1.6534,-1.6534,-1.6534,-1.6534,-1.6534,-1.6534,-1.6466,-1.6107,-1.5732,-1.5421,-1.5164,-1.5164,-1.5197,-1.5242,-1.5242,-1.5377,-1.5599,-1.5832,-1.592,-1.6107,-1.6392,-1.6194,-1.6095,-1.5964,-1.5688,-1.5511,-1.5242,-1.5197,-1.5599,-1.5776,-1.5876,-1.5964,-1.6151,-1.5832,-1.5511,-1.5287,-1.5107,-1.5107,-1.496,-1.4422,-1.3826,-1.3658,-1.3752,-1.3525,-1.3478,-1.3344,-1.3162,-1.32,-2.1102,-2.0682,-2.0227,-1.9909,-1.9726,-1.9705,-1.9705,-1.9705,-1.9705,-1.9705,-1.9654,-1.9457,-1.9207,-1.8855,-1.8092,-1.7626,-1.7271,-1.6752,-1.6522,-1.6522,-1.6534,-1.6534,-1.6534,-1.6534,-1.6534,-1.6534,-1.6534,-1.6534,-1.6436,-1.6238,-1.6139,-1.6051,-1.5876,-1.5744,-1.5668,-1.541,-1.5231,-1.5141,-1.4835,-1.4617,-1.4329,-1.4329,-1.4154,-1.4025,-1.3941,-1.3931,-1.3931,-1.3931,-1.4154,-1.4606,-1.4926,-1.505,-1.5152,-1.5644,-1.5964,-1.5996,-1.6324,-1.6534,-1.6534,-1.6534,-1.6534,-1.6534,-1.6534,-1.6534,-1.6534,-1.6534,-1.6534,-1.6534,-1.6534,-1.6534,-1.6534,-1.6534,-1.625,-1.5744,-1.5421,-1.5276,-1.5389,-1.5332,-1.5107,-1.5005,-1.488,-1.4709,-1.4709,-1.5005,-1.5141,-1.5276,-1.5466,-1.5611,-1.5599,-1.5555,-1.5466,-1.5141,-1.5096,-1.5017,-1.4835,-1.505,-1.5276,-1.5377,-1.5332,-1.5555,-1.5454,-1.5005,-1.488,-1.4698,-1.4376,-1.4061,-1.3647,-1.3372,-1.342,-1.3382,-1.3017,-1.2891,-1.2891,-1.2891,-1.2891,-2.0813,-2.0416,-1.9929,-1.9747,-1.9717,-1.9711,-1.9705,-1.9705,-1.9705,-1.9705,-1.9617,-1.9207,-1.8968,-1.8765,-1.7933,-1.7353,-1.7146,-1.671,-1.6565,-1.6534,-1.6534,-1.6534,-1.6534,-1.6534,-1.6534,-1.6534,-1.6534,-1.6534,-1.6423,-1.5996,-1.5764,-1.582,-1.5332,-1.4926,-1.5062,-1.4835,-1.4652,-1.456,-1.4376,-1.4107,-1.3779,-1.3684,-1.3515,-1.321,-1.3113,-1.3113,-1.3075,-1.3065,-1.343,-1.4422,-1.505,-1.505,-1.5231,-1.5832,-1.6163,-1.6207,-1.6293,-1.6534,-1.6534,-1.6534,-1.6534,-1.6534,-1.6534,-1.6534,-1.6534,-1.6534,-1.6534,-1.6534,-1.6534,-1.6534,-1.6534,-1.6534,-1.612,-1.5478,-1.5017,-1.5377,-1.5964,-1.5776,-1.5353,-1.5365,-1.4824,-1.4571,-1.4525,-1.4571,-1.4617,-1.4641,-1.488,-1.5107,-1.5107,-1.5005,-1.4824,-1.4606,-1.4698,-1.488,-1.4698,-1.4514,-1.4698,-1.4835,-1.4652,-1.4744,-1.4949,-1.4732,-1.4698,-1.4468,-1.3873,-1.3647,-1.3552,-1.3372,-1.3286,-1.3152,-1.2929,-1.2891,-1.2891,-1.2891,-1.2891,-2.1413,-2.1259,-2.0516,-2.0001,-1.9721,-1.9692,-1.9705,-1.9705,-1.9705,-1.9705,-1.9654,-1.953,-1.902,-1.8249,-1.7907,-1.7504,-1.6795,-1.6565,-1.6534,-1.6534,-1.6534,-1.6534,-1.6534,-1.6534,-1.6534,-1.6534,-1.6534,-1.6534,-1.6436,-1.6281,-1.6281,-1.6151,-1.5744,-1.5832,-1.5287,-1.4698,-1.4422,-1.4014,-1.3563,-1.3344,-1.3248,-1.3152,-1.3065,-1.2891,-1.2891,-1.2891,-1.2891,-1.2891,-1.3017,-1.3238,-1.3467,-1.3695,-1.392,-1.4687,-1.5242,-1.5466,-1.612,-1.6534,-1.6479,-1.6436,-1.6479,-1.638,-1.6349,-1.6534,-1.6534,-1.6436,-1.6479,-1.6479,-1.6534,-1.6392,-1.6337,-1.6479,-1.6163,-1.5744,-1.5466,-1.5365,-1.5454,-1.4457,-1.3967,-1.4061,-1.3789,-1.3296,-1.3344,-1.3836,-1.392,-1.4003,-1.4283,-1.4606,-1.456,-1.4411,-1.4236,-1.4061,-1.4107,-1.4236,-1.3978,-1.3884,-1.4061,-1.4201,-1.4061,-1.3967,-1.419,-1.4143,-1.3978,-1.3658,-1.3248,-1.3152,-1.3286,-1.32,-1.3065,-1.2978,-1.2891,-1.2891,-1.2891,-1.2891,-1.2891,-2.129,-2.1213,-2.0382,-1.9889,-1.9743,-1.9722,-1.9705,-1.9705,-1.9705,-1.9705,-1.9566,-1.9207,-1.8612,-1.8066,-1.7598,-1.6951,-1.6637,-1.6534,-1.6534,-1.6534,-1.6534,-1.6534,-1.6534,-1.6534,-1.6534,-1.6534,-1.6534,-1.6534,-1.6392,-1.5976,-1.5567,-1.5567,-1.5209,-1.4479,-1.4376,-1.4061,-1.3705,-1.343,-1.3113,-1.2891,-1.2891,-1.2891,-1.2891,-1.2891,-1.2891,-1.2891,-1.2891,-1.2891,-1.2891,-1.2891,-1.2929,-1.3055,-1.3467,-1.4411,-1.505,-1.5276,-1.592,-1.6293,-1.6194,-1.6051,-1.592,-1.57,-1.5656,-1.5656,-1.5656,-1.5656,-1.5656,-1.5656,-1.5611,-1.5644,-1.5656,-1.5611,-1.5555,-1.5231,-1.496,-1.4767,-1.4595,-1.3873,-1.3409,-1.3589,-1.3324,-1.3065,-1.3065,-1.3334,-1.3334,-1.3467,-1.3478,-1.3752,-1.3836,-1.3695,-1.3695,-1.3552,-1.3552,-1.3467,-1.3248,-1.32,-1.343,-1.3525,-1.3478,-1.343,-1.3467,-1.3286,-1.3027,-1.2929,-1.2978,-1.2929,-1.3017,-1.2939,-1.2891,-1.2891,-1.2891,-1.2891,-1.2891,-1.2891,-1.2891,-2.1166,-2.1023,-2.0208,-1.9854,-1.9833,-1.9777,-1.9705,-1.9705,-1.9705,-1.9654,-1.9442,-1.8588,-1.8288,-1.7827,-1.7118,-1.6637,-1.6522,-1.6534,-1.6534,-1.6534,-1.6534,-1.6534,-1.6534,-1.6534,-1.6534,-1.6534,-1.6534,-1.6534,-1.625,-1.5567,-1.5478,-1.4926,-1.4014,-1.3884,-1.343,-1.3113,-1.3152,-1.3017,-1.2929,-1.2891,-1.2891,-1.2891,-1.2891,-1.2891,-1.2891,-1.2891,-1.2891,-1.2891,-1.2891,-1.2891,-1.2891,-1.32,-1.3779,-1.463,-1.5309,-1.5264,-1.5732,-1.5788,-1.5555,-1.5454,-1.5287,-1.4709,-1.4755,-1.4755,-1.4789,-1.5017,-1.5096,-1.5062,-1.5107,-1.5017,-1.4744,-1.4835,-1.4606,-1.4236,-1.3956,-1.3768,-1.3779,-1.3779,-1.36,-1.3684,-1.3286,-1.2929,-1.2891,-1.3017,-1.2978,-1.2891,-1.2891,-1.2929,-1.3055,-1.3142,-1.32,-1.3238,-1.3238,-1.3238,-1.3017,-1.2978,-1.3113,-1.3162,-1.3113,-1.3065,-1.3017,-1.2978,-1.2891,-1.2891,-1.2929,-1.2891,-1.2891,-1.2891,-1.2891,-1.2891,-1.2891,-1.2891,-1.2891,-1.2891,-1.2891,-2.184,-2.146,-2.0991,-2.0646,-2.0385,-1.9919,-1.9705,-1.9705,-1.9705,-1.9442,-1.9043,-1.8803,-1.8171,-1.7585,-1.7312,-1.6909,-1.6565,-1.6534,-1.6534,-1.6534,-1.6534,-1.6534,-1.6534,-1.6392,-1.6436,-1.6534,-1.6436,-1.6349,-1.6436,-1.6293,-1.5656,-1.5832,-1.5186,-1.4652,-1.4061,-1.392,-1.3238,-1.292,-1.2891,-1.2891,-1.2891,-1.2891,-1.2891,-1.2891,-1.2891,-1.2891,-1.2891,-1.2891,-1.2891,-1.2891,-1.2891,-1.2968,-1.319,-1.3826,-1.4133,-1.4365,-1.4824,-1.5107,-1.488,-1.4835,-1.4789,-1.4698,-1.4571,-1.4617,-1.4698,-1.5017,-1.496,-1.5141,-1.5141,-1.5141,-1.4744,-1.4525,-1.4617,-1.4376,-1.4003,-1.3732,-1.3637,-1.3467,-1.3334,-1.3552,-1.32,-1.2891,-1.2891,-1.2891,-1.2891,-1.2891,-1.2891,-1.2891,-1.2978,-1.3017,-1.3027,-1.2968,-1.2968,-1.2968,-1.2939,-1.2929,-1.2978,-1.3027,-1.2978,-1.2978,-1.2929,-1.2929,-1.2891,-1.2891,-1.2891,-1.2891,-1.2891,-1.2891,-1.2891,-1.2891,-1.2891,-1.2891,-1.2891,-1.2891,-1.2891,-2.1493,-2.1213,-2.0614,-2.0239,-2.0111,-1.9833,-1.9705,-1.9705,-1.9705,-1.9566,-1.9207,-1.8727,-1.821,-1.7666,-1.7076,-1.671,-1.6565,-1.6534,-1.6534,-1.6534,-1.6534,-1.6534,-1.6436,-1.6194,-1.6051,-1.592,-1.5744,-1.5788,-1.5908,-1.5276,-1.5287,-1.4915,-1.4514,-1.4071,-1.38,-1.343,-1.32,-1.2929,-1.2891,-1.2891,-1.2891,-1.2891,-1.2891,-1.2891,-1.2891,-1.2891,-1.2891,-1.2891,-1.2891,-1.2891,-1.2891,-1.2891,-1.3027,-1.3152,-1.3457,-1.3826,-1.4329,-1.4514,-1.4283,-1.4236,-1.4107,-1.38,-1.38,-1.3752,-1.3789,-1.3931,-1.4329,-1.4283,-1.419,-1.4107,-1.3752,-1.3836,-1.3752,-1.3705,-1.3515,-1.3372,-1.3286,-1.3065,-1.3152,-1.3334,-1.3113,-1.2891,-1.2891,-1.2891,-1.2891,-1.2891,-1.2891,-1.2891,-1.2891,-1.2891,-1.2891,-1.2881,-1.2929,-1.2929,-1.2891,-1.2891,-1.2891,-1.2891,-1.2774,-1.2774,-1.2774,-1.2676,-1.2783,-1.2891,-1.2891,-1.2774,-1.2881,-1.2881,-1.2881,-1.2832,-1.2783,-1.2725,-1.2832,-1.2891,-1.2735,-2.1181,-2.1055,-2.0277,-1.9909,-1.9818,-1.9726,-1.9705,-1.9675,-1.9405,-1.9376,-1.9339,-1.8433,-1.7867,-1.7558,-1.7005,-1.6534,-1.6534,-1.6534,-1.6534,-1.6534,-1.6479,-1.6479,-1.6194,-1.5908,-1.5543,-1.5332,-1.4869,-1.4824,-1.5186,-1.4687,-1.4143,-1.4097,-1.3467,-1.3065,-1.319,-1.3162,-1.2978,-1.2891,-1.2891,-1.2891,-1.2891,-1.2891,-1.2891,-1.2891,-1.2891,-1.2891,-1.2891,-1.2891,-1.2891,-1.2891,-1.2891,-1.2891,-1.2891,-1.2891,-1.3152,-1.3589,-1.405,-1.3967,-1.3779,-1.3637,-1.3515,-1.3372,-1.3007,-1.3017,-1.32,-1.342,-1.3286,-1.3055,-1.32,-1.32,-1.3152,-1.2978,-1.2978,-1.2978,-1.3027,-1.2929,-1.2978,-1.2929,-1.2929,-1.2978,-1.2891,-1.2881,-1.2832,-1.2891,-1.2891,-1.2891,-1.2891,-1.2891,-1.2891,-1.2891,-1.2891,-1.2891,-1.2881,-1.2881,-1.2891,-1.2891,-1.2891,-1.2891,-1.2618,-1.2403,-1.2403,-1.2363,-1.2461,-1.252,-1.2559,-1.2452,-1.2657,-1.2618,-1.2353,-1.2255,-1.2412,-1.2363,-1.2107,-1.2049,-1.1999,-2.1915,-2.1491,-2.1023,-2.0599,-2.0193,-1.9839,-1.9705,-1.9588,-1.8825,-1.8446,-1.8687,-1.7855,-1.7229,-1.6808,-1.6637,-1.6534,-1.6534,-1.6534,-1.6534,-1.6534,-1.6479,-1.6238,-1.5776,-1.5676,-1.5186,-1.4789,-1.419,-1.4283,-1.4514,-1.4468,-1.4468,-1.4247,-1.3779,-1.3637,-1.342,-1.3065,-1.2939,-1.2891,-1.2891,-1.2891,-1.2891,-1.2891,-1.2891,-1.2891,-1.2891,-1.2891,-1.2891,-1.2891,-1.2891,-1.2891,-1.2891,-1.2891,-1.2891,-1.2891,-1.2929,-1.3017,-1.3065,-1.3113,-1.3055,-1.3104,-1.3286,-1.3276,-1.3142,-1.3238,-1.3334,-1.3467,-1.3515,-1.3684,-1.3647,-1.3382,-1.2968,-1.2939,-1.2891,-1.2891,-1.2891,-1.2891,-1.2891,-1.2881,-1.2881,-1.2676,-1.2618,-1.2618,-1.2618,-1.2783,-1.2891,-1.2891,-1.2891,-1.2891,-1.2832,-1.2783,-1.2471,-1.2363,-1.2569,-1.2618,-1.2725,-1.2774,-1.2881,-1.2881,-1.2618,-1.2246,-1.2304,-1.2304,-1.1832,-1.1882,-1.203,-1.203,-1.1981,-1.1882,-1.1625,-1.1783,-1.2157,-1.1692,-1.1015,-1.1074,-1.1425,-2.1869,-2.1244,-2.0781,-2.0364,-1.9965,-1.9782,-1.9705,-1.9624,-1.9236,-1.8625,-1.8131,-1.7892,-1.7312,-1.6637,-1.6534,-1.6534,-1.6534,-1.6534,-1.6534,-1.6479,-1.6436,-1.6151,-1.5644,-1.5231,-1.4778,-1.419,-1.3647,-1.3382,-1.3658,-1.3705,-1.3716,-1.3705,-1.3467,-1.3238,-1.3382,-1.3017,-1.2929,-1.2891,-1.2891,-1.2891,-1.2891,-1.2891,-1.2891,-1.2891,-1.2891,-1.2891,-1.2891,-1.2891,-1.2891,-1.2891,-1.2891,-1.2891,-1.2891,-1.2891,-1.2929,-1.2929,-1.2929,-1.2929,-1.2929,-1.2891,-1.3104,-1.319,-1.3055,-1.3007,-1.3238,-1.3334,-1.3334,-1.3286,-1.3286,-1.3152,-1.2978,-1.2939,-1.2891,-1.2881,-1.2725,-1.2725,-1.2725,-1.2881,-1.2822,-1.2559,-1.2246,-1.2197,-1.2255,-1.2569,-1.2618,-1.2618,-1.2676,-1.2725,-1.2578,-1.2421,-1.2008,-1.1534,-1.1832,-1.2187,-1.2403,-1.251,-1.2774,-1.2832,-1.2725,-1.2461,-1.251,-1.2353,-1.1633,-1.1733,-1.2197,-1.2039,-1.1516,-1.1674,-1.194,-1.1999,-1.1999,-1.1484,-1.0973,-1.1266,-1.1475,-2.1781,-2.0991,-2.0616,-2.0296,-2.003,-1.9833,-1.9705,-1.969,-1.9354,-1.8705,-1.7967,-1.7678,-1.7188,-1.668,-1.6534,-1.6534,-1.6534,-1.6534,-1.6534,-1.6479,-1.6293,-1.5876,-1.532,-1.4744,-1.4143,-1.36,-1.32,-1.3027,-1.2978,-1.2978,-1.3027,-1.2891,-1.3017,-1.2978,-1.2929,-1.2929,-1.2891,-1.2891,-1.2891,-1.2891,-1.2891,-1.2891,-1.2891,-1.2891,-1.2891,-1.2891,-1.2891,-1.2891,-1.2891,-1.2891,-1.2891,-1.2891,-1.2891,-1.2891,-1.2891,-1.2891,-1.2891,-1.2891,-1.2891,-1.2929,-1.2968,-1.3065,-1.3065,-1.3142,-1.2929,-1.2891,-1.2939,-1.2968,-1.2978,-1.2978,-1.2881,-1.2774,-1.2559,-1.2452,-1.2353,-1.2412,-1.2412,-1.2304,-1.2147,-1.1792,-1.1525,-1.1375,-1.1584,-1.2147,-1.2353,-1.2304,-1.2412,-1.2461,-1.2314,-1.2008,-1.2008,-1.1584,-1.1891,-1.2246,-1.2304,-1.251,-1.2715,-1.2559,-1.2461,-1.2157,-1.1801,-1.1501,-1.0931,-1.1342,-1.1999,-1.1683,-1.1015,-1.1683,-1.2255,-1.1493,-1.0939,-1.1242,-1.1233,-1.1384,-1.1124,-2.1797,-2.0991,-2.0959,-2.0862,-2.0764,-2.005,-1.9705,-1.9588,-1.8674,-1.8221,-1.7851,-1.7146,-1.668,-1.6534,-1.6534,-1.6534,-1.6534,-1.6534,-1.6534,-1.6337,-1.5908,-1.541,-1.4869,-1.4283,-1.3647,-1.3113,-1.2929,-1.2929,-1.2891,-1.2891,-1.2891,-1.2891,-1.2891,-1.2891,-1.2891,-1.2891,-1.2891,-1.2891,-1.2891,-1.2891,-1.2891,-1.2891,-1.2891,-1.2891,-1.2891,-1.2891,-1.2891,-1.2832,-1.2774,-1.2774,-1.2627,-1.2725,-1.2666,-1.2725,-1.2725,-1.2881,-1.2891,-1.2891,-1.2891,-1.2929,-1.32,-1.3515,-1.36,-1.3334,-1.2968,-1.2891,-1.2891,-1.2891,-1.2891,-1.2891,-1.2715,-1.2393,-1.2286,-1.2246,-1.2197,-1.1891,-1.1783,-1.1525,-1.1316,-1.1015,-1.0813,-1.0669,-1.0517,-1.0981,-1.1534,-1.1534,-1.1534,-1.1642,-1.1742,-1.1642,-1.2058,-1.2107,-1.2304,-1.2461,-1.2471,-1.2461,-1.2039,-1.1683,-1.1534,-1.1032,-1.0474,-1.0226,-1.0525,-1.0431,-1.088,-1.0677,-1.0618,-1.1032,-1.0981,-1.0174,-0.9925,-1.0626,-1.0677,-1.0525,-1.0123,-2.1705,-2.1337,-2.0813,-2.0431,-2.0174,-1.9854,-1.9705,-1.9536,-1.8555,-1.7915,-1.7544,-1.6879,-1.6534,-1.6534,-1.6534,-1.6534,-1.6534,-1.6534,-1.6479,-1.6293,-1.5864,-1.5276,-1.4698,-1.4061,-1.3515,-1.3027,-1.2891,-1.2891,-1.2891,-1.2891,-1.2891,-1.2891,-1.2891,-1.2891,-1.2891,-1.2891,-1.2891,-1.2891,-1.2891,-1.2891,-1.2891,-1.2891,-1.2891,-1.2891,-1.2891,-1.2891,-1.2832,-1.2403,-1.2295,-1.2138,-1.19,-1.2039,-1.2295,-1.2295,-1.251,-1.2774,-1.2832,-1.2832,-1.2832,-1.2832,-1.3017,-1.3104,-1.3248,-1.3152,-1.2822,-1.2881,-1.2891,-1.2891,-1.2832,-1.2725,-1.2774,-1.2657,-1.2559,-1.2403,-1.2049,-1.1534,-1.1216,-1.0864,-1.061,-1.0312,-1.0115,-0.9961,-0.9814,-0.9718,-1.0269,-1.072,-1.072,-1.0771,-1.0973,-1.1124,-1.1443,-1.1551,-1.1642,-1.1543,-1.1543,-1.1375,-1.1166,-1.0914,-1.061,-1.0261,-0.9917,-1.0423,-1.0618,-1.0269,-0.9969,-1.0167,-1.0261,-1.0218,-1.0064,-0.9969,-1.0064,-1.0415,-1.0218,-0.9769,-0.9465,-2.1718,-2.1552,-2.0943,-2.0382,-1.9909,-1.9747,-1.9698,-1.9516,-1.8569,-1.7676,-1.7034,-1.665,-1.6534,-1.6534,-1.6534,-1.6337,-1.6238,-1.6194,-1.6051,-1.5732,-1.5231,-1.4824,-1.4365,-1.3826,-1.3248,-1.2978,-1.2891,-1.2891,-1.2891,-1.2891,-1.2891,-1.2891,-1.2891,-1.2891,-1.2891,-1.2891,-1.2891,-1.2891,-1.2891,-1.2891,-1.2891,-1.2666,-1.2559,-1.2461,-1.2314,-1.2157,-1.1999,-1.1733,-1.1575,-1.1475,-1.1425,-1.1416,-1.1715,-1.2021,-1.2295,-1.2461,-1.2559,-1.251,-1.2412,-1.2725,-1.2725,-1.2598,-1.255,-1.255,-1.2569,-1.2412,-1.2098,-1.2452,-1.2353,-1.2304,-1.2314,-1.1841,-1.1543,-1.1183,-1.0889,-1.0482,-1.0372,-1.0159,-0.9858,-0.9607,-0.9458,-0.9361,-0.9309,-0.9211,-0.9465,-0.9961,-1.0167,-1.0218,-1.032,-1.0415,-1.0568,-1.0626,-1.0525,-1.0372,-1.0218,-1.0364,-1.0517,-1.0312,-1.0064,-0.9909,-0.9858,-1.0261,-1.0218,-0.9666,-0.951,-0.9806,-0.9762,-0.9562,-0.9917,-1.0261,-1.021,-0.9961,-0.9718,-0.9368,-0.9465,-2.1974,-2.1628,-2.1521,-2.1007,-2.0177,-1.9874,-1.97,-1.9545,-1.8433,-1.7437,-1.6667,-1.6534,-1.6534,-1.6479,-1.6436,-1.6139,-1.5776,-1.5632,-1.541,-1.4915,-1.4503,-1.4003,-1.3732,-1.3382,-1.3075,-1.2929,-1.2774,-1.2715,-1.2783,-1.2569,-1.2627,-1.2676,-1.252,-1.2676,-1.2832,-1.2891,-1.2891,-1.2881,-1.2735,-1.2676,-1.252,-1.2089,-1.1873,-1.1724,-1.1575,-1.1475,-1.1225,-1.1166,-1.1015,-1.0813,-1.1015,-1.1166,-1.1416,-1.199,-1.2147,-1.1873,-1.1823,-1.1525,-1.1074,-1.2206,-1.2295,-1.1922,-1.1823,-1.1832,-1.1724,-1.1416,-1.1266,-1.1783,-1.1475,-1.1124,-1.0762,-1.0517,-1.0474,-1.0372,-1.0131,-0.9932,-0.9917,-0.9762,-0.9614,-0.9309,-0.9008,-0.8857,-0.8857,-0.8857,-0.8857,-0.9159,-0.951,-0.9658,-0.971,-0.9762,-0.9865,-0.9865,-0.9769,-0.9814,-0.9762,-0.9762,-0.9814,-0.9658,-0.951,-0.9354,-0.9197,-0.9256,-0.9159,-0.891,-0.9061,-0.9309,-0.9106,-0.8857,-0.9309,-0.971,-0.9458,-0.9211,-0.9061,-0.9001,-0.9093,-2.1615,-2.1165,-2.0878,-2.0431,-1.9914,-1.9782,-1.9713,-1.9398,-1.7932,-1.6833,-1.6557,-1.6534,-1.6534,-1.6436,-1.6107,-1.582,-1.5588,-1.5062,-1.4789,-1.4606,-1.4014,-1.3873,-1.36,-1.3238,-1.2939,-1.2774,-1.255,-1.2286,-1.2129,-1.2049,-1.1642,-1.1484,-1.1792,-1.1792,-1.1882,-1.1832,-1.1493,-1.1493,-1.1484,-1.1484,-1.1484,-1.1325,-1.1166,-1.1166,-1.1266,-1.1065,-1.0669,-1.0618,-1.0466,-1.0167,-1.0312,-1.0261,-1.0517,-1.104,-1.1074,-1.1015,-1.1116,-1.1065,-1.0864,-1.1325,-1.1375,-1.1166,-1.1157,-1.1216,-1.1065,-1.0956,-1.1015,-1.1015,-1.0864,-1.0669,-1.0712,-1.0661,-1.0618,-1.0669,-1.0474,-1.0174,-1.002,-0.9814,-0.9562,-0.9159,-0.8804,-0.8646,-0.8593,-0.8368,-0.8315,-0.8427,-0.8778,-0.8995,-0.9047,-0.9106,-0.9159,-0.9159,-0.9166,-0.9309,-0.9361,-0.9145,-0.9145,-0.904,-0.889,-0.8791,-0.8639,-0.8646,-0.8533,-0.8533,-0.8646,-0.8804,-0.8804,-0.8804,-0.8857,-0.8956,-0.9008,-0.9159,-0.9263,-0.9033,-0.8797,-2.1598,-2.1181,-2.0878,-2.0416,-1.9929,-1.9783,-1.9522,-1.8884,-1.7277,-1.6514,-1.6527,-1.6534,-1.6534,-1.638,-1.6095,-1.5511,-1.532,-1.4926,-1.4201,-1.4154,-1.3695,-1.3467,-1.3286,-1.3152,-1.2929,-1.2725,-1.2501,-1.2236,-1.2344,-1.1792,-1.1742,-1.1692,-1.1015,-1.1166,-1.1266,-1.1065,-1.0922,-1.0973,-1.1023,-1.1124,-1.1065,-1.0864,-1.0618,-1.072,-1.0661,-1.0458,-1.0218,-1.0072,-0.9969,-0.9517,-0.9361,-0.9309,-0.9718,-1.0064,-1.021,-1.0415,-1.021,-1.0115,-1.0064,-1.0064,-1.0072,-1.0064,-1.0466,-1.0914,-1.0914,-1.0712,-1.0661,-1.0669,-1.0415,-1.0218,-1.0167,-1.0167,-1.0159,-1.0115,-0.9953,-0.9607,-0.9183,-0.8928,-0.8718,-0.8368,-0.8156,-0.8156,-0.8156,-0.7937,-0.7717,-0.783,-0.7996,-0.8209,-0.8427,-0.8368,-0.8368,-0.8368,-0.8315,-0.8309,-0.8355,-0.8362,-0.8309,-0.8421,-0.848,-0.8533,-0.8586,-0.8699,-0.8427,-0.8215,-0.848,-0.8699,-0.8752,-0.8804,-0.8745,-0.885,-0.9008,-0.9211,-0.9465,-0.9131,-0.8639,-2.1986,-2.1628,-2.1568,-2.1007,-2.0277,-1.9841,-1.9112,-1.8017,-1.696,-1.6527,-1.6522,-1.6534,-1.6436,-1.6436,-1.6392,-1.5656,-1.4744,-1.4571,-1.3931,-1.3344,-1.3113,-1.3017,-1.3027,-1.2929,-1.2891,-1.2881,-1.2666,-1.2295,-1.2676,-1.176,-1.181,-1.1959,-1.0821,-1.0618,-1.0517,-1.0466,-1.0415,-1.0364,-1.0364,-1.0517,-1.061,-1.0269,-1.0064,-1.0064,-0.9917,-0.9465,-0.9263,-0.9218,-0.9113,-0.9113,-0.9309,-0.9562,-0.9917,-1.0372,-1.0167,-0.9814,-0.9211,-0.9113,-0.9061,-0.9113,-0.9211,-0.9517,-1.0167,-1.0914,-1.0906,-1.0261,-1.0064,-0.9961,-0.971,-0.9256,-0.8956,-0.8949,-0.8896,-0.8837,-0.8732,-0.8362,-0.7931,-0.7664,-0.745,-0.7182,-0.702,-0.6966,-0.7128,-0.702,-0.7337,-0.7503,-0.7616,-0.7563,-0.767,-0.7557,-0.7557,-0.7503,-0.7396,-0.7187,-0.7348,-0.7943,-0.8209,-0.848,-0.8586,-0.8699,-0.8699,-0.848,-0.8156,-0.8049,-0.8427,-0.848,-0.8156,-0.8209,-0.8427,-0.8527,-0.8415,-0.885,-0.8896,-0.8791,-0.8461,-2.1552,-2.115,-2.0797,-2.0348,-1.9914,-1.9742,-1.87,-1.701,-1.6587,-1.649,-1.6534,-1.6534,-1.6324,-1.5864,-1.5433,-1.4835,-1.4201,-1.3658,-1.3296,-1.2978,-1.2891,-1.2891,-1.2881,-1.2881,-1.2881,-1.2666,-1.2403,-1.1931,-1.1283,-1.0787,-1.0233,-0.9725,-0.9917,-0.9666,-0.9569,-0.9413,-0.9465,-0.9517,-0.9562,-0.9762,-0.9865,-0.9465,-0.9413,-0.9361,-0.9569,-0.9113,-0.891,-0.9211,-0.9166,-0.8962,-0.9008,-0.9113,-0.9113,-0.9263,-0.9218,-0.9166,-0.891,-0.8804,-0.8804,-0.8804,-0.891,-0.9263,-0.9865,-0.9666,-0.9666,-0.951,-0.9368,-0.9413,-0.9256,-0.8903,-0.8699,-0.8593,-0.848,-0.8374,-0.8156,-0.7616,-0.7187,-0.6912,-0.6696,-0.6421,-0.6209,-0.6209,-0.6317,-0.6691,-0.7015,-0.7235,-0.7235,-0.702,-0.702,-0.6961,-0.6691,-0.6691,-0.6961,-0.6907,-0.7616,-0.8209,-0.8427,-0.8586,-0.848,-0.8315,-0.8096,-0.783,-0.7723,-0.767,-0.7723,-0.7509,-0.7182,-0.7343,-0.7723,-0.7343,-0.7235,-0.7883,-0.8321,-0.8156,-0.799,-2.1368,-2.0959,-2.0516,-2.0065,-1.9671,-1.9257,-1.804,-1.6703,-1.6504,-1.6511,-1.6522,-1.6534,-1.6281,-1.6008,-1.5656,-1.5062,-1.4247,-1.3978,-1.3525,-1.2929,-1.2881,-1.2891,-1.2881,-1.2618,-1.2412,-1.2246,-1.1832,-1.1275,-1.0618,-1.0167,-0.971,-0.9814,-0.9413,-0.9211,-0.9211,-0.9159,-0.891,-0.8857,-0.891,-0.8962,-0.9008,-0.891,-0.8956,-0.9106,-0.9465,-0.9054,-0.885,-0.9256,-0.9106,-0.8857,-0.8804,-0.8593,-0.8427,-0.8156,-0.7937,-0.7883,-0.7836,-0.7996,-0.8215,-0.8315,-0.8738,-0.9204,-0.9406,-0.9263,-0.9211,-0.9263,-0.9316,-0.9361,-0.9061,-0.8752,-0.8593,-0.848,-0.8321,-0.8215,-0.7616,-0.702,-0.6696,-0.6367,-0.6095,-0.5769,-0.5664,-0.5664,-0.5878,-0.6308,-0.6362,-0.6095,-0.5878,-0.5823,-0.6095,-0.6529,-0.6095,-0.5769,-0.6357,-0.6789,-0.7498,-0.783,-0.7551,-0.7498,-0.7503,-0.7343,-0.7289,-0.7235,-0.7074,-0.6912,-0.675,-0.6588,-0.6529,-0.6642,-0.6804,-0.6534,-0.6426,-0.6972,-0.7402,-0.7402,-0.7289,-2.1368,-2.0926,-2.0449,-2.0025,-1.9549,-1.8627,-1.7558,-1.6571,-1.6524,-1.6522,-1.6534,-1.6534,-1.638,-1.5976,-1.58,-1.5197,-1.4422,-1.3978,-1.3525,-1.2881,-1.2666,-1.2666,-1.2461,-1.2107,-1.1792,-1.1516,-1.1208,-1.0864,-1.0712,-1.0218,-0.9969,-1.0559,-0.9865,-0.9465,-0.9309,-0.9008,-0.8804,-0.8752,-0.8699,-0.8745,-0.9211,-0.9211,-0.9008,-0.9249,-0.9047,-0.8646,-0.854,-0.8586,-0.8639,-0.8586,-0.848,-0.8103,-0.783,-0.7402,-0.7074,-0.7182,-0.7456,-0.7676,-0.8049,-0.8156,-0.8374,-0.8639,-0.8745,-0.8798,-0.885,-0.9054,-0.9211,-0.9211,-0.8962,-0.8804,-0.8699,-0.8103,-0.7777,-0.745,-0.6907,-0.6367,-0.5882,-0.5605,-0.5386,-0.5171,-0.5062,-0.5062,-0.5117,-0.555,-0.5923,-0.5167,-0.5226,-0.5277,-0.5386,-0.6041,-0.5769,-0.5281,-0.6036,-0.6578,-0.6362,-0.6524,-0.6249,-0.6195,-0.6475,-0.675,-0.6912,-0.675,-0.648,-0.6154,-0.5828,-0.6095,-0.615,-0.6046,-0.5996,-0.5991,-0.5996,-0.6213,-0.6376,-0.6317,-0.6701,-2.1368,-2.0926,-2.0174,-1.9797,-1.9565,-1.8537,-1.7477,-1.6562,-1.6527,-1.6534,-1.6534,-1.6436,-1.602,-1.5433,-1.5377,-1.4687,-1.3742,-1.3695,-1.321,-1.2813,-1.2501,-1.2295,-1.1981,-1.1534,-1.1124,-1.1015,-1.0813,-1.0415,-1.0064,-0.9666,-0.9316,-0.9309,-0.9054,-0.9054,-0.9001,-0.8699,-0.8586,-0.848,-0.8209,-0.8315,-0.8738,-0.885,-0.8745,-0.8408,-0.7937,-0.7664,-0.7503,-0.7241,-0.7182,-0.7128,-0.7128,-0.7289,-0.767,-0.745,-0.7723,-0.8103,-0.7777,-0.783,-0.7937,-0.799,-0.8209,-0.8262,-0.8368,-0.848,-0.8646,-0.8903,-0.9008,-0.8956,-0.891,-0.8804,-0.848,-0.7777,-0.7235,-0.6745,-0.6253,-0.5714,-0.5175,-0.4956,-0.4736,-0.4625,-0.4519,-0.4519,-0.4629,-0.4791,-0.5164,-0.5546,-0.6041,-0.6095,-0.566,-0.5878,-0.5778,-0.5504,-0.6046,-0.6372,-0.5882,-0.5614,-0.5555,-0.5769,-0.6213,-0.6431,-0.6485,-0.6105,-0.5723,-0.523,-0.4956,-0.5285,-0.5344,-0.5018,-0.4967,-0.5007,-0.5293,-0.5348,-0.5069,-0.4956,-0.5668,-2.1213,-2.0862,-1.9808,-1.9491,-1.9505,-1.8571,-1.75,-1.662,-1.6534,-1.6534,-1.6534,-1.6436,-1.5976,-1.5152,-1.5096,-1.4376,-1.342,-1.3334,-1.32,-1.2861,-1.2452,-1.2187,-1.1683,-1.1065,-1.0669,-1.0466,-1.0012,-0.9614,-0.9309,-0.9106,-0.8857,-0.8699,-0.8533,-0.8315,-0.8268,-0.8049,-0.7883,-0.7777,-0.7396,-0.7503,-0.7883,-0.7777,-0.767,-0.7235,-0.7128,-0.6853,-0.6804,-0.6588,-0.6588,-0.6421,-0.6362,-0.6583,-0.6745,-0.6421,-0.6362,-0.6524,-0.6632,-0.7015,-0.7331,-0.7551,-0.7658,-0.7664,-0.7557,-0.7509,-0.7509,-0.7717,-0.8037,-0.8043,-0.8203,-0.8156,-0.767,-0.702,-0.6912,-0.6588,-0.5982,-0.5386,-0.5014,-0.4695,-0.4581,-0.4525,-0.4473,-0.448,-0.4536,-0.4591,-0.486,-0.486,-0.5572,-0.5563,-0.5399,-0.5105,-0.5113,-0.5344,-0.5664,-0.5723,-0.5238,-0.5132,-0.5246,-0.5517,-0.5668,-0.5517,-0.5352,-0.5187,-0.4912,-0.4522,-0.4359,-0.4591,-0.4595,-0.4425,-0.3799,-0.3564,-0.3965,-0.4428,-0.3978,-0.3522,-0.3892,-2.1023,-2.0715,-1.9564,-1.9152,-1.9344,-1.8507,-1.751,-1.662,-1.6534,-1.6423,-1.6337,-1.6324,-1.6039,-1.5764,-1.5454,-1.4641,-1.4014,-1.3467,-1.32,-1.2968,-1.2715,-1.2039,-1.1425,-1.0922,-1.0261,-0.971,-0.9256,-0.8949,-0.8633,-0.848,-0.8427,-0.8421,-0.8043,-0.7557,-0.7343,-0.7074,-0.6804,-0.6853,-0.6637,-0.6475,-0.6534,-0.6534,-0.6588,-0.6534,-0.6426,-0.6426,-0.6372,-0.6317,-0.6317,-0.6095,-0.571,-0.5928,-0.5982,-0.571,-0.555,-0.5605,-0.5823,-0.5928,-0.5923,-0.6249,-0.6416,-0.6529,-0.648,-0.648,-0.6534,-0.6701,-0.7025,-0.7128,-0.7289,-0.7343,-0.6804,-0.6539,-0.6485,-0.6268,-0.5664,-0.4831,-0.446,-0.42,-0.4196,-0.4193,-0.403,-0.4036,-0.4036,-0.4095,-0.4095,-0.4154,-0.4157,-0.4212,-0.4092,-0.3846,-0.3671,-0.4122,-0.4625,-0.4522,-0.4304,-0.3962,-0.3904,-0.4187,-0.4177,-0.42,-0.4154,-0.3968,-0.3907,-0.3974,-0.3922,-0.3522,-0.3978,-0.4206,-0.3413,-0.2284,-0.2291,-0.2629,-0.2569,-0.2119,-0.1836,-2.107,-2.0382,-1.9788,-1.913,-1.8442,-1.8163,-1.7475,-1.6607,-1.6479,-1.6238,-1.5864,-1.5776,-1.5676,-1.5576,-1.5062,-1.4376,-1.3732,-1.3324,-1.3104,-1.2881,-1.2246,-1.1625,-1.0906,-1.0151,-0.9607,-0.9099,-0.8633,-0.8427,-0.7996,-0.7889,-0.7616,-0.7182,-0.702,-0.6804,-0.6804,-0.6534,-0.6372,-0.6312,-0.5982,-0.571,-0.5928,-0.5982,-0.615,-0.5982,-0.5706,-0.5382,-0.5062,-0.4956,-0.4901,-0.4846,-0.4901,-0.5222,-0.5386,-0.5441,-0.5336,-0.5395,-0.5559,-0.5664,-0.5828,-0.5882,-0.6105,-0.6154,-0.6105,-0.5937,-0.6,-0.6064,-0.6164,-0.5941,-0.6154,-0.6475,-0.6209,-0.6009,-0.5905,-0.5572,-0.5077,-0.384,-0.3012,-0.3072,-0.3186,-0.2845,-0.2397,-0.2399,-0.2287,-0.2343,-0.2343,-0.2345,-0.2345,-0.2345,-0.2232,-0.223,-0.2117,-0.2508,-0.301,-0.3239,-0.2903,-0.2062,-0.1949,-0.2287,-0.2512,-0.223,-0.223,-0.2625,-0.2625,-0.2676,-0.2174,-0.1614,-0.2287,-0.1667,-0.2336,-0.1221,-0.0726,-0.0616,-0.0613,-0.0278,0.0332]},{"header":{"parameterUnit":"m.s-1","parameterCategory":1,"la1":31.0,"la2":29.5877,"lo1":-88.7671,"lo2":-86.6584,"dy":0.0162,"dx":0.0185,"nx":115,"ny":88,"refTime":"2023-10-07T12:00:00:Z","depth":0,"parameterNumber":3,"parameterNumberName":"V-component_of_WINDS"},"data":[0.0,0.0,0.0,0.0,0.0,0.0,0.0,0.0,0.0,0.0,0.0,0.0,0.0,0.0,0.0,0.0,0.0,0.0,0.0,0.0,0.0,0.0,0.0,0.0,0.0,0.0,0.0,0.0,0.0,0.0,0.0,0.0,0.0,0.0,0.0,0.0,0.0,0.0,0.0,0.0,0.0,0.0,0.0,0.0,0.0,0.0,0.0,0.0,0.0,0.0,0.0,0.0,0.0,0.0,0.0,0.0,0.0,0.0,0.0,0.0,0.0,0.0,0.0,0.0,0.0,0.0,0.0,0.0,0.0,0.0,0.0,0.0,0.0,0.0,0.0,0.0,0.0,0.0,0.0,0.0,0.0,0.0,0.0,0.0,0.0,0.0,0.0,0.0,0.0,0.0,0.0,0.0,0.0,0.0,0.0,0.0,0.0,0.0,0.0,0.0,0.0,0.0,0.0,0.0,0.0,0.0,0.0,0.0,0.0,0.0,0.0,0.0,0.0,0.0,0.0,0.0,0.0,0.0,0.0,0.0,0.0,0.0,0.0,0.0,0.0,0.0,0.0,0.0,0.0,0.0,0.0,0.0,0.0,0.0,0.0,0.0,0.0,0.0,0.0,0.0,0.0,0.0,0.0,0.0,0.0,0.0,0.0,0.0,0.0,0.0,0.0,0.0,0.0,0.0,0.0,0.0,0.0,0.0,0.0,0.0,0.0,0.0,0.0,0.0,0.0,0.0,0.0,0.0,0.0,0.0,0.0,0.0,0.0,0.0,0.0,0.0,0.0,0.0,0.0,0.0,0.0,0.0,0.0,0.0,0.0,0.0,0.0,0.0,0.0,0.0,0.0,0.0,0.0,0.0,0.0,0.0,0.0,0.0,0.0,0.0,0.0,0.0,0.0,0.0,0.0,0.0,0.0,0.0,0.0,0.0,0.0,0.0,0.0,0.0,0.0,0.0,0.0,0.0,0.0,0.0,0.0,0.0,0.0,0.0,0.0,0.0,0.0,0.0,0.0,0.0,0.0,0.0,0.0,0.0,0.0,0.0,0.0,0.0,0.0,0.0,0.0,0.0,0.0,0.0,0.0,0.0,0.0,0.0,0.0,0.0,0.0,0.0,0.0,0.0,0.0,0.0,0.0,0.0,0.0,0.0,0.0,0.0,0.0,0.0,0.0,0.0,0.0,0.0,0.0,0.0,0.0,0.0,0.0,0.0,0.0,0.0,0.0,0.0,0.0,0.0,0.0,0.0,0.0,0.0,0.0,0.0,0.0,0.0,0.0,0.0,0.0,0.0,0.0,0.0,0.0,0.0,0.0,0.0,0.0,0.0,0.0,0.0,0.0,0.0,0.0,0.0,0.0,0.0,0.0,0.0,0.0,0.0,0.0,0.0,0.0,0.0,0.0,0.0,0.0,0.0,0.0,0.0,0.0,0.0,0.0,0.0,0.0,0.0,0.0,0.0,0.0,0.0,0.0,0.0,0.0,0.0,0.0,0.0,0.0,0.0,0.0,0.0,0.0,0.0,0.0,0.0,0.0,0.0,0.0,0.0,0.0,0.0,0.0,0.0,0.0,0.0,0.0,0.0,0.0,0.0,0.0,0.0,0.0,0.0,0.0,0.0,0.0,0.0,0.0,0.0,0.0,0.0,0.0,0.0,0.0,0.0,0.0,0.0,0.0,0.0,0.0,0.0,0.0,0.0,0.0,0.0,0.0,0.0,0.0,0.0,0.0,0.0,0.0,0.0,0.0,0.0,0.0,0.0,0.0,0.0,0.0,0.0,0.0,0.0,0.0,0.0,0.0,0.0,0.0,0.0,0.0,0.0,0.0,0.0,0.0,0.0,0.0,0.0,0.0,0.0,0.0,0.0,0.0,0.0,0.0,0.0,0.0,0.0,0.0,0.0,0.0,0.0,0.0,0.0,0.0,0.0,0.0,0.0,0.0,0.0,0.0,0.0,0.0,0.0,0.0,0.0,0.0,0.0,0.0,0.0,0.0,0.0,0.0,0.0,0.0,0.0,0.0,0.0,0.0,0.0,0.0,0.0,0.0,0.0,0.0,0.0,0.0,0.0,0.0,0.0,0.0,0.0,0.0,0.0,0.0,0.0,0.0,0.0,0.0,0.0,0.0,0.0,0.0,0.0,0.0,0.0,0.0,0.0,0.0,0.0,0.0,0.0,0.0,0.0,0.0,0.0,0.0,0.0,0.0,0.0,0.0,0.0,0.0,0.0,0.0,0.0,0.0,0.0,0.0,0.0,0.0,0.0,0.0,0.0,0.0,0.0,0.0,0.0,0.0,0.0,0.0,0.0,0.0,0.0,0.0,0.0,0.0,0.0,0.0,0.0,0.0,0.0,0.0,0.0,0.0,0.0,0.0,0.0,0.0,0.0,0.0,0.0,0.0,0.0,0.0,0.0,0.0,0.0,0.0,0.0,0.0,0.0,0.0,0.0,0.0,0.0,0.0,0.0,0.0,0.0,0.0,0.0,0.0,0.0,0.0,0.0,0.0,0.0,0.0,0.0,0.0,0.0,0.0,0.0,0.0,0.0,0.0,0.0,0.0,0.0,0.0,0.0,0.0,0.0,0.0,0.0,0.0,0.0,0.0,0.0,0.0,0.0,0.0,0.0,0.0,0.0,0.0,0.0,0.0,0.0,0.0,0.0,0.0,0.0,0.0,0.0,0.0,0.0,0.0,0.0,0.0,0.0,0.0,0.0,0.0,0.0,0.0,0.0,0.0,0.0,0.0,0.0,0.0,0.0,0.0,0.0,0.0,0.0,0.0,0.0,0.0,0.0,0.0,0.0,0.0,0.0,0.0,0.0,0.0,0.0,0.0,0.0,0.0,0.0,0.0,0.0,0.0,0.0,0.0,0.0,0.0,0.0,0.0,0.0,0.0,0.0,0.0,0.0,0.0,0.0,0.0,0.0,0.0,0.0,0.0,0.0,0.0,0.0,0.0,0.0,0.0,0.0,0.0,0.0,0.0,0.0,0.0,0.0,0.0,0.0,0.0,0.0,0.0,0.0,0.0,0.0,0.0,0.0,0.0,0.0,0.0,0.0,0.0,0.0,0.0,0.0,0.0,0.0,0.0,0.0,0.0,0.0,0.0,0.0,0.0,0.0,0.0,0.0,0.0,0.0,0.0,0.0,0.0,0.0,0.0,0.0,0.0,0.0,0.0,0.0,0.0,0.0,0.0,0.0,0.0,0.0,0.0,0.0,0.0,0.0,0.0,0.0,0.0,0.0,0.0,0.0,0.0,0.0,0.0,0.0,0.0,0.0,0.0,0.0,0.0,0.0,0.0,0.0,0.0,0.0,0.0,0.0,0.0,0.0,0.0,0.0,0.0,0.0,0.0,0.0,0.0,0.0,0.0,0.0,0.0,0.0,0.0,0.0,0.0,0.0,0.0,0.0,0.0,0.0,0.0,0.0,0.0,0.0,0.0,0.0,0.0,0.0,0.0,0.0,0.0,0.0,0.0,0.0,0.0,0.0,0.0,0.0,0.0,0.0,0.0,0.0,0.0,0.0,0.0,0.0,0.0,0.0,0.0,0.0,0.0,0.0,0.0,0.0,0.0,0.0,0.0,0.0,0.0,0.0,0.0,0.0,0.0,0.0,0.0,0.0,0.0,0.0,0.0,0.0,0.0,0.0,0.0,0.0,0.0,0.0,0.0,0.0,0.0,0.0,0.0,0.0,0.0,0.0,0.0,0.0,0.0,0.0,0.0,0.0,0.0,0.0,0.0,0.0,0.0,0.0,0.0,0.0,0.0,0.0,0.0,0.0,0.0,0.0,0.0,0.0,0.0,0.0,0.0,0.0,0.0,0.0,0.0,0.0,0.0,0.0,0.0,0.0,0.0,0.0,0.0,0.0,0.0,0.0,0.0,0.0,0.0,0.0,0.0,0.0,0.0,0.0,0.0,0.0,0.0,0.0,0.0,0.0,0.0,0.0,0.0,0.0,0.0,0.0,0.0,0.0,0.0,0.0,0.0,0.0,0.0,0.0,0.0,0.0,0.0,0.0,0.0,0.0,0.0,0.0,0.0,0.0,0.0,0.0,0.0,0.0,0.0,0.0,0.0,0.0,0.0,0.0,0.0,0.0,0.0,0.0,0.0,0.0,0.0,0.0,0.0,0.0,0.0,0.0,0.0,0.0,0.0,0.0,0.0,0.0,0.0,0.0,0.0,0.0,0.0,0.0,0.0,0.0,0.0,0.0,0.0,0.0,0.0,0.0,0.0,0.0,0.0,0.0,0.0,0.0,0.0,0.0,-1.7259,0.0,0.0,0.0,0.0,0.0,0.0,0.0,0.0,0.0,0.0,0.0,0.0,0.0,0.0,0.0,0.0,0.0,0.0,0.0,0.0,0.0,0.0,0.0,0.0,0.0,0.0,0.0,0.0,0.0,0.0,0.0,0.0,0.0,0.0,0.0,0.0,0.0,0.0,0.0,0.0,0.0,0.0,0.0,0.0,0.0,0.0,0.0,0.0,0.0,0.0,0.0,0.0,0.0,0.0,0.0,0.0,0.0,0.0,0.0,0.0,0.0,0.0,0.0,0.0,0.0,0.0,0.0,0.0,0.0,0.0,0.0,0.0,0.0,0.0,0.0,0.0,0.0,0.0,0.0,0.0,0.0,0.0,0.0,0.0,0.0,0.0,0.0,0.0,0.0,0.0,0.0,0.0,0.0,0.0,0.0,0.0,0.0,0.0,0.0,0.0,0.0,0.0,0.0,0.0,0.0,0.0,0.0,0.0,0.0,0.0,-1.782,-1.7109,-1.7725,-1.7563,-1.6658,0.0,0.0,0.0,0.0,0.0,0.0,0.0,0.0,0.0,0.0,0.0,0.0,0.0,0.0,0.0,0.0,0.0,0.0,0.0,0.0,0.0,0.0,0.0,0.0,0.0,0.0,0.0,0.0,0.0,0.0,0.0,0.0,0.0,0.0,0.0,0.0,0.0,0.0,0.0,0.0,0.0,0.0,0.0,0.0,0.0,0.0,0.0,0.0,0.0,0.0,0.0,0.0,0.0,0.0,0.0,0.0,0.0,0.0,0.0,0.0,0.0,0.0,0.0,0.0,0.0,0.0,0.0,0.0,0.0,0.0,0.0,0.0,0.0,0.0,0.0,0.0,0.0,0.0,0.0,0.0,0.0,0.0,0.0,0.0,0.0,0.0,0.0,0.0,0.0,0.0,0.0,0.0,0.0,0.0,0.0,0.0,0.0,0.0,0.0,0.0,0.0,0.0,0.0,0.0,0.0,0.0,0.0,0.0,0.0,0.0,0.0,0.0,-1.8633,-1.8213,-1.6782,0.0,0.0,0.0,0.0,0.0,0.0,0.0,0.0,0.0,0.0,0.0,0.0,0.0,0.0,0.0,0.0,0.0,0.0,0.0,0.0,0.0,0.0,0.0,0.0,0.0,0.0,0.0,0.0,0.0,0.0,0.0,0.0,0.0,0.0,0.0,0.0,0.0,0.0,0.0,0.0,0.0,0.0,0.0,0.0,0.0,0.0,0.0,0.0,0.0,0.0,0.0,0.0,0.0,0.0,0.0,0.0,0.0,0.0,0.0,0.0,0.0,0.0,0.0,0.0,0.0,0.0,0.0,0.0,0.0,0.0,0.0,0.0,0.0,0.0,0.0,0.0,0.0,0.0,0.0,0.0,0.0,0.0,0.0,0.0,0.0,0.0,0.0,0.0,0.0,0.0,0.0,0.0,0.0,0.0,0.0,0.0,0.0,0.0,0.0,0.0,0.0,0.0,0.0,0.0,0.0,0.0,0.0,0.0,0.0,0.0,-1.7939,-2.0195,-1.9951,0.0,-1.8437,0.0,0.0,0.0,0.0,0.0,0.0,0.0,0.0,0.0,0.0,0.0,0.0,0.0,0.0,0.0,0.0,0.0,0.0,0.0,0.0,0.0,0.0,0.0,0.0,0.0,0.0,0.0,0.0,0.0,0.0,0.0,0.0,0.0,0.0,0.0,0.0,0.0,0.0,0.0,0.0,0.0,0.0,0.0,0.0,0.0,0.0,0.0,0.0,0.0,0.0,0.0,0.0,0.0,0.0,0.0,0.0,0.0,0.0,0.0,0.0,0.0,0.0,0.0,0.0,0.0,0.0,0.0,0.0,0.0,0.0,0.0,0.0,0.0,0.0,0.0,0.0,0.0,0.0,0.0,0.0,0.0,0.0,0.0,0.0,0.0,0.0,0.0,0.0,0.0,0.0,0.0,0.0,0.0,0.0,0.0,0.0,0.0,0.0,0.0,0.0,0.0,0.0,0.0,0.0,0.0,0.0,0.0,0.0,0.0,0.0,-1.8721,-2.0605,-1.9902,-1.9023,0.0,0.0,0.0,0.0,0.0,0.0,0.0,0.0,0.0,0.0,0.0,0.0,0.0,0.0,0.0,0.0,0.0,0.0,0.0,0.0,0.0,0.0,0.0,0.0,0.0,0.0,0.0,0.0,0.0,0.0,0.0,0.0,0.0,0.0,0.0,0.0,0.0,0.0,0.0,0.0,0.0,0.0,0.0,0.0,0.0,0.0,0.0,0.0,0.0,0.0,0.0,0.0,0.0,0.0,0.0,0.0,0.0,0.0,0.0,0.0,0.0,0.0,0.0,0.0,0.0,0.0,0.0,0.0,0.0,0.0,0.0,0.0,0.0,0.0,0.0,0.0,0.0,0.0,0.0,0.0,0.0,0.0,0.0,0.0,0.0,0.0,0.0,0.0,0.0,0.0,0.0,0.0,0.0,0.0,0.0,0.0,0.0,0.0,0.0,0.0,0.0,0.0,0.0,0.0,0.0,0.0,0.0,0.0,0.0,0.0,-1.8701,-1.9717,-2.1113,-2.0205,-1.9092,-1.7939,0.0,0.0,0.0,0.0,0.0,0.0,0.0,0.0,0.0,0.0,0.0,0.0,0.0,0.0,0.0,0.0,0.0,0.0,0.0,0.0,0.0,0.0,0.0,0.0,0.0,0.0,0.0,0.0,0.0,0.0,0.0,0.0,0.0,0.0,0.0,0.0,0.0,0.0,0.0,0.0,0.0,0.0,0.0,0.0,0.0,0.0,0.0,0.0,0.0,0.0,0.0,0.0,0.0,0.0,0.0,0.0,0.0,0.0,0.0,0.0,0.0,0.0,0.0,0.0,0.0,0.0,0.0,0.0,0.0,0.0,0.0,0.0,0.0,0.0,0.0,0.0,0.0,0.0,0.0,0.0,0.0,0.0,0.0,0.0,0.0,0.0,0.0,0.0,0.0,0.0,0.0,0.0,0.0,0.0,0.0,0.0,0.0,0.0,0.0,0.0,0.0,0.0,0.0,0.0,0.0,0.0,0.0,0.0,-2.1348,-2.043,-2.0869,-2.2765,-2.1387,-2.0098,0.0,0.0,0.0,0.0,0.0,0.0,0.0,0.0,0.0,0.0,0.0,0.0,0.0,0.0,0.0,0.0,0.0,0.0,0.0,0.0,0.0,0.0,0.0,0.0,0.0,0.0,0.0,0.0,0.0,0.0,0.0,0.0,0.0,0.0,0.0,0.0,0.0,0.0,0.0,0.0,0.0,0.0,0.0,0.0,0.0,0.0,0.0,0.0,0.0,0.0,0.0,0.0,0.0,0.0,0.0,0.0,0.0,0.0,0.0,0.0,0.0,0.0,0.0,0.0,0.0,0.0,0.0,0.0,0.0,0.0,0.0,0.0,0.0,0.0,0.0,0.0,0.0,0.0,0.0,0.0,0.0,0.0,0.0,0.0,0.0,0.0,0.0,0.0,0.0,0.0,0.0,0.0,0.0,0.0,0.0,0.0,0.0,0.0,0.0,0.0,0.0,0.0,0.0,0.0,0.0,0.0,0.0,0.0,0.0,-1.766,-1.8163,-1.9507,-2.1682,-1.9893,-1.9118,0.0,0.0,0.0,0.0,0.0,0.0,0.0,0.0,0.0,0.0,0.0,0.0,0.0,0.0,0.0,0.0,0.0,0.0,0.0,0.0,0.0,0.0,0.0,0.0,0.0,0.0,0.0,0.0,0.0,0.0,0.0,0.0,0.0,0.0,0.0,0.0,0.0,0.0,0.0,0.0,0.0,0.0,0.0,0.0,0.0,0.0,0.0,0.0,0.0,0.0,0.0,0.0,0.0,0.0,0.0,0.0,0.0,0.0,0.0,0.0,0.0,0.0,0.0,0.0,0.0,0.0,0.0,0.0,0.0,0.0,0.0,0.0,0.0,0.0,0.0,0.0,0.0,0.0,0.0,0.0,0.0,0.0,0.0,0.0,0.0,0.0,0.0,0.0,0.0,0.0,0.0,0.0,0.0,0.0,0.0,0.0,0.0,0.0,0.0,0.0,0.0,0.0,0.0,0.0,0.0,0.0,0.0,0.0,0.0,-1.7189,0.0,-2.0386,-2.1427,-1.979,-1.876,0.0,0.0,0.0,0.0,0.0,0.0,0.0,0.0,0.0,0.0,0.0,0.0,0.0,0.0,0.0,0.0,0.0,0.0,0.0,0.0,0.0,0.0,0.0,0.0,0.0,0.0,0.0,0.0,0.0,0.0,0.0,0.0,0.0,0.0,0.0,0.0,0.0,0.0,0.0,0.0,0.0,0.0,0.0,0.0,0.0,0.0,0.0,0.0,0.0,0.0,0.0,0.0,0.0,0.0,0.0,0.0,0.0,0.0,0.0,0.0,0.0,0.0,0.0,0.0,0.0,0.0,0.0,0.0,0.0,0.0,0.0,0.0,0.0,0.0,0.0,0.0,0.0,0.0,0.0,0.0,0.0,0.0,0.0,0.0,0.0,0.0,0.0,0.0,0.0,0.0,0.0,0.0,0.0,0.0,0.0,0.0,0.0,0.0,0.0,0.0,0.0,0.0,0.0,0.0,0.0,0.0,0.0,0.0,-1.718,-2.0805,-2.2891,-2.3297,-2.2464,-2.1021,-1.9282,0.0,0.0,0.0,0.0,0.0,0.0,0.0,0.0,0.0,0.0,0.0,0.0,0.0,0.0,0.0,0.0,0.0,0.0,0.0,0.0,0.0,0.0,0.0,0.0,0.0,0.0,0.0,0.0,0.0,0.0,0.0,0.0,0.0,0.0,0.0,0.0,0.0,0.0,0.0,0.0,0.0,0.0,0.0,0.0,0.0,0.0,0.0,0.0,0.0,0.0,0.0,0.0,0.0,0.0,0.0,0.0,0.0,0.0,0.0,0.0,0.0,0.0,0.0,0.0,0.0,0.0,0.0,0.0,0.0,0.0,0.0,0.0,0.0,0.0,0.0,0.0,0.0,0.0,0.0,0.0,0.0,0.0,0.0,0.0,0.0,0.0,0.0,0.0,0.0,0.0,0.0,0.0,0.0,0.0,0.0,0.0,0.0,0.0,0.0,0.0,0.0,0.0,0.0,0.0,0.0,0.0,0.0,0.0,0.0,-1.7618,-1.8221,-1.9374,-2.0934,-1.8477,-1.7893,0.0,0.0,0.0,0.0,0.0,0.0,0.0,0.0,0.0,0.0,0.0,0.0,0.0,0.0,0.0,0.0,0.0,0.0,0.0,0.0,0.0,0.0,0.0,0.0,0.0,0.0,0.0,0.0,0.0,0.0,0.0,0.0,0.0,0.0,0.0,0.0,0.0,0.0,0.0,0.0,0.0,0.0,0.0,0.0,0.0,0.0,0.0,0.0,0.0,0.0,0.0,0.0,0.0,0.0,0.0,0.0,0.0,0.0,0.0,0.0,0.0,0.0,0.0,0.0,0.0,0.0,0.0,0.0,0.0,0.0,0.0,0.0,0.0,0.0,0.0,0.0,0.0,0.0,0.0,0.0,0.0,0.0,0.0,0.0,0.0,0.0,0.0,0.0,0.0,0.0,0.0,0.0,0.0,0.0,0.0,0.0,0.0,0.0,0.0,0.0,0.0,0.0,0.0,0.0,0.0,0.0,0.0,0.0,0.0,-1.7848,-1.8956,-2.0277,-2.1695,-1.9215,-1.8488,-1.9895,0.0,0.0,0.0,0.0,0.0,0.0,0.0,0.0,0.0,0.0,0.0,0.0,0.0,0.0,0.0,0.0,0.0,0.0,0.0,0.0,0.0,0.0,0.0,0.0,0.0,0.0,0.0,0.0,0.0,0.0,0.0,0.0,0.0,0.0,0.0,0.0,0.0,0.0,0.0,0.0,0.0,0.0,0.0,0.0,0.0,0.0,0.0,0.0,0.0,0.0,0.0,0.0,0.0,0.0,0.0,0.0,0.0,0.0,0.0,0.0,0.0,0.0,0.0,0.0,0.0,0.0,0.0,0.0,0.0,0.0,0.0,0.0,0.0,0.0,0.0,0.0,0.0,0.0,0.0,0.0,0.0,0.0,0.0,0.0,0.0,0.0,0.0,0.0,0.0,0.0,0.0,0.0,0.0,0.0,0.0,0.0,0.0,0.0,0.0,0.0,0.0,0.0,0.0,0.0,0.0,0.0,0.0,0.0,-2.0848,-2.4078,-2.5071,-2.3793,-2.2417,-2.0644,0.0,0.0,0.0,0.0,0.0,0.0,0.0,0.0,0.0,0.0,0.0,0.0,0.0,0.0,0.0,0.0,0.0,0.0,0.0,0.0,0.0,0.0,0.0,0.0,0.0,0.0,0.0,0.0,0.0,0.0,0.0,0.0,0.0,0.0,0.0,0.0,0.0,0.0,0.0,0.0,0.0,0.0,0.0,0.0,0.0,0.0,0.0,0.0,0.0,0.0,0.0,0.0,0.0,0.0,0.0,0.0,0.0,0.0,0.0,0.0,0.0,0.0,0.0,0.0,0.0,0.0,0.0,0.0,0.0,0.0,0.0,0.0,0.0,0.0,0.0,0.0,0.0,0.0,0.0,0.0,0.0,0.0,0.0,0.0,0.0,0.0,0.0,0.0,0.0,0.0,0.0,0.0,0.0,0.0,0.0,0.0,0.0,0.0,0.0,0.0,0.0,0.0,0.0,0.0,0.0,0.0,0.0,0.0,0.0,-2.2974,-2.5063,-2.5631,-2.431,-2.182,-2.0613,0.0,0.0,0.0,0.0,0.0,0.0,0.0,0.0,0.0,0.0,0.0,0.0,0.0,0.0,0.0,0.0,0.0,0.0,0.0,0.0,0.0,0.0,0.0,0.0,0.0,0.0,0.0,0.0,0.0,0.0,0.0,0.0,0.0,0.0,0.0,0.0,0.0,0.0,0.0,0.0,0.0,0.0,0.0,0.0,0.0,0.0,0.0,0.0,0.0,0.0,0.0,0.0,0.0,0.0,0.0,0.0,0.0,0.0,0.0,0.0,0.0,0.0,0.0,0.0,0.0,0.0,0.0,0.0,0.0,0.0,0.0,0.0,0.0,0.0,0.0,0.0,0.0,0.0,0.0,0.0,0.0,0.0,0.0,0.0,0.0,0.0,0.0,0.0,0.0,0.0,0.0,0.0,0.0,0.0,0.0,0.0,0.0,0.0,0.0,0.0,0.0,0.0,0.0,0.0,0.0,0.0,0.0,0.0,-2.2344,-2.4033,-2.5752,-2.6328,-2.5581,-2.3523,-2.2157,0.0,0.0,0.0,0.0,0.0,0.0,0.0,0.0,0.0,0.0,0.0,0.0,0.0,0.0,0.0,0.0,0.0,0.0,0.0,0.0,0.0,0.0,0.0,0.0,0.0,0.0,0.0,0.0,0.0,0.0,0.0,0.0,0.0,0.0,0.0,0.0,0.0,0.0,0.0,0.0,0.0,0.0,0.0,0.0,0.0,0.0,0.0,0.0,0.0,0.0,0.0,0.0,0.0,0.0,0.0,0.0,0.0,0.0,0.0,0.0,0.0,0.0,0.0,0.0,0.0,0.0,0.0,0.0,0.0,0.0,0.0,0.0,0.0,0.0,0.0,0.0,0.0,0.0,0.0,0.0,0.0,0.0,0.0,0.0,0.0,0.0,0.0,0.0,0.0,0.0,0.0,0.0,0.0,0.0,0.0,0.0,0.0,0.0,0.0,0.0,0.0,0.0,0.0,0.0,0.0,0.0,0.0,0.0,-2.2715,-2.4394,-2.6025,-2.6924,-2.6982,-2.6103,-2.4268,0.0,0.0,0.0,0.0,0.0,0.0,0.0,0.0,0.0,0.0,0.0,0.0,0.0,0.0,0.0,0.0,0.0,0.0,0.0,0.0,0.0,0.0,0.0,0.0,0.0,0.0,0.0,0.0,0.0,0.0,0.0,0.0,0.0,0.0,0.0,0.0,0.0,0.0,0.0,0.0,0.0,0.0,0.0,0.0,0.0,0.0,0.0,0.0,0.0,0.0,0.0,0.0,0.0,0.0,0.0,0.0,0.0,0.0,0.0,0.0,0.0,0.0,0.0,0.0,0.0,0.0,0.0,0.0,0.0,0.0,0.0,0.0,0.0,0.0,0.0,0.0,0.0,0.0,0.0,0.0,0.0,0.0,0.0,0.0,0.0,0.0,0.0,0.0,0.0,0.0,0.0,0.0,0.0,0.0,0.0,0.0,0.0,0.0,0.0,0.0,0.0,0.0,0.0,0.0,0.0,0.0,0.0,0.0,-2.2715,-2.4375,-2.5459,-2.6328,-2.6992,-2.5508,-2.3926,0.0,0.0,0.0,0.0,0.0,0.0,0.0,0.0,0.0,0.0,0.0,0.0,0.0,0.0,0.0,0.0,0.0,0.0,0.0,0.0,0.0,0.0,0.0,0.0,0.0,0.0,0.0,0.0,0.0,0.0,0.0,0.0,0.0,0.0,0.0,0.0,0.0,0.0,0.0,0.0,0.0,0.0,0.0,0.0,0.0,0.0,0.0,0.0,-2.0625,0.0,0.0,0.0,0.0,0.0,0.0,0.0,0.0,0.0,0.0,0.0,0.0,0.0,0.0,0.0,0.0,0.0,0.0,0.0,0.0,0.0,0.0,0.0,0.0,0.0,0.0,0.0,0.0,0.0,0.0,0.0,0.0,0.0,0.0,0.0,0.0,0.0,0.0,0.0,0.0,0.0,0.0,0.0,0.0,0.0,0.0,0.0,0.0,0.0,0.0,0.0,0.0,0.0,0.0,0.0,0.0,0.0,0.0,0.0,-2.2812,-2.4092,-2.498,-2.5644,-2.6045,-2.501,-2.3818,0.0,0.0,0.0,0.0,0.0,0.0,0.0,0.0,0.0,0.0,0.0,0.0,0.0,0.0,0.0,0.0,0.0,0.0,0.0,0.0,0.0,0.0,0.0,0.0,0.0,0.0,0.0,0.0,0.0,0.0,0.0,0.0,0.0,0.0,0.0,0.0,0.0,0.0,0.0,0.0,0.0,0.0,0.0,0.0,0.0,0.0,0.0,0.0,0.0,0.0,0.0,0.0,0.0,0.0,0.0,0.0,0.0,0.0,0.0,0.0,0.0,0.0,0.0,0.0,0.0,0.0,0.0,0.0,0.0,0.0,0.0,0.0,0.0,0.0,0.0,0.0,0.0,0.0,0.0,0.0,0.0,0.0,0.0,0.0,0.0,0.0,0.0,0.0,0.0,0.0,0.0,0.0,0.0,0.0,0.0,0.0,0.0,0.0,0.0,0.0,0.0,0.0,0.0,0.0,0.0,0.0,0.0,-2.1797,-2.2793,-2.3769,-2.4502,-2.4902,-2.4961,-2.4541,-2.3781,-2.2512,0.0,0.0,0.0,0.0,0.0,0.0,0.0,0.0,0.0,0.0,0.0,0.0,0.0,0.0,0.0,0.0,0.0,0.0,0.0,0.0,0.0,0.0,0.0,0.0,0.0,0.0,0.0,0.0,0.0,0.0,0.0,0.0,0.0,0.0,0.0,0.0,0.0,0.0,-1.9007,-2.0469,0.0,0.0,0.0,0.0,0.0,0.0,0.0,0.0,-2.2021,0.0,0.0,0.0,0.0,0.0,0.0,0.0,0.0,0.0,0.0,0.0,0.0,0.0,0.0,0.0,0.0,0.0,0.0,0.0,0.0,0.0,0.0,0.0,0.0,0.0,0.0,0.0,0.0,0.0,0.0,0.0,0.0,0.0,0.0,0.0,0.0,0.0,0.0,0.0,0.0,0.0,0.0,0.0,0.0,0.0,0.0,0.0,0.0,0.0,0.0,0.0,0.0,0.0,0.0,0.0,0.0,-2.1621,-2.1523,-2.2197,-2.374,-2.3916,-2.416,-2.4492,-2.4111,-2.3464,-2.2521,0.0,0.0,0.0,0.0,0.0,0.0,0.0,0.0,0.0,0.0,0.0,0.0,0.0,0.0,0.0,0.0,0.0,0.0,0.0,0.0,0.0,0.0,0.0,0.0,0.0,0.0,0.0,0.0,0.0,0.0,0.0,0.0,0.0,0.0,0.0,0.0,0.0,0.0,0.0,-2.1973,-2.2852,0.0,0.0,0.0,0.0,0.0,0.0,0.0,0.0,-2.2031,0.0,0.0,0.0,0.0,0.0,0.0,0.0,0.0,0.0,0.0,0.0,0.0,0.0,0.0,0.0,0.0,0.0,0.0,0.0,0.0,0.0,0.0,0.0,0.0,0.0,0.0,0.0,0.0,0.0,0.0,0.0,0.0,0.0,0.0,0.0,0.0,0.0,0.0,0.0,0.0,0.0,0.0,0.0,0.0,0.0,0.0,0.0,0.0,0.0,0.0,0.0,0.0,0.0,0.0,0.0,-2.1094,-2.166,-2.2402,-2.3408,-2.3447,-2.3545,-2.374,-2.3541,-2.3217,0.0,0.0,0.0,0.0,0.0,0.0,0.0,0.0,0.0,0.0,0.0,0.0,0.0,0.0,0.0,0.0,0.0,0.0,0.0,0.0,0.0,0.0,0.0,0.0,0.0,0.0,0.0,0.0,0.0,0.0,0.0,0.0,0.0,0.0,0.0,0.0,0.0,0.0,0.0,0.0,-2.248,-2.3379,-2.4062,0.0,0.0,0.0,0.0,0.0,0.0,-2.2432,-2.2168,0.0,0.0,0.0,0.0,0.0,0.0,0.0,0.0,0.0,0.0,0.0,0.0,0.0,0.0,0.0,0.0,0.0,0.0,0.0,0.0,0.0,0.0,0.0,0.0,0.0,0.0,0.0,0.0,0.0,0.0,0.0,0.0,0.0,0.0,0.0,0.0,0.0,0.0,0.0,0.0,0.0,0.0,0.0,0.0,0.0,0.0,0.0,0.0,0.0,0.0,0.0,0.0,0.0,0.0,0.0,-2.0547,-2.168,-2.2539,-2.3105,-2.3144,-2.3212,-2.3454,-2.3359,-2.3313,0.0,0.0,0.0,0.0,0.0,0.0,0.0,0.0,0.0,0.0,0.0,0.0,0.0,0.0,0.0,0.0,0.0,0.0,0.0,0.0,0.0,0.0,0.0,0.0,0.0,0.0,0.0,0.0,0.0,0.0,0.0,0.0,0.0,0.0,0.0,0.0,0.0,0.0,0.0,0.0,0.0,-2.417,-2.4834,-2.4785,0.0,0.0,0.0,0.0,-2.2998,-2.3027,0.0,0.0,0.0,0.0,0.0,0.0,0.0,0.0,0.0,0.0,0.0,0.0,0.0,0.0,0.0,0.0,0.0,0.0,0.0,0.0,0.0,0.0,0.0,0.0,0.0,0.0,0.0,0.0,0.0,0.0,0.0,0.0,0.0,0.0,0.0,0.0,0.0,0.0,0.0,0.0,0.0,0.0,0.0,0.0,0.0,0.0,0.0,0.0,0.0,0.0,0.0,0.0,0.0,0.0,0.0,0.0,-2.0498,-2.1094,-2.1953,-2.3066,-2.3135,-2.3551,-2.4532,-2.4148,-2.4129,0.0,0.0,0.0,0.0,0.0,0.0,0.0,0.0,0.0,0.0,0.0,0.0,0.0,0.0,0.0,0.0,0.0,0.0,0.0,0.0,0.0,0.0,0.0,0.0,0.0,0.0,0.0,0.0,0.0,0.0,0.0,0.0,0.0,0.0,0.0,0.0,0.0,0.0,0.0,0.0,0.0,-2.6064,-2.4687,-2.5117,-2.5273,0.0,0.0,-2.3906,-2.4648,-2.4766,0.0,0.0,0.0,0.0,0.0,0.0,0.0,0.0,0.0,0.0,0.0,0.0,0.0,0.0,0.0,0.0,0.0,0.0,0.0,0.0,0.0,0.0,0.0,0.0,0.0,0.0,0.0,0.0,0.0,0.0,0.0,0.0,0.0,0.0,0.0,0.0,0.0,0.0,0.0,0.0,0.0,0.0,0.0,0.0,0.0,0.0,0.0,0.0,0.0,0.0,0.0,0.0,0.0,0.0,0.0,-1.8555,-2.0146,-2.0879,-2.1621,-2.2393,-2.2422,-2.2898,-2.3918,-2.3449,-2.3538,0.0,0.0,0.0,0.0,0.0,0.0,0.0,0.0,0.0,0.0,0.0,0.0,0.0,0.0,0.0,0.0,0.0,0.0,0.0,0.0,0.0,0.0,0.0,0.0,0.0,0.0,0.0,0.0,0.0,0.0,0.0,0.0,0.0,0.0,0.0,0.0,0.0,0.0,0.0,0.0,0.0,0.0,-2.5557,-2.5859,0.0,0.0,0.0,-2.4453,-2.5312,0.0,0.0,0.0,0.0,0.0,0.0,0.0,0.0,0.0,0.0,0.0,0.0,0.0,0.0,0.0,0.0,0.0,0.0,0.0,0.0,0.0,0.0,0.0,0.0,0.0,0.0,0.0,0.0,0.0,0.0,0.0,0.0,0.0,0.0,0.0,0.0,0.0,0.0,0.0,0.0,0.0,0.0,0.0,0.0,0.0,0.0,0.0,0.0,0.0,0.0,0.0,0.0,0.0,0.0,0.0,0.0,0.0,-1.9746,-2.0625,-2.1489,-2.2247,-2.2267,-2.2798,-2.4018,-2.3438,0.0,0.0,0.0,0.0,0.0,0.0,0.0,0.0,0.0,0.0,0.0,0.0,0.0,0.0,0.0,0.0,0.0,0.0,0.0,0.0,0.0,0.0,0.0,0.0,0.0,0.0,0.0,-2.0225,0.0,0.0,0.0,0.0,0.0,0.0,0.0,0.0,0.0,0.0,0.0,0.0,0.0,0.0,-2.5478,-2.6133,-2.6406,-2.6689,0.0,0.0,-2.5019,-2.5781,-2.543,-2.4639,0.0,0.0,0.0,0.0,0.0,0.0,0.0,0.0,0.0,0.0,0.0,0.0,0.0,0.0,0.0,0.0,0.0,0.0,0.0,0.0,0.0,0.0,0.0,0.0,0.0,0.0,0.0,0.0,0.0,0.0,0.0,0.0,0.0,0.0,0.0,0.0,0.0,0.0,0.0,0.0,0.0,0.0,0.0,0.0,0.0,0.0,0.0,0.0,0.0,0.0,0.0,0.0,0.0,0.0,0.0,-1.9307,-2.0166,-2.146,-2.313,-2.3161,-2.4208,-2.6159,-2.5213,-2.4689,0.0,0.0,0.0,0.0,0.0,0.0,0.0,0.0,0.0,0.0,0.0,0.0,0.0,0.0,0.0,0.0,0.0,0.0,0.0,0.0,0.0,0.0,0.0,0.0,0.0,0.0,0.0,0.0,0.0,0.0,0.0,0.0,0.0,0.0,0.0,0.0,0.0,0.0,0.0,0.0,0.0,-2.5713,-2.5771,-2.6465,-2.7119,0.0,0.0,-2.582,-2.6279,-2.6611,-2.6006,-2.3564,0.0,0.0,0.0,0.0,0.0,0.0,0.0,0.0,0.0,0.0,0.0,0.0,0.0,0.0,0.0,0.0,0.0,0.0,0.0,0.0,0.0,0.0,0.0,0.0,0.0,0.0,0.0,0.0,0.0,0.0,0.0,0.0,0.0,0.0,0.0,0.0,0.0,0.0,0.0,0.0,0.0,0.0,0.0,0.0,0.0,0.0,0.0,0.0,0.0,0.0,0.0,0.0,0.0,-1.7881,-1.8877,-2.0373,-2.1566,-2.2454,-2.3079,-2.4086,-2.5538,-2.4826,-2.4526,0.0,0.0,0.0,0.0,0.0,0.0,0.0,0.0,0.0,0.0,0.0,0.0,0.0,0.0,0.0,0.0,0.0,0.0,0.0,0.0,0.0,0.0,0.0,0.0,0.0,0.0,0.0,0.0,-2.1707,-2.2046,-2.1719,0.0,0.0,0.0,0.0,0.0,0.0,0.0,0.0,0.0,0.0,-2.5732,-2.5732,-2.6475,0.0,0.0,-2.6396,-2.5977,-2.667,-2.6006,-2.5078,-2.4092,-2.3774,0.0,0.0,0.0,0.0,0.0,0.0,0.0,0.0,0.0,0.0,0.0,0.0,0.0,0.0,0.0,0.0,0.0,0.0,0.0,0.0,0.0,0.0,0.0,0.0,0.0,0.0,0.0,0.0,0.0,0.0,0.0,0.0,0.0,0.0,0.0,0.0,0.0,0.0,0.0,0.0,0.0,0.0,0.0,0.0,0.0,0.0,0.0,0.0,0.0,0.0,0.0,0.0,-1.8177,-1.9441,-2.0818,-2.2013,-2.2914,-2.3588,-2.4409,-2.5346,-2.4776,-2.445,0.0,0.0,0.0,0.0,0.0,0.0,0.0,0.0,0.0,0.0,0.0,0.0,0.0,0.0,0.0,0.0,0.0,0.0,0.0,0.0,0.0,0.0,0.0,0.0,0.0,0.0,0.0,0.0,-2.2385,-2.2611,-2.1907,0.0,0.0,0.0,0.0,0.0,0.0,0.0,0.0,0.0,0.0,-2.5952,-2.5723,-2.626,-2.6631,-2.6631,-2.5898,-2.5596,-2.6318,-2.5873,-2.5155,-2.4636,0.0,0.0,0.0,0.0,0.0,0.0,0.0,0.0,0.0,0.0,0.0,0.0,0.0,0.0,0.0,0.0,0.0,0.0,0.0,0.0,0.0,0.0,0.0,0.0,0.0,0.0,0.0,0.0,0.0,0.0,0.0,0.0,0.0,0.0,0.0,0.0,0.0,0.0,0.0,0.0,0.0,0.0,0.0,0.0,0.0,0.0,0.0,0.0,0.0,0.0,0.0,0.0,0.0,-1.905,-2.1296,-2.1732,-2.2948,-2.4791,-2.4933,-2.5405,-2.6333,-2.541,-2.4582,-2.4017,0.0,0.0,0.0,0.0,0.0,0.0,0.0,0.0,0.0,0.0,0.0,0.0,0.0,0.0,0.0,0.0,0.0,0.0,0.0,0.0,0.0,0.0,0.0,0.0,0.0,0.0,-2.3791,-2.2962,-2.1933,0.0,0.0,0.0,0.0,0.0,0.0,0.0,0.0,0.0,0.0,-2.6004,-2.662,-2.5838,-2.5752,-2.5801,-2.5771,-2.5039,-2.4629,-2.5192,-2.6597,-2.6978,0.0,0.0,0.0,0.0,0.0,0.0,0.0,0.0,0.0,0.0,0.0,0.0,0.0,0.0,0.0,0.0,0.0,0.0,0.0,0.0,0.0,0.0,0.0,0.0,0.0,0.0,0.0,-2.0033,-1.9492,0.0,0.0,0.0,0.0,0.0,0.0,0.0,0.0,0.0,0.0,0.0,-2.3094,-2.4194,0.0,0.0,0.0,0.0,0.0,0.0,0.0,0.0,0.0,0.0,0.0,0.0,-1.9437,-2.0857,-2.1912,-2.2913,-2.3854,-2.4524,-2.5029,-2.536,-2.5021,-2.4381,-2.3452,0.0,0.0,0.0,0.0,0.0,0.0,0.0,0.0,0.0,0.0,0.0,0.0,0.0,0.0,0.0,0.0,0.0,0.0,0.0,0.0,0.0,0.0,0.0,0.0,0.0,-2.364,0.0,0.0,0.0,0.0,0.0,0.0,0.0,0.0,0.0,0.0,0.0,-2.5212,-2.5865,-2.6536,-2.6915,-2.7019,-2.6273,-2.6184,0.0,0.0,0.0,0.0,0.0,0.0,0.0,0.0,0.0,0.0,0.0,0.0,0.0,0.0,-3.165,-2.8888,-2.7645,-2.7067,-2.7243,0.0,0.0,0.0,0.0,0.0,0.0,0.0,0.0,0.0,0.0,0.0,0.0,0.0,0.0,0.0,0.0,-2.0205,0.0,0.0,0.0,0.0,0.0,0.0,0.0,0.0,-2.4865,-2.523,-2.5147,-2.6235,-2.6177,0.0,-2.5058,-2.4153,0.0,0.0,0.0,0.0,0.0,0.0,0.0,0.0,-2.0476,-2.1724,-2.2687,-2.3377,-2.3808,-2.4471,-2.4833,-2.4833,-2.4632,-2.4004,-2.2887,-2.2159,-2.1594,0.0,0.0,0.0,0.0,0.0,0.0,0.0,0.0,0.0,0.0,0.0,0.0,0.0,0.0,0.0,0.0,0.0,0.0,0.0,0.0,0.0,0.0,0.0,-2.369,0.0,0.0,0.0,0.0,0.0,0.0,0.0,0.0,0.0,-2.6324,-2.6606,-2.7094,-2.7805,-2.7819,-2.7855,-2.7787,0.0,0.0,0.0,0.0,0.0,0.0,0.0,-2.8867,-2.9091,-3.0081,-3.087,-3.1101,-3.2537,-3.337,-3.2629,0.0,0.0,-3.0495,-2.9202,-2.8499,-2.8674,-2.7959,-2.7494,-2.8047,-2.7871,-2.7657,0.0,0.0,0.0,0.0,0.0,0.0,0.0,0.0,-2.1563,-2.1295,0.0,-2.085,0.0,0.0,0.0,0.0,0.0,0.0,0.0,0.0,-2.8249,-2.8889,-2.7502,-2.8966,-2.8876,-2.7466,-2.826,-2.7898,-2.6377,-2.3466,0.0,0.0,0.0,0.0,0.0,0.0,-2.214,-2.3804,-2.3866,-2.4205,-2.4593,-2.4732,-2.4757,-2.4745,-2.423,-2.3427,-2.241,-2.2322,-2.1832,-2.0857,-2.0756,0.0,0.0,0.0,0.0,0.0,0.0,0.0,0.0,0.0,0.0,0.0,0.0,0.0,0.0,0.0,0.0,0.0,0.0,0.0,0.0,-2.3991,0.0,0.0,0.0,0.0,0.0,0.0,0.0,0.0,0.0,0.0,-2.8813,-2.8619,-2.8853,-3.0129,0.0,0.0,0.0,0.0,-2.7749,-2.7471,-2.7798,-2.8223,-2.8223,-2.9963,-3.097,-3.0013,0.0,0.0,-3.2403,-3.2667,-3.2692,-3.1612,-3.1876,-3.2541,-3.3483,-3.1851,-3.0683,-3.1085,-2.9917,-2.9189,-2.9616,-2.9655,-2.9618,-2.4131,0.0,0.0,0.0,0.0,-2.3226,-2.3564,-2.4183,-2.3702,-2.3147,-2.2588,-2.2148,0.0,0.0,0.0,0.0,0.0,0.0,-2.6529,-2.7841,-2.8081,-2.8277,-2.8447,-2.8925,-2.8725,-2.7866,-2.7776,-2.7507,-2.6979,-2.4946,-2.3392,-2.2262,0.0,0.0,0.0,0.0,-2.1898,-2.2774,-2.3188,-2.3075,-2.2447,-2.3213,-2.3553,-2.3615,-2.3088,-2.2824,-2.2827,-2.2523,-2.2347,-2.241,-2.1292,0.0,0.0,0.0,0.0,0.0,0.0,0.0,0.0,0.0,0.0,0.0,0.0,0.0,0.0,0.0,0.0,0.0,0.0,0.0,-2.4519,-2.3866,-2.3427,0.0,0.0,0.0,0.0,0.0,0.0,0.0,0.0,0.0,-2.9955,-3.0007,-2.9973,0.0,0.0,-2.914,-2.9209,-2.8124,-2.7866,-2.9443,0.0,0.0,0.0,-3.0655,-3.0807,-3.0951,-3.1947,-3.2579,-3.2265,-3.2353,-3.224,-3.1499,-3.1512,-3.1738,-3.1951,-3.1336,-3.0696,-3.0733,-3.0131,-2.9616,-2.9754,-3.0279,-3.0506,-2.5283,-2.4131,-2.3799,-2.3821,-2.4018,-2.3841,-2.4092,-2.4526,-2.4062,-2.3623,-2.3135,-2.3368,-2.3166,-2.2727,-2.3446,0.0,0.0,0.0,-2.741,-2.8537,-2.7975,-2.805,-2.8525,-2.8612,-2.831,-2.777,-2.7218,-2.6829,-2.659,-2.5184,-2.4029,-2.309,0.0,0.0,-2.2297,-2.1983,-2.187,-2.1995,-2.2309,-2.2159,-2.1518,-2.2146,-2.2585,-2.2786,-2.2485,-2.2573,-2.3113,-2.2811,-2.2585,-2.2472,-2.1531,-2.0941,0.0,0.0,0.0,0.0,0.0,0.0,0.0,0.0,0.0,0.0,0.0,-2.2209,-2.2008,0.0,0.0,0.0,-2.3464,-2.4318,-2.5046,-2.4519,0.0,0.0,0.0,0.0,0.0,0.0,0.0,-2.8461,-2.8699,-2.9051,-2.9842,-3.0143,-3.0331,-3.0419,-2.9739,-2.9469,-3.0052,0.0,-2.8986,-3.0436,-3.0454,-3.0609,-3.1292,-3.1135,-3.1035,-3.1336,-3.1662,-3.1876,-3.1888,-3.1888,-3.1612,-3.0972,-3.0758,-3.062,-3.0168,-3.0113,-3.0241,-3.0536,-3.0168,-2.9741,-2.9515,-2.9934,-3.0144,-2.6025,-2.5557,-2.4785,-2.4482,-2.439,-2.4026,-2.3866,-2.3784,-2.3486,-2.3271,-2.3349,-2.4478,-2.4564,-2.3977,-2.5547,0.0,0.0,-2.7779,-2.8172,-2.8172,-2.8072,-2.8021,-2.7971,-2.7921,-2.7595,-2.7005,-2.6502,-2.5963,-2.536,-2.4356,-2.359,-2.3075,-2.2952,-2.2749,-2.2272,-2.2196,-2.1933,-2.143,-2.1468,-2.1493,-2.1481,-2.1405,-2.1644,-2.2221,-2.2254,-2.248,-2.3022,-2.3059,-2.2581,-2.1612,-2.1499,-2.0995,-2.004,0.0,0.0,0.0,0.0,0.0,0.0,0.0,0.0,0.0,0.0,0.0,0.0,0.0,0.0,0.0,-2.3703,0.0,-2.5573,-2.5586,0.0,0.0,0.0,-2.6483,-2.6521,-2.7356,-2.7996,-2.8034,0.0,0.0,-2.8925,0.0,-3.0043,-3.106,-3.0382,-2.998,-3.0482,-3.044,-3.0557,-3.0507,-3.0934,-3.1248,-3.1148,-3.1085,-3.0997,-3.1022,-3.116,-3.1035,-3.1035,-3.1035,-3.067,-2.9741,-2.9578,-2.9264,-2.8185,-2.8633,-2.9405,-3.0035,-3.0035,-2.9669,-2.9263,-2.9346,-2.9533,-2.5127,-2.4746,-2.4853,-2.4974,-2.4919,-2.4852,-2.4609,-2.4285,-2.4645,-2.4887,-2.4887,-2.5708,-2.6408,-2.7069,-2.8346,-2.8934,-2.9046,-2.8762,-2.8737,-2.8674,-2.7871,-2.7256,-2.6841,-2.6402,-2.5699,-2.4808,-2.4644,-2.428,-2.3715,-2.3037,-2.2648,-2.2498,-2.2083,-2.182,-2.1669,-2.1267,-2.1004,-2.092,-2.1267,-2.1481,-2.1468,-2.0639,-2.069,-2.1656,-2.1735,-2.2031,-2.2535,-2.2561,-2.2444,-2.2172,-2.1339,-2.0942,-2.116,-2.0283,0.0,0.0,0.0,0.0,0.0,0.0,0.0,0.0,0.0,-2.2987,-2.1594,0.0,-2.4054,0.0,-2.4042,-2.5071,-2.6206,-2.5498,0.0,0.0,-2.5988,-2.5975,-2.6414,-2.6691,-2.7005,-2.7431,-2.772,-2.7984,-2.826,-2.8423,-2.8762,-2.9415,-2.9679,-2.9854,-2.9967,-2.9993,-2.9993,-2.998,-3.008,-3.0168,-3.0143,-2.9792,-2.9541,-2.9515,-2.9189,-2.8888,-2.89,-2.8888,-2.8662,-2.8034,-2.7883,-2.7607,-2.705,-2.705,-2.729,-2.7549,-2.9008,-3.0384,-3.0236,-3.0733,-3.096,-2.4639,-2.4443,-2.4678,-2.4721,-2.4486,-2.4486,-2.4398,-2.421,-2.4854,-2.5133,-2.5251,-2.6584,-2.7646,-2.848,-2.916,-2.9277,-2.9013,-2.8448,-2.8059,-2.7783,-2.6942,-2.6113,-2.536,-2.5046,-2.4305,-2.3263,-2.3251,-2.2962,-2.2397,-2.1845,-2.1594,-2.1568,-2.1016,-2.0627,-2.0413,-2.0577,-2.0539,-2.0275,-2.0577,-2.074,-2.0727,-2.0125,-2.0225,-2.1134,-2.1432,-2.1826,-2.239,-2.2684,-2.271,-2.2494,-2.189,-2.1586,-2.1659,-2.1027,-2.0805,0.0,0.0,0.0,0.0,0.0,0.0,0.0,0.0,0.0,0.0,0.0,-2.4393,0.0,-2.4808,-2.5624,-2.6728,-2.6276,-2.6163,-2.6766,-2.6766,-2.6741,-2.6816,-2.7042,-2.7306,-2.7607,-2.7645,-2.7758,-2.8072,-2.8109,-2.8222,-2.8524,-2.8837,-2.9126,-2.9365,-2.9402,-2.9327,-2.9089,-2.9038,-2.9038,-2.9038,-2.8775,-2.8486,-2.8235,-2.7946,-2.767,-2.7419,-2.7369,-2.7193,-2.6666,-2.679,-2.687,-2.6398,-2.6906,-2.7277,-2.7548,-2.8837,-2.968,-2.9073,-2.9582,-2.9848,-2.4307,-2.4258,-2.4307,-2.4059,-2.3677,-2.3689,-2.3663,-2.3797,-2.4596,-2.5093,-2.5427,-2.7255,-2.837,-2.875,-2.8825,-2.8561,-2.8084,-2.7457,-2.6917,-2.6496,-2.5649,-2.4782,-2.3891,-2.374,-2.3125,-2.2133,-2.2033,-2.1707,-2.1167,-2.0614,-2.0404,-2.0378,-1.9849,-1.9422,-1.9068,-1.9964,-2.0242,-1.971,-1.9761,-1.985,-1.9901,-1.9952,-2.0193,-2.0819,-2.1406,-2.1927,-2.2419,-2.3005,-2.3078,-2.2616,-2.2539,-2.2277,-2.1833,-2.1744,-2.1758,0.0,-2.1744,0.0,0.0,0.0,0.0,0.0,0.0,0.0,0.0,-2.3514,-2.4632,-2.5624,-2.5711,-2.6113,-2.7092,-2.718,-2.7168,-2.718,-2.7544,-2.762,-2.7243,-2.7494,-2.772,-2.777,-2.7733,-2.7682,-2.7607,-2.7733,-2.7783,-2.7846,-2.7871,-2.8047,-2.8499,-2.8725,-2.8637,-2.8097,-2.8059,-2.821,-2.8072,-2.7946,-2.7682,-2.7205,-2.6954,-2.6848,-2.638,-2.6304,-2.6101,-2.5612,-2.5895,-2.6126,-2.5686,-2.6668,-2.7513,-2.7343,-2.8086,-2.839,-2.7616,-2.7762,-2.7907,-2.3711,-2.3418,-2.376,-2.3672,-2.3174,-2.2908,-2.2938,-2.3339,-2.5305,-2.6887,-2.8086,-2.8126,-2.8139,-2.826,-2.826,-2.821,-2.8047,-2.7067,-2.6634,-2.6458,-2.4481,-2.3502,-2.3251,-2.2385,-2.1619,-2.0978,-2.0501,-2.0012,-1.9434,-1.8945,-1.8668,-1.8656,-1.8555,-1.8681,-1.8988,0.0,0.0,0.0,-1.9585,-2.0055,-2.0597,-2.0597,-2.0871,-2.1491,-2.2141,0.0,-2.2668,-2.2776,-2.2812,-2.2651,-2.2175,0.0,0.0,0.0,0.0,0.0,0.0,0.0,0.0,0.0,0.0,0.0,-2.3944,-2.367,-2.3085,-2.4393,-2.5573,-2.6226,-2.637,-2.6377,-2.6659,-2.6615,-2.6684,-2.6603,-2.6289,-2.6201,-2.6527,-2.5963,-2.5598,-2.6013,-2.5711,-2.546,-2.5561,-2.5787,-2.6264,-2.6703,-2.6836,-2.6816,-2.6904,-2.7657,-2.8021,-2.757,-2.767,-2.7871,-2.7507,-2.7055,-2.6578,-2.605,-2.5536,-2.5279,-2.5213,-2.5195,-2.5048,-2.4536,-2.4581,-2.4557,-2.4042,-2.4132,-2.4615,-2.4371,-2.5038,-2.6025,-2.7827,-2.8316,-2.8139,-2.3213,0.0,-2.3066,-2.314,0.0,-2.3018,-2.3268,-2.399,-2.5267,-2.6801,-2.8511,-2.8222,-2.7808,-2.7293,-2.7293,-2.6992,-2.6452,-2.5624,-2.5096,-2.4745,-2.3376,-2.2435,-2.1895,-2.1054,-2.0376,-1.9849,-1.9284,-1.9003,-1.8977,-1.8472,-1.8333,-1.8588,-1.8613,-1.8459,-1.8235,-1.8479,-1.8858,-1.9376,-1.9961,-2.0457,-2.0792,-2.1062,-2.1376,-2.1697,0.0,0.0,0.0,0.0,0.0,0.0,0.0,0.0,0.0,0.0,0.0,-2.3098,-2.2846,-2.2612,-2.2673,-2.3231,-2.3409,-2.3041,-2.3522,-2.3716,-2.3563,-2.433,-2.5046,-2.5598,-2.5649,-2.5649,-2.5649,-2.5649,-2.5649,-2.5636,-2.5398,-2.5347,-2.5536,-2.5172,-2.4921,-2.5134,-2.4996,-2.4833,-2.4833,-2.5384,-2.5664,-2.5719,-2.6008,-2.5959,-2.5517,-2.6163,-2.6666,-2.6163,-2.6276,-2.6377,-2.6126,-2.5862,-2.5322,-2.4582,-2.4155,-2.3885,-2.3702,-2.3673,-2.3662,-2.3796,-2.4107,-2.4254,-2.4067,-2.422,-2.4482,-2.4531,-2.4776,-2.5261,-2.6523,-2.6886,-2.6961,-2.2773,-2.2402,-2.2412,-2.2742,-2.3304,-2.3203,-2.3794,-2.4713,0.0,0.0,0.0,-2.7708,-2.7105,-2.6176,-2.6063,-2.5536,-2.4657,-2.3991,-2.3389,-2.2811,-2.2171,-2.133,-2.0363,-1.9786,-1.9296,-1.8869,-1.8329,-1.8321,-1.8831,-1.8311,-1.8292,-1.8808,-1.8853,-1.8438,-1.7756,-1.8179,-1.8876,-1.9753,-2.0329,-2.0757,-2.0945,-2.1449,-2.1801,-2.2025,-2.2575,-2.2875,-2.2889,-2.3334,-2.3595,-2.3595,-2.3595,-2.3595,-2.3595,-2.3595,-2.3595,-2.3595,-2.3595,-2.3377,-2.2889,-2.3378,-2.3243,-2.2197,-2.2964,-2.3612,-2.386,-2.4175,-2.4529,-2.4988,-2.5116,-2.5141,-2.5039,-2.5027,-2.4988,-2.4836,-2.4722,-2.4746,-2.4772,-2.4607,-2.4579,-2.4645,-2.4555,-2.4568,-2.4553,-2.4987,-2.5288,-2.4882,-2.5065,-2.5127,-2.4295,-2.4773,-2.5234,-2.487,-2.4999,-2.4874,-2.4596,-2.4708,-2.4251,-2.3513,-2.3249,-2.3013,-2.2682,-2.2578,-2.2839,-2.3417,-2.3977,-2.424,-2.4365,-2.464,-2.5209,-2.5241,-2.5241,-2.5106,-2.4657,-2.4881,-2.5241,-2.2353,-2.1973,-2.1973,-2.2471,-2.3252,-2.2961,-2.3324,-2.4319,-2.5195,-2.5973,-2.6666,-2.6163,-2.5624,-2.5034,-2.4556,-2.4255,-2.4042,-2.3025,-2.2246,0.0,-2.0639,-1.9836,-1.9246,-1.8694,-1.8392,-1.8279,-1.7765,-1.7792,-1.8201,-1.7742,-1.7674,-1.818,-1.8234,-1.8381,-1.8715,-1.9226,-1.9546,-1.9716,-1.9866,-2.0462,-2.1525,-2.1655,-2.2235,-2.3289,-2.3391,-2.3465,-2.3465,-2.3537,-2.3595,-2.3595,-2.3595,-2.3595,-2.3595,-2.3595,-2.3595,-2.3595,-2.3595,-2.3551,-2.348,-2.4104,-2.4329,-2.4134,-2.4262,-2.4094,-2.3507,-2.4834,-2.5774,-2.5824,-2.6161,-2.647,-2.595,-2.5711,-2.5437,-2.4993,-2.4552,-2.4444,-2.4859,-2.4188,-2.3824,-2.4213,-2.3893,-2.3636,-2.3689,-2.3777,-2.4013,-2.4115,-2.4106,-2.3649,-2.3657,-2.3878,-2.4142,-2.418,-2.4551,-2.4476,-2.3903,-2.399,-2.393,-2.3459,-2.3325,-2.328,-2.321,-2.3168,-2.3302,-2.3539,-2.3688,-2.3748,-2.3777,-2.3791,-2.3999,-2.4029,-2.4044,-2.3939,-2.3834,-2.3939,-2.3969,-2.1924,-2.1514,-2.1269,-2.1628,-2.2355,-2.2911,-2.3387,-2.3855,-2.4455,-2.5036,-2.5548,-2.5285,-2.4695,-2.3916,-2.3653,-2.3025,-2.2146,-2.133,-2.0665,-2.0112,-1.9309,-1.894,-1.896,-1.8441,-1.8306,-1.8539,-1.8041,-1.8056,-1.8466,-1.799,-1.8013,-1.8458,-1.8249,-1.8511,-1.9281,-1.9295,-1.942,-1.9705,-2.0079,-2.0585,-2.1134,-2.1513,-2.2017,-2.2562,-2.2562,-2.2562,-2.2577,-2.2892,-2.2936,-2.2577,-2.3236,-2.3445,-2.3131,-2.3415,-2.3595,-2.3595,-2.3595,-2.3595,-2.3595,-2.3245,-2.2863,-2.2476,-2.2417,-2.2303,-2.1925,-2.3571,-2.445,-2.4091,-2.4681,-2.4763,-2.416,-2.4354,-2.4463,-2.419,-2.3902,-2.3875,-2.4039,-2.3724,-2.3516,-2.3683,-2.3571,-2.3406,-2.3406,-2.373,-2.3857,-2.3804,-2.35,-2.3351,-2.342,-2.3527,-2.3681,-2.3725,-2.3923,-2.3889,-2.342,-2.354,-2.3491,-2.3059,-2.2963,-2.3013,-2.3036,-2.3094,-2.324,-2.3495,-2.3595,-2.3595,-2.3595,-2.3595,-2.3595,-2.3595,-2.3595,-2.3595,-2.3595,-2.3595,-2.3595,-2.1269,-2.0752,-2.042,-2.0712,-2.1428,-2.2845,-2.3347,-2.3251,-2.3395,-2.3682,-2.4029,-2.4205,-2.3703,-2.2799,-2.251,-2.1669,-2.0489,-1.9748,-1.9158,-1.8656,-1.8216,-1.8252,-1.8556,-1.8179,-1.824,-1.8632,-1.8287,-1.838,-1.8779,-1.8496,-1.8535,-1.8983,-1.8664,-1.8893,-1.9675,-1.9281,-1.9295,-1.972,-2.0213,-2.0557,-2.0722,-2.1216,-2.1545,-2.1695,-2.1695,-2.1695,-2.1724,-2.2188,-2.2259,-2.1784,-2.2652,-2.2951,-2.2503,-2.2906,-2.3176,-2.3176,-2.3161,-2.3176,-2.3088,-2.2261,-2.1468,-2.0961,-2.0903,-2.0918,-2.1035,-2.2186,-2.2984,-2.2787,-2.3428,-2.3548,-2.3255,-2.3446,-2.3602,-2.3476,-2.3448,-2.3505,-2.3434,-2.342,-2.3434,-2.3434,-2.3336,-2.3287,-2.3491,-2.368,-2.3609,-2.3314,-2.3348,-2.3434,-2.3434,-2.3434,-2.3434,-2.3412,-2.3445,-2.3386,-2.3303,-2.3406,-2.3308,-2.2873,-2.2879,-2.2965,-2.2989,-2.2949,-2.3068,-2.3508,-2.3595,-2.3595,-2.3595,-2.3595,-2.3595,-2.3595,-2.3595,-2.3595,-2.3595,-2.343,-2.346,-2.0225,-1.9521,-1.9453,-2.0149,-2.1229,-2.2546,-2.2802,-2.2331,-2.1926,-2.1763,-2.1895,-2.2322,-2.2196,-2.1543,-2.0614,-2.0075,-1.9748,-1.8807,-1.8066,-1.7634,-1.7488,-1.7472,-1.7563,-1.7431,-1.7666,-1.8163,-1.8173,-1.8458,-1.893,-1.8893,-1.908,-1.9566,-1.9566,-1.9581,-1.9675,-1.9639,-1.9654,-1.9705,-1.9735,-2.0094,-2.0677,-2.0767,-2.1081,-2.168,-2.168,-2.1695,-2.1605,-2.1754,-2.1754,-2.171,-2.1814,-2.1859,-2.1799,-2.1844,-2.1889,-2.1904,-2.1904,-2.1874,-2.1874,-2.1774,-2.1645,-2.1615,-2.1486,-2.1486,-2.1486,-2.1713,-2.234,-2.3157,-2.3984,-2.4204,-2.4368,-2.4309,-2.3968,-2.3467,-2.3408,-2.3584,-2.3496,-2.3584,-2.3599,-2.3584,-2.301,-2.2975,-2.3246,-2.2746,-2.229,-2.2718,-2.3035,-2.3319,-2.3363,-2.3363,-2.3363,-2.3466,-2.3484,-2.3259,-2.3005,-2.3244,-2.3422,-2.3437,-2.3481,-2.3451,-2.3392,-2.3421,-2.3551,-2.3508,-2.3595,-2.3595,-2.3595,-2.3595,-2.358,-2.3445,-2.346,-2.352,-2.3505,-2.3131,-2.3008,-1.9609,-1.9268,-1.9014,-1.9174,-1.9744,-2.0551,-2.0967,-2.0983,-2.0343,-2.02,-2.0413,-2.0075,-2.01,-2.0451,-1.9999,-1.9296,-1.8367,-1.7915,-1.7581,-1.7351,-1.7368,-1.7674,-1.8198,-1.8263,-1.8535,-1.9006,-1.9058,-1.9169,-1.9317,-1.9369,-1.9479,-1.969,-1.9705,-1.9705,-1.9705,-1.9705,-1.9705,-1.9705,-1.9705,-1.9824,-2.0064,-2.0094,-2.0228,-2.0468,-2.0513,-2.0498,-2.0557,-2.0887,-2.0932,-2.0602,-2.1246,-2.15,-2.1141,-2.1485,-2.1695,-2.1695,-2.1695,-2.1515,-2.1156,-2.1111,-2.0946,-2.0543,-2.0513,-2.0498,-2.0498,-2.0498,-2.0902,-2.1769,-2.2503,-2.275,-2.2438,-2.2651,-2.2757,-2.2517,-2.2473,-2.2488,-2.2473,-2.2473,-2.2458,-2.2443,-2.2248,-2.2173,-2.2383,-2.2028,-2.1818,-2.2096,-2.2349,-2.2532,-2.2488,-2.2473,-2.2473,-2.2461,-2.2461,-2.2716,-2.3039,-2.3421,-2.3537,-2.358,-2.3595,-2.3595,-2.3565,-2.3595,-2.3595,-2.358,-2.3595,-2.3595,-2.3595,-2.3565,-2.3535,-2.3236,-2.2652,-2.2473,-2.2458,-2.2278,-2.2278,-1.8823,-1.8854,-1.8832,-1.8726,-1.8553,-1.9068,-1.9405,-1.9544,-1.9005,-1.902,-1.9258,-1.8543,-1.8543,-1.907,-1.9145,-1.8468,-1.7509,-1.739,-1.7377,-1.7325,-1.7422,-1.804,-1.8841,-1.8893,-1.9169,-1.9639,-1.969,-1.969,-1.9705,-1.9705,-1.9705,-1.9705,-1.9705,-1.9705,-1.9705,-1.9705,-1.9705,-1.9705,-1.9705,-1.9705,-1.9705,-1.9705,-1.9705,-1.9705,-1.9705,-1.9705,-1.9705,-2.0168,-2.0213,-1.9735,-2.0632,-2.0932,-2.0498,-2.0887,-2.1141,-2.1141,-2.1141,-2.0946,-2.0468,-2.0423,-2.0213,-1.9765,-1.9705,-1.9705,-1.9705,-1.9705,-1.9899,-2.0393,-2.0872,-2.1035,-2.1123,-2.141,-2.1695,-2.1695,-2.1695,-2.1695,-2.1724,-2.1695,-2.1739,-2.1695,-2.1575,-2.1425,-2.1455,-2.155,-2.1729,-2.1729,-2.1739,-2.1695,-2.1695,-2.1739,-2.1739,-2.1695,-2.1724,-2.2084,-2.2892,-2.2981,-2.3116,-2.3281,-2.3206,-2.3026,-2.3281,-2.334,-2.334,-2.3176,-2.34,-2.3445,-2.3251,-2.3236,-2.3101,-2.2544,-2.1934,-2.1575,-2.1829,-2.1605,-2.1455,-1.765,-1.7957,-1.8952,-1.8964,-1.8621,-1.8828,-1.8753,-1.8429,-1.8257,-1.8242,-1.8304,-1.8179,-1.7928,-1.7551,-1.7589,-1.7463,-1.7377,-1.7316,-1.7295,-1.7394,-1.7827,-1.8341,-1.8893,-1.8893,-1.9169,-1.969,-1.9705,-1.9705,-1.9705,-1.9705,-1.9705,-1.9705,-1.9705,-1.9705,-1.9705,-1.9705,-1.9705,-1.9705,-1.9705,-1.9705,-1.9705,-1.9705,-1.9705,-1.9705,-1.9705,-1.9705,-1.9705,-1.9705,-1.972,-1.9705,-1.9846,-1.9809,-1.9765,-1.9809,-1.9869,-1.9854,-1.9839,-1.9824,-1.9794,-1.9794,-1.975,-1.9705,-1.9705,-1.9705,-1.9705,-1.9705,-1.9735,-1.9765,-1.9899,-2.0341,-2.1257,-2.1362,-2.1515,-2.1545,-2.162,-2.159,-2.162,-2.1485,-2.1665,-2.1515,-2.1066,-2.0782,-2.0767,-2.1306,-2.1485,-2.1545,-2.162,-2.156,-2.1485,-2.156,-2.153,-2.1515,-2.1545,-2.1695,-2.1769,-2.2084,-2.2278,-2.2443,-2.2428,-2.2084,-2.2428,-2.2712,-2.2712,-2.2802,-2.3056,-2.3071,-2.2832,-2.2562,-2.2308,-2.1814,-2.1201,-2.0976,-2.1126,-2.0976,-2.0842,-1.6888,-1.6759,-1.7434,-1.76,-1.7498,-1.7819,-1.8053,-1.8143,-1.7415,-1.7338,-1.7576,-1.73,-1.7024,-1.6823,-1.6823,-1.6835,-1.6798,-1.6799,-1.7146,-1.7747,-1.8013,-1.8574,-1.9369,-1.9406,-1.9493,-1.969,-1.9705,-1.9705,-1.9705,-1.9705,-1.9705,-1.9705,-1.9705,-1.9705,-1.9705,-1.9705,-1.9705,-1.9705,-1.9705,-1.9705,-1.9705,-1.9705,-1.9705,-1.9705,-1.9705,-1.9705,-1.9705,-1.9705,-1.9705,-1.9705,-1.9705,-1.9705,-1.9705,-1.9705,-1.9705,-1.9705,-1.9705,-1.9705,-1.9705,-1.9705,-1.9705,-1.9705,-1.9705,-1.9705,-1.9705,-1.9705,-1.9705,-1.9705,-1.9705,-2.0004,-2.0265,-2.0408,-2.0408,-2.0408,-2.0423,-2.0468,-2.0408,-2.0408,-2.0408,-2.0378,-2.0168,-2.0064,-2.0139,-2.0273,-2.0408,-2.0393,-2.0408,-2.0453,-2.0423,-2.0423,-2.0498,-2.0423,-2.0408,-2.0408,-2.0445,-2.1261,-2.1799,-2.1889,-2.1874,-2.1814,-2.2009,-2.2054,-2.2054,-2.2069,-2.2413,-2.2458,-2.2099,-2.1635,-2.1395,-2.1156,-2.0543,-2.0363,-2.0363,-2.0444,-2.0272,-1.6048,-1.5898,-1.6444,-1.6683,-1.6726,-1.6978,-1.7314,-1.754,-1.6832,-1.6735,-1.6974,-1.6685,-1.6534,-1.6534,-1.6534,-1.6595,-1.6795,-1.6964,-1.7504,-1.8341,-1.8535,-1.9006,-1.9603,-1.9705,-1.9705,-1.9705,-1.9705,-1.9705,-1.9705,-1.9705,-1.9705,-1.9705,-1.9705,-1.9705,-1.9705,-1.9705,-1.9705,-1.9705,-1.9705,-1.9705,-1.9705,-1.9705,-1.9705,-1.9705,-1.9705,-1.9705,-1.9705,-1.9705,-1.9705,-1.9705,-1.9705,-1.9705,-1.9705,-1.9705,-1.9705,-1.9705,-1.9705,-1.9705,-1.9705,-1.9705,-1.9705,-1.9705,-1.9705,-1.9705,-1.9705,-1.9705,-1.9705,-1.9705,-1.9705,-1.9705,-1.9705,-1.972,-1.9705,-1.9705,-1.9705,-1.9705,-1.9705,-1.972,-1.9735,-1.9779,-1.9765,-1.972,-1.9705,-1.972,-1.9735,-1.9705,-1.9705,-1.9705,-1.9705,-1.9705,-1.9705,-1.9705,-1.9779,-1.9824,-1.9884,-2.0498,-2.1081,-2.1216,-2.1081,-2.1156,-2.135,-2.138,-2.1395,-2.141,-2.147,-2.1515,-2.1276,-2.0782,-2.058,-2.0445,-2.022,-2.0032,-2.0029,-2.0,-2.0122,-1.5174,-1.5329,-1.6051,-1.6362,-1.6385,-1.6544,-1.6559,-1.6615,-1.6547,-1.6559,-1.6622,-1.6534,-1.6534,-1.6522,-1.6565,-1.6837,-1.7312,-1.7787,-1.8288,-1.8855,-1.9295,-1.9566,-1.969,-1.9705,-1.9705,-1.9705,-1.9705,-1.9705,-1.9705,-1.9705,-1.9705,-1.9705,-1.9705,-1.9705,-1.9705,-1.9705,-1.9705,-1.9705,-1.9705,-1.9705,-1.9705,-1.9705,-1.9705,-1.9705,-1.9705,-1.9705,-1.9705,-1.9705,-1.9705,-1.9705,-1.9705,-1.9705,-1.9705,-1.9705,-1.9705,-1.9705,-1.9705,-1.9705,-1.9705,-1.9705,-1.9705,-1.9705,-1.9705,-1.9705,-1.9705,-1.9705,-1.9705,-1.9705,-1.9705,-1.9705,-1.9705,-1.9705,-1.9705,-1.9705,-1.9705,-1.9705,-1.9705,-1.9705,-1.9705,-1.9705,-1.9705,-1.9705,-1.9705,-1.9705,-1.9705,-1.9705,-1.9705,-1.9705,-1.9705,-1.9705,-1.9705,-1.9705,-1.9705,-1.9705,-1.9705,-1.9765,-2.0168,-2.0453,-2.0213,-2.0154,-2.0557,-2.0707,-2.0707,-2.0775,-2.1092,-2.1137,-2.0955,-2.0537,-2.0396,-2.0243,-1.9975,-1.9995,-2.0174,-2.0364,-2.0499,-1.4277,-1.4697,-1.5076,-1.5487,-1.5892,-1.6298,-1.6534,-1.6534,-1.6534,-1.6534,-1.6534,-1.6534,-1.6534,-1.6607,-1.6866,-1.7353,-1.7867,-1.8419,-1.8727,-1.893,-1.908,-1.9369,-1.9654,-1.9705,-1.9705,-1.9705,-1.9705,-1.9705,-1.9705,-1.9705,-1.9705,-1.9705,-1.9705,-1.9705,-1.9705,-1.9705,-1.9705,-1.9705,-1.9705,-1.9705,-1.9705,-1.9726,-1.9726,-1.9705,-1.9705,-1.9705,-1.9705,-1.9705,-1.9705,-1.9726,-1.9705,-1.9705,-1.9705,-1.9705,-1.9705,-1.9705,-1.9705,-1.9705,-1.9705,-1.9705,-1.9705,-1.9705,-1.9705,-1.9705,-1.9705,-1.9705,-1.9705,-1.9705,-1.9705,-1.9705,-1.9705,-1.9705,-1.9705,-1.9705,-1.9705,-1.9705,-1.9705,-1.9705,-1.9705,-1.9705,-1.9705,-1.9705,-1.9705,-1.9705,-1.9705,-1.9705,-1.9705,-1.9705,-1.9705,-1.9705,-1.9705,-1.9705,-1.9705,-1.9705,-1.9705,-1.9705,-1.9899,-2.0109,-1.9884,-1.972,-2.0019,-2.0168,-2.0139,-2.0242,-2.057,-2.0685,-2.0533,-2.0439,-2.0339,-2.0481,-2.0548,-2.0632,-2.0731,-2.0862,-2.0943,-1.3975,-1.4542,-1.4902,-1.5222,-1.567,-1.6249,-1.6534,-1.6534,-1.6534,-1.6534,-1.6534,-1.6534,-1.6534,-1.6607,-1.7076,-1.7585,-1.8131,-1.865,-1.9006,-1.9169,-1.9207,-1.9406,-1.969,-1.9705,-1.9705,-1.9705,-1.9705,-1.9705,-1.9705,-1.9705,-1.9705,-1.9705,-1.9705,-1.9705,-1.9705,-1.9705,-1.9705,-1.9705,-1.9705,-1.9782,-1.9874,-1.9909,-2.0015,-2.0139,-2.0174,-2.0174,-2.0189,-2.0189,-2.0035,-1.9797,-1.9705,-1.9705,-1.9705,-1.9705,-1.9705,-1.9705,-1.9705,-1.9705,-1.9705,-1.9705,-1.9705,-1.9705,-1.9705,-1.9705,-1.9705,-1.9705,-1.9705,-1.9705,-1.9705,-1.9705,-1.9705,-1.9705,-1.9705,-1.9705,-1.9705,-1.9705,-1.9705,-1.9705,-1.9705,-1.9705,-1.9705,-1.9705,-1.9705,-1.9705,-1.9705,-1.9705,-1.9705,-1.9705,-1.9705,-1.9705,-1.9726,-1.9726,-1.9705,-1.9705,-1.9705,-1.9705,-1.9705,-1.9765,-1.975,-1.9705,-1.9839,-1.9869,-1.9854,-1.9891,-2.0119,-2.035,-2.0242,-2.0438,-2.0499,-2.0797,-2.1103,-2.1055,-2.1086,-2.1181,-2.1306,-1.4143,-1.4744,-1.532,-1.5617,-1.5771,-1.6281,-1.6534,-1.6534,-1.6534,-1.6534,-1.6534,-1.6534,-1.6565,-1.668,-1.7188,-1.7706,-1.8171,-1.8765,-1.9258,-1.953,-1.9654,-1.969,-1.9705,-1.9705,-1.9705,-1.9705,-1.9705,-1.9705,-1.9705,-1.9705,-1.9705,-1.9705,-1.9705,-1.9705,-1.9726,-1.9726,-1.9782,-1.9782,-1.9818,-2.0035,-2.0314,-2.0348,-2.0516,-2.0894,-2.091,-2.0894,-2.0878,-2.0829,-2.0565,-1.9925,-1.9889,-1.9925,-1.9818,-1.9762,-1.9797,-1.9797,-1.9726,-1.9705,-1.9705,-1.9705,-1.9705,-1.9705,-1.9705,-1.9705,-1.9705,-1.9705,-1.9705,-1.9705,-1.9705,-1.9705,-1.9705,-1.9705,-1.9705,-1.9726,-1.9797,-1.9833,-1.9797,-1.9869,-1.996,-1.9874,-1.9782,-1.9797,-1.9889,-1.9854,-1.9797,-1.9797,-1.9762,-1.9705,-1.9726,-1.9747,-1.9747,-1.9818,-1.9925,-2.005,-2.0189,-1.9945,-1.9945,-1.9889,-1.9854,-1.9782,-1.9889,-1.9925,-2.003,-1.9995,-1.998,-2.0104,-2.0348,-2.0748,-2.0975,-2.126,-2.1385,-2.1354,-2.1446,-2.1615,-2.1675,-1.4143,-1.4744,-1.5365,-1.5856,-1.6237,-1.6461,-1.6534,-1.6534,-1.6534,-1.6534,-1.6534,-1.6534,-1.6765,-1.7105,-1.7626,-1.8171,-1.8688,-1.9207,-1.953,-1.969,-1.9705,-1.9705,-1.9705,-1.9705,-1.9705,-1.9705,-1.9705,-1.9705,-1.9705,-1.9726,-1.9726,-1.9705,-1.9762,-1.9762,-1.9726,-2.0035,-2.0124,-2.0193,-2.0499,-2.0681,-2.0764,-2.0813,-2.0862,-2.0959,-2.1039,-2.1039,-2.1007,-2.1007,-2.0926,-2.0698,-2.0665,-2.0681,-2.0548,-2.0261,-2.0054,-2.0035,-1.9839,-1.9705,-1.9705,-1.9705,-1.9705,-1.9705,-1.9705,-1.9705,-1.9705,-1.9705,-1.9705,-1.9705,-1.9705,-1.9705,-1.9705,-1.9705,-1.9705,-1.9711,-1.998,-2.0227,-2.0465,-2.0681,-2.0681,-2.0632,-2.0599,-2.0599,-2.0499,-2.033,-2.0174,-2.0104,-1.998,-1.9797,-1.9909,-1.9965,-2.007,-2.0261,-2.0398,-2.0599,-2.0632,-2.033,-2.0193,-2.0139,-2.007,-1.9945,-2.0174,-2.0398,-2.0565,-2.0698,-2.0698,-2.0781,-2.1181,-2.1598,-2.1751,-2.1691,-2.1857,-2.1886,-2.1991,-2.2123,-2.2077,-1.4503,-1.5096,-1.5732,-1.6194,-1.6479,-1.6534,-1.6534,-1.6534,-1.6534,-1.6534,-1.6565,-1.6765,-1.6993,-1.7353,-1.8092,-1.8574,-1.893,-1.9442,-1.969,-1.969,-1.9705,-1.9705,-1.9705,-1.9705,-1.9705,-1.9705,-1.9705,-1.9705,-1.9762,-1.9874,-1.9929,-2.0,-2.0139,-2.0243,-2.0326,-2.0449,-2.0583,-2.0649,-2.0894,-2.1071,-2.1244,-2.1244,-2.1385,-2.1493,-2.157,-2.1554,-2.1554,-2.1554,-2.1385,-2.1055,-2.0829,-2.0715,-2.0665,-2.0296,-2.007,-2.0019,-1.9803,-1.9705,-1.9705,-1.9705,-1.9705,-1.9705,-1.9705,-1.9705,-1.9705,-1.9705,-1.9705,-1.9705,-1.9705,-1.9705,-1.9705,-1.9705,-1.9889,-2.0243,-2.0465,-2.055,-2.0514,-2.0532,-2.0698,-2.0748,-2.0862,-2.1007,-2.1007,-2.0748,-2.0649,-2.055,-2.0431,-2.0345,-2.033,-2.0364,-2.0431,-2.0649,-2.0682,-2.0764,-2.0894,-2.0715,-2.055,-2.0499,-2.0532,-2.0364,-2.0416,-2.0748,-2.0862,-2.0991,-2.1213,-2.1446,-2.1735,-2.1928,-2.1899,-2.1945,-2.2209,-2.2327,-2.2327,-2.2327,-2.2327,-1.4915,-1.5454,-1.6139,-1.6423,-1.6398,-1.6466,-1.6534,-1.6534,-1.6534,-1.6534,-1.6607,-1.6993,-1.7229,-1.7422,-1.8249,-1.8855,-1.9043,-1.9479,-1.9654,-1.9705,-1.9705,-1.9705,-1.9705,-1.9705,-1.9705,-1.9705,-1.9705,-1.9705,-1.9747,-2.0019,-2.0177,-2.0158,-2.0532,-2.0829,-2.0731,-2.0894,-2.1023,-2.1086,-2.1213,-2.1415,-2.1628,-2.1688,-2.184,-2.2094,-2.2152,-2.2152,-2.2197,-2.218,-2.1915,-2.1181,-2.0715,-2.0715,-2.0583,-2.0174,-1.996,-1.9925,-1.9854,-1.9705,-1.9705,-1.9705,-1.9705,-1.9705,-1.9705,-1.9705,-1.9705,-1.9705,-1.9705,-1.9705,-1.9705,-1.9705,-1.9705,-1.9705,-1.9995,-2.0447,-2.0764,-2.0499,-2.007,-2.0193,-2.0467,-2.0483,-2.0878,-2.1103,-2.1134,-2.1103,-2.1071,-2.1007,-2.0862,-2.0698,-2.0698,-2.0748,-2.0878,-2.1055,-2.0991,-2.0862,-2.0991,-2.1118,-2.0991,-2.0894,-2.1023,-2.0959,-2.0765,-2.0943,-2.0991,-2.115,-2.1568,-2.1735,-2.1794,-2.1928,-2.2003,-2.2106,-2.2282,-2.2327,-2.2327,-2.2327,-2.2327,-1.4039,-1.4272,-1.532,-1.5768,-1.5899,-1.6305,-1.6534,-1.6534,-1.6534,-1.6534,-1.6565,-1.668,-1.7201,-1.7933,-1.8302,-1.8688,-1.9406,-1.9654,-1.9705,-1.9705,-1.9705,-1.9705,-1.9705,-1.9705,-1.9705,-1.9705,-1.9705,-1.9705,-1.9762,-1.9839,-1.9839,-1.9945,-2.0243,-2.0174,-2.0565,-2.0991,-2.1181,-2.1477,-2.1811,-2.1991,-2.2049,-2.2106,-2.218,-2.2327,-2.2327,-2.2327,-2.2327,-2.2327,-2.2209,-2.2032,-2.1869,-2.1705,-2.1538,-2.0975,-2.0599,-2.0431,-1.9995,-1.9705,-1.9726,-1.9762,-1.9726,-1.9782,-1.9833,-1.9705,-1.9705,-1.9762,-1.9726,-1.9726,-1.9705,-1.9797,-1.9818,-1.9726,-1.996,-2.0243,-2.0431,-2.0483,-2.0416,-2.1134,-2.1507,-2.1446,-2.1645,-2.202,-2.1991,-2.1615,-2.1538,-2.146,-2.1275,-2.1055,-2.1086,-2.1165,-2.1306,-2.1446,-2.1415,-2.1306,-2.1524,-2.1584,-2.1446,-2.1354,-2.1446,-2.1507,-2.1337,-2.1368,-2.1524,-2.1751,-2.2049,-2.2106,-2.2003,-2.2077,-2.218,-2.2254,-2.2327,-2.2327,-2.2327,-2.2327,-2.2327,-1.4226,-1.4376,-1.5499,-1.6034,-1.6059,-1.633,-1.6534,-1.6534,-1.6534,-1.6534,-1.6637,-1.6993,-1.7585,-1.8145,-1.8626,-1.9244,-1.9566,-1.9705,-1.9705,-1.9705,-1.9705,-1.9705,-1.9705,-1.9705,-1.9705,-1.9705,-1.9705,-1.9705,-1.9797,-2.0085,-2.0379,-2.0379,-2.0648,-2.1166,-2.1213,-2.1446,-2.1721,-2.1915,-2.2152,-2.2327,-2.2327,-2.2327,-2.2327,-2.2327,-2.2327,-2.2327,-2.2327,-2.2327,-2.2327,-2.2327,-2.2282,-2.2163,-2.1869,-2.1165,-2.0715,-2.055,-2.0104,-1.9854,-1.9909,-2.0,-2.0104,-2.0277,-2.0311,-2.0311,-2.0311,-2.0311,-2.0311,-2.0311,-2.0345,-2.0296,-2.0311,-2.0345,-2.0364,-2.0583,-2.0781,-2.0894,-2.1039,-2.1568,-2.1882,-2.1748,-2.1957,-2.218,-2.218,-2.1974,-2.1974,-2.1869,-2.1886,-2.1691,-2.1615,-2.1705,-2.1705,-2.1794,-2.1794,-2.1869,-2.2049,-2.2077,-2.1915,-2.1857,-2.1886,-2.1915,-2.1869,-2.2003,-2.2225,-2.2282,-2.2254,-2.2282,-2.2209,-2.2299,-2.2327,-2.2327,-2.2327,-2.2327,-2.2327,-2.2327,-2.2327,-1.4479,-1.4652,-1.5788,-1.6293,-1.6349,-1.6448,-1.6534,-1.6534,-1.6534,-1.6565,-1.6752,-1.7639,-1.7894,-1.838,-1.9095,-1.9566,-1.969,-1.9705,-1.9705,-1.9705,-1.9705,-1.9705,-1.9705,-1.9705,-1.9705,-1.9705,-1.9705,-1.9705,-1.9889,-2.0379,-2.0447,-2.0829,-2.1477,-2.1584,-2.1915,-2.2152,-2.2106,-2.2209,-2.2282,-2.2327,-2.2327,-2.2327,-2.2327,-2.2327,-2.2327,-2.2327,-2.2327,-2.2327,-2.2327,-2.2327,-2.2327,-2.2077,-2.1628,-2.0991,-2.0501,-2.0534,-2.0227,-2.0208,-2.0364,-2.0416,-2.0565,-2.1007,-2.0975,-2.0975,-2.0926,-2.0764,-2.0682,-2.0731,-2.0698,-2.0764,-2.0959,-2.0894,-2.1055,-2.1306,-2.1491,-2.1612,-2.1628,-2.1628,-2.1764,-2.1688,-2.2003,-2.2282,-2.2327,-2.2209,-2.2254,-2.2327,-2.2327,-2.2282,-2.2163,-2.2089,-2.2077,-2.2032,-2.2032,-2.2032,-2.2209,-2.2254,-2.2152,-2.2123,-2.2152,-2.218,-2.2209,-2.2254,-2.2327,-2.2327,-2.2282,-2.2327,-2.2327,-2.2327,-2.2327,-2.2327,-2.2327,-2.2327,-2.2327,-2.2327,-2.2327,-1.3515,-1.4003,-1.4698,-1.5277,-1.5784,-1.6275,-1.6534,-1.6534,-1.6534,-1.6752,-1.7146,-1.7381,-1.8013,-1.8612,-1.8893,-1.9281,-1.9654,-1.9705,-1.9705,-1.9705,-1.9705,-1.9705,-1.9705,-1.9797,-1.9762,-1.9705,-1.9762,-1.9833,-1.9762,-1.9854,-2.0311,-2.0174,-2.0616,-2.1023,-2.1446,-2.1538,-2.2032,-2.2265,-2.2327,-2.2327,-2.2327,-2.2327,-2.2327,-2.2327,-2.2327,-2.2327,-2.2327,-2.2327,-2.2327,-2.2327,-2.2327,-2.2237,-2.2061,-2.1598,-2.1352,-2.1197,-2.0878,-2.0698,-2.0862,-2.0894,-2.0926,-2.0991,-2.1103,-2.1071,-2.0991,-2.0764,-2.0781,-2.0649,-2.0649,-2.0649,-2.0959,-2.1134,-2.1071,-2.1213,-2.146,-2.1658,-2.1718,-2.1869,-2.1974,-2.1794,-2.2077,-2.2327,-2.2327,-2.2327,-2.2327,-2.2327,-2.2327,-2.2327,-2.2254,-2.2209,-2.2225,-2.2237,-2.2237,-2.2237,-2.2299,-2.2282,-2.2254,-2.2225,-2.2254,-2.2254,-2.2282,-2.2282,-2.2327,-2.2327,-2.2327,-2.2327,-2.2327,-2.2327,-2.2327,-2.2327,-2.2327,-2.2327,-2.2327,-2.2327,-2.2327,-1.4025,-1.4376,-1.5254,-1.5812,-1.6069,-1.6349,-1.6534,-1.6534,-1.6534,-1.6637,-1.6993,-1.7463,-1.7973,-1.8535,-1.9132,-1.9479,-1.9654,-1.9705,-1.9705,-1.9705,-1.9705,-1.9705,-1.9762,-1.9909,-2.0,-2.0104,-2.0243,-2.0208,-2.0089,-2.055,-2.0565,-2.0813,-2.1118,-2.1462,-2.1661,-2.1915,-2.2077,-2.2282,-2.2327,-2.2327,-2.2327,-2.2327,-2.2327,-2.2327,-2.2327,-2.2327,-2.2327,-2.2327,-2.2327,-2.2327,-2.2327,-2.2327,-2.2225,-2.2106,-2.1853,-2.1598,-2.1244,-2.1118,-2.1275,-2.1306,-2.1415,-2.1661,-2.1661,-2.1691,-2.1645,-2.1554,-2.1244,-2.1275,-2.1337,-2.1415,-2.1691,-2.1615,-2.1691,-2.1721,-2.184,-2.1928,-2.2003,-2.218,-2.2106,-2.1974,-2.2152,-2.2327,-2.2327,-2.2327,-2.2327,-2.2327,-2.2327,-2.2327,-2.2327,-2.2327,-2.2327,-2.231,-2.2282,-2.2282,-2.2327,-2.2327,-2.2327,-2.2327,-2.2349,-2.2349,-2.2349,-2.2405,-2.2366,-2.2327,-2.2327,-2.2349,-2.231,-2.231,-2.231,-2.2338,-2.2366,-2.2377,-2.2338,-2.2327,-2.2394,-1.4422,-1.4606,-1.57,-1.6194,-1.6337,-1.6479,-1.6534,-1.6509,-1.6646,-1.6769,-1.696,-1.7801,-1.8341,-1.8664,-1.9221,-1.9705,-1.9705,-1.9705,-1.9705,-1.9705,-1.9726,-1.9726,-1.9909,-2.0089,-2.0348,-2.0532,-2.0846,-2.0878,-2.0616,-2.0975,-2.1368,-2.1399,-2.1869,-2.218,-2.2061,-2.2123,-2.2254,-2.2327,-2.2327,-2.2327,-2.2327,-2.2327,-2.2327,-2.2327,-2.2327,-2.2327,-2.2327,-2.2327,-2.2327,-2.2327,-2.2327,-2.2327,-2.2327,-2.2327,-2.2106,-2.1748,-2.143,-2.1507,-2.1628,-2.1718,-2.184,-2.1928,-2.2192,-2.2209,-2.2077,-2.1899,-2.2003,-2.2163,-2.2077,-2.2077,-2.2106,-2.2254,-2.2254,-2.2254,-2.2225,-2.2282,-2.2254,-2.2282,-2.2282,-2.2254,-2.2327,-2.231,-2.2338,-2.2327,-2.2327,-2.2327,-2.2327,-2.2327,-2.2327,-2.2327,-2.2327,-2.2327,-2.231,-2.231,-2.2327,-2.2327,-2.2327,-2.2327,-2.2415,-2.249,-2.249,-2.2535,-2.248,-2.247,-2.2426,-2.2463,-2.2371,-2.2415,-2.2517,-2.2571,-2.2508,-2.2535,-2.2651,-2.266,-2.2686,-1.343,-1.3956,-1.4652,-1.5242,-1.5776,-1.6281,-1.6534,-1.6582,-1.695,-1.7505,-1.7733,-1.8489,-1.8968,-1.942,-1.9566,-1.9705,-1.9705,-1.9705,-1.9705,-1.9705,-1.9726,-1.9874,-2.0193,-2.0246,-2.0616,-2.0926,-2.1337,-2.1275,-2.1118,-2.115,-2.115,-2.1323,-2.1628,-2.1718,-2.1899,-2.218,-2.2299,-2.2327,-2.2327,-2.2327,-2.2327,-2.2327,-2.2327,-2.2327,-2.2327,-2.2327,-2.2327,-2.2327,-2.2327,-2.2327,-2.2327,-2.2327,-2.2327,-2.2327,-2.2282,-2.2209,-2.218,-2.2152,-2.2163,-2.2135,-2.2003,-2.1986,-2.2089,-2.2032,-2.1974,-2.1869,-2.184,-2.1688,-2.1735,-2.1945,-2.2237,-2.2299,-2.2327,-2.2327,-2.2327,-2.2327,-2.2327,-2.231,-2.231,-2.2405,-2.2415,-2.2415,-2.2415,-2.2366,-2.2327,-2.2327,-2.2327,-2.2327,-2.2338,-2.2366,-2.2497,-2.2535,-2.2443,-2.2415,-2.2377,-2.2349,-2.231,-2.231,-2.2415,-2.2554,-2.2544,-2.2544,-2.273,-2.2704,-2.2625,-2.2625,-2.2652,-2.2704,-2.2815,-2.2755,-2.2624,-2.2824,-2.3093,-2.3087,-2.2915,-1.3467,-1.4329,-1.496,-1.5555,-1.6095,-1.638,-1.6534,-1.6539,-1.6722,-1.7142,-1.7663,-1.8207,-1.8893,-1.9566,-1.9705,-1.9705,-1.9705,-1.9705,-1.9705,-1.9726,-1.9762,-1.9945,-2.0296,-2.0583,-2.091,-2.1337,-2.1735,-2.1945,-2.1751,-2.1721,-2.1738,-2.1721,-2.1869,-2.2032,-2.1945,-2.2209,-2.2282,-2.2327,-2.2327,-2.2327,-2.2327,-2.2327,-2.2327,-2.2327,-2.2327,-2.2327,-2.2327,-2.2327,-2.2327,-2.2327,-2.2327,-2.2327,-2.2327,-2.2327,-2.2282,-2.2282,-2.2282,-2.2282,-2.2282,-2.2327,-2.2135,-2.2061,-2.2163,-2.2192,-2.2032,-2.1974,-2.1974,-2.2003,-2.2003,-2.2106,-2.2254,-2.2299,-2.2327,-2.231,-2.2377,-2.2377,-2.2377,-2.231,-2.2321,-2.2426,-2.2554,-2.2581,-2.2571,-2.2443,-2.2415,-2.2415,-2.2405,-2.2377,-2.246,-2.2525,-2.2703,-2.2883,-2.273,-2.2563,-2.249,-2.2453,-2.2349,-2.2338,-2.2377,-2.248,-2.2453,-2.2517,-2.2832,-2.2781,-2.2581,-2.2643,-2.2848,-2.2789,-2.2695,-2.2686,-2.2686,-2.2908,-2.3135,-2.2972,-2.289,-1.361,-1.4698,-1.5186,-1.5644,-1.6076,-1.6349,-1.6534,-1.6522,-1.6824,-1.714,-1.7579,-1.8226,-1.9006,-1.953,-1.9705,-1.9705,-1.9705,-1.9705,-1.9705,-1.9726,-1.9854,-2.0139,-2.0516,-2.0959,-2.1368,-2.1764,-2.2077,-2.2225,-2.2254,-2.2254,-2.2225,-2.2327,-2.2209,-2.2254,-2.2282,-2.2282,-2.2327,-2.2327,-2.2327,-2.2327,-2.2327,-2.2327,-2.2327,-2.2327,-2.2327,-2.2327,-2.2327,-2.2327,-2.2327,-2.2327,-2.2327,-2.2327,-2.2327,-2.2327,-2.2327,-2.2327,-2.2327,-2.2327,-2.2327,-2.2282,-2.2237,-2.218,-2.218,-2.2089,-2.2282,-2.2327,-2.2299,-2.2237,-2.2254,-2.2254,-2.231,-2.2349,-2.2426,-2.2463,-2.2517,-2.2508,-2.2508,-2.2544,-2.2607,-2.2773,-2.2865,-2.294,-2.2857,-2.2607,-2.2517,-2.2544,-2.2508,-2.248,-2.2561,-2.2703,-2.2703,-2.2857,-2.2721,-2.2554,-2.2544,-2.2453,-2.236,-2.2426,-2.248,-2.2624,-2.279,-2.2943,-2.3177,-2.3,-2.2686,-2.2807,-2.3093,-2.2807,-2.2571,-2.2925,-2.3194,-2.3049,-2.3032,-2.2958,-2.3063,-1.3621,-1.4698,-1.4744,-1.488,-1.5017,-1.602,-1.6534,-1.6582,-1.749,-1.7906,-1.8166,-1.9043,-1.953,-1.9705,-1.9705,-1.9705,-1.9705,-1.9705,-1.9705,-1.9818,-2.0089,-2.0449,-2.0846,-2.1275,-2.1735,-2.2152,-2.2282,-2.2282,-2.2327,-2.2327,-2.2327,-2.2327,-2.2327,-2.2327,-2.2327,-2.2327,-2.2327,-2.2327,-2.2327,-2.2327,-2.2327,-2.2327,-2.2327,-2.2327,-2.2327,-2.2327,-2.2327,-2.2338,-2.2349,-2.2349,-2.2432,-2.2377,-2.2388,-2.2377,-2.2377,-2.231,-2.2327,-2.2327,-2.2327,-2.2282,-2.2077,-2.184,-2.1764,-2.1974,-2.2237,-2.2327,-2.2327,-2.2327,-2.2327,-2.2327,-2.236,-2.2473,-2.251,-2.2554,-2.2581,-2.2721,-2.2755,-2.2865,-2.2947,-2.3093,-2.3189,-2.3277,-2.3346,-2.3153,-2.2883,-2.2883,-2.2883,-2.2849,-2.2798,-2.2849,-2.2677,-2.2651,-2.2544,-2.248,-2.2497,-2.248,-2.2643,-2.2807,-2.2883,-2.3129,-2.3387,-2.3518,-2.3364,-2.3427,-2.32,-2.3294,-2.33,-2.3129,-2.3153,-2.354,-2.3667,-2.3318,-2.3294,-2.3364,-2.3562,-1.3695,-1.419,-1.4915,-1.5466,-1.5832,-1.6293,-1.6534,-1.6612,-1.7303,-1.7993,-1.865,-1.9332,-1.9705,-1.9705,-1.9705,-1.9705,-1.9705,-1.9705,-1.9726,-1.9854,-2.0124,-2.055,-2.0991,-2.1446,-2.184,-2.2225,-2.2327,-2.2327,-2.2327,-2.2327,-2.2327,-2.2327,-2.2327,-2.2327,-2.2327,-2.2327,-2.2327,-2.2327,-2.2327,-2.2327,-2.2327,-2.2327,-2.2327,-2.2327,-2.2327,-2.2327,-2.2338,-2.249,-2.2527,-2.259,-2.2738,-2.2643,-2.2527,-2.2527,-2.2453,-2.2349,-2.2338,-2.2338,-2.2338,-2.2338,-2.2209,-2.2135,-2.2049,-2.2106,-2.2321,-2.231,-2.2327,-2.2327,-2.2338,-2.2377,-2.2349,-2.2371,-2.2426,-2.249,-2.266,-2.2883,-2.2996,-2.3165,-2.3282,-2.3437,-2.3544,-2.361,-2.3692,-2.3753,-2.3477,-2.3253,-2.3253,-2.323,-2.3135,-2.3063,-2.295,-2.2917,-2.2849,-2.29,-2.29,-2.294,-2.3021,-2.3141,-2.3282,-2.3459,-2.3649,-2.341,-2.33,-2.3477,-2.3628,-2.3522,-2.3459,-2.35,-2.3566,-2.3628,-2.3566,-2.3392,-2.35,-2.3732,-2.3876,-1.3637,-1.3862,-1.4732,-1.5499,-1.6194,-1.6423,-1.6602,-1.6816,-1.7316,-1.8145,-1.9169,-1.9581,-1.9705,-1.9705,-1.9705,-1.9818,-1.9874,-1.9909,-2.0,-2.0227,-2.0583,-2.0878,-2.1197,-2.1598,-2.2049,-2.2254,-2.2327,-2.2327,-2.2327,-2.2327,-2.2327,-2.2327,-2.2327,-2.2327,-2.2327,-2.2327,-2.2327,-2.2327,-2.2327,-2.2327,-2.2327,-2.2388,-2.2426,-2.248,-2.2561,-2.2624,-2.2686,-2.2781,-2.284,-2.289,-2.2915,-2.2898,-2.2746,-2.2608,-2.2527,-2.248,-2.2426,-2.2453,-2.2508,-2.2377,-2.2377,-2.2381,-2.2409,-2.2409,-2.2443,-2.2508,-2.2634,-2.2463,-2.2517,-2.2544,-2.2561,-2.2747,-2.29,-2.3056,-2.3218,-2.3405,-2.3432,-2.3504,-2.3653,-2.3777,-2.3858,-2.3917,-2.3937,-2.3996,-2.3876,-2.361,-2.3522,-2.35,-2.3455,-2.3392,-2.3323,-2.3318,-2.3364,-2.3432,-2.35,-2.3414,-2.3346,-2.3437,-2.3566,-2.3631,-2.3653,-2.3459,-2.35,-2.3774,-2.3837,-2.3674,-2.3714,-2.3816,-2.3649,-2.3459,-2.3482,-2.361,-2.3753,-2.3935,-2.3876,-1.3334,-1.3779,-1.3909,-1.4641,-1.5764,-1.6238,-1.6751,-1.714,-1.7801,-1.8617,-1.9515,-1.9705,-1.9705,-1.9726,-1.9762,-1.9929,-2.0193,-2.028,-2.0449,-2.0813,-2.1102,-2.146,-2.1658,-2.1945,-2.2197,-2.2282,-2.2349,-2.236,-2.2366,-2.2443,-2.2432,-2.2405,-2.247,-2.2405,-2.2338,-2.2327,-2.2327,-2.231,-2.2394,-2.2405,-2.247,-2.2616,-2.2686,-2.2764,-2.284,-2.289,-2.3014,-2.3021,-2.3093,-2.3189,-2.3093,-2.3021,-2.2898,-2.2669,-2.2607,-2.2686,-2.2712,-2.2865,-2.3087,-2.2598,-2.2527,-2.266,-2.2712,-2.273,-2.2764,-2.2898,-2.2972,-2.2755,-2.289,-2.3063,-2.3212,-2.3346,-2.3387,-2.3432,-2.358,-2.3685,-2.3649,-2.3714,-2.3795,-2.3937,-2.4094,-2.417,-2.417,-2.417,-2.417,-2.4016,-2.3837,-2.3756,-2.3735,-2.3714,-2.3671,-2.3671,-2.3732,-2.3692,-2.3714,-2.3714,-2.3692,-2.3756,-2.3837,-2.3899,-2.3959,-2.3958,-2.4016,-2.4151,-2.4074,-2.3937,-2.4036,-2.417,-2.3937,-2.3735,-2.3858,-2.3996,-2.4074,-2.4075,-2.3999,-1.3836,-1.4411,-1.4824,-1.5466,-1.6126,-1.5948,-1.625,-1.6863,-1.7699,-1.8695,-1.9558,-1.9705,-1.9705,-1.9762,-1.998,-2.0158,-2.0314,-2.0731,-2.0926,-2.1055,-2.1477,-2.1568,-2.1764,-2.2032,-2.2299,-2.2349,-2.2409,-2.251,-2.2573,-2.266,-2.2849,-2.2908,-2.2773,-2.2773,-2.2704,-2.273,-2.2925,-2.2925,-2.2908,-2.2908,-2.2908,-2.2965,-2.3021,-2.3021,-2.2972,-2.3069,-2.3277,-2.33,-2.3369,-2.3522,-2.3437,-2.3459,-2.3346,-2.3146,-2.3087,-2.3093,-2.3045,-2.3069,-2.3165,-2.2965,-2.294,-2.3021,-2.3003,-2.2996,-2.3069,-2.31,-2.3093,-2.3093,-2.3165,-2.3277,-2.3236,-2.3259,-2.33,-2.3277,-2.3387,-2.354,-2.3606,-2.3692,-2.3816,-2.4016,-2.419,-2.4247,-2.4266,-2.4303,-2.4321,-2.4303,-2.4116,-2.4057,-2.4037,-2.4036,-2.4016,-2.4016,-2.4034,-2.3937,-2.3917,-2.3979,-2.3979,-2.4019,-2.4096,-2.4153,-2.4228,-2.4247,-2.4266,-2.4266,-2.4247,-2.419,-2.419,-2.419,-2.417,-2.4113,-2.4094,-2.4016,-2.3976,-2.4001,-2.4005,-1.3826,-1.4422,-1.4824,-1.5454,-1.6139,-1.6164,-1.66,-1.738,-1.8285,-1.9081,-1.9609,-1.9705,-1.9705,-1.9782,-1.9965,-2.0398,-2.0516,-2.0829,-2.1354,-2.1385,-2.1705,-2.1869,-2.2003,-2.2106,-2.2282,-2.2377,-2.2436,-2.2537,-2.25,-2.2773,-2.2798,-2.2824,-2.3093,-2.3021,-2.2972,-2.3069,-2.3159,-2.3135,-2.3111,-2.3063,-2.3069,-2.3165,-2.33,-2.3253,-2.3259,-2.3351,-2.35,-2.3584,-2.3628,-2.3855,-2.3917,-2.3937,-2.3753,-2.3566,-2.3482,-2.3392,-2.3482,-2.3544,-2.3566,-2.3566,-2.3584,-2.3566,-2.3369,-2.3141,-2.3141,-2.3236,-2.3259,-2.3277,-2.3392,-2.35,-2.3522,-2.3522,-2.3504,-2.3544,-2.3592,-2.3777,-2.3923,-2.404,-2.4117,-2.4303,-2.4375,-2.4375,-2.4375,-2.4426,-2.4476,-2.4461,-2.4428,-2.4357,-2.4303,-2.4303,-2.4303,-2.4303,-2.4321,-2.4302,-2.4266,-2.4284,-2.4302,-2.4284,-2.4284,-2.4266,-2.4247,-2.4228,-2.4303,-2.4375,-2.4284,-2.4228,-2.4209,-2.419,-2.419,-2.4152,-2.4094,-2.3996,-2.3876,-2.3943,-2.4062,-1.3276,-1.3779,-1.3873,-1.4641,-1.57,-1.6797,-1.7822,-1.8821,-1.9339,-1.9609,-1.969,-1.9705,-1.9762,-1.9762,-1.9797,-2.0311,-2.0959,-2.1103,-2.1554,-2.1991,-2.2152,-2.2209,-2.2225,-2.2282,-2.2327,-2.231,-2.2388,-2.2527,-2.2405,-2.2833,-2.2807,-2.273,-2.3206,-2.33,-2.3346,-2.3369,-2.3392,-2.3414,-2.3414,-2.3346,-2.3282,-2.3477,-2.3566,-2.3566,-2.3649,-2.3876,-2.3976,-2.4014,-2.4054,-2.4054,-2.3937,-2.3816,-2.3649,-2.3432,-2.3522,-2.3692,-2.3996,-2.4054,-2.4074,-2.4054,-2.3996,-2.3855,-2.3522,-2.3141,-2.3124,-2.3459,-2.3566,-2.361,-2.3735,-2.3958,-2.4113,-2.4095,-2.4114,-2.4115,-2.4154,-2.4284,-2.4408,-2.4493,-2.4559,-2.4639,-2.4685,-2.47,-2.4654,-2.4685,-2.4572,-2.4543,-2.4528,-2.4545,-2.4512,-2.4526,-2.4526,-2.4543,-2.4575,-2.4657,-2.461,-2.4445,-2.4357,-2.4284,-2.4247,-2.4228,-2.4228,-2.4284,-2.4375,-2.441,-2.4303,-2.4284,-2.4375,-2.4357,-2.4303,-2.4247,-2.4266,-2.4152,-2.4114,-2.4153,-2.4229,-1.3862,-1.4468,-1.4903,-1.5543,-1.6343,-1.739,-1.8058,-1.8401,-1.8913,-1.9307,-1.9705,-1.9705,-1.9803,-2.0124,-2.0481,-2.0894,-2.1354,-2.1751,-2.202,-2.2254,-2.2327,-2.2327,-2.231,-2.231,-2.231,-2.2388,-2.249,-2.2678,-2.3007,-2.3265,-2.3535,-2.3771,-2.3649,-2.3774,-2.3834,-2.3896,-2.3876,-2.3855,-2.3816,-2.3714,-2.3671,-2.3876,-2.3896,-2.3917,-2.3834,-2.4054,-2.4151,-2.3996,-2.4034,-2.4132,-2.4094,-2.4054,-2.4054,-2.3976,-2.4014,-2.4034,-2.4151,-2.419,-2.419,-2.419,-2.4151,-2.3976,-2.3671,-2.3774,-2.3774,-2.3837,-2.3935,-2.3896,-2.3958,-2.4133,-2.4228,-2.4266,-2.4284,-2.4321,-2.4375,-2.4528,-2.4657,-2.4716,-2.4775,-2.4828,-2.4902,-2.4902,-2.4874,-2.4756,-2.4666,-2.4623,-2.4623,-2.4685,-2.4685,-2.4682,-2.4756,-2.4756,-2.4682,-2.4697,-2.4528,-2.4357,-2.4303,-2.4247,-2.4284,-2.4321,-2.4374,-2.4461,-2.4495,-2.4512,-2.4495,-2.4561,-2.4639,-2.4591,-2.4495,-2.4591,-2.4623,-2.4444,-2.4339,-2.4375,-2.4409,-1.4143,-1.4744,-1.532,-1.6032,-1.6875,-1.7723,-1.8198,-1.847,-1.8986,-1.9417,-1.969,-1.9705,-1.9839,-2.0035,-2.0311,-2.0731,-2.1323,-2.1524,-2.1857,-2.2282,-2.231,-2.2327,-2.231,-2.2415,-2.2508,-2.2554,-2.273,-2.2989,-2.33,-2.3522,-2.3735,-2.3692,-2.3896,-2.3996,-2.3996,-2.4016,-2.4151,-2.417,-2.4151,-2.4132,-2.4094,-2.4151,-2.4113,-2.4036,-2.3876,-2.4056,-2.4152,-2.3958,-2.4036,-2.417,-2.419,-2.4266,-2.4303,-2.4375,-2.4426,-2.4444,-2.4479,-2.4428,-2.4375,-2.4321,-2.4172,-2.3978,-2.3878,-2.3976,-2.3996,-2.3976,-2.3955,-2.3917,-2.4074,-2.4209,-2.4266,-2.4284,-2.4339,-2.4375,-2.4528,-2.4685,-2.4775,-2.4842,-2.491,-2.4987,-2.5031,-2.5031,-2.4962,-2.4836,-2.4823,-2.491,-2.4962,-2.4975,-2.491,-2.4799,-2.491,-2.4987,-2.4804,-2.4689,-2.4524,-2.4461,-2.4508,-2.4524,-2.4543,-2.4591,-2.4607,-2.4623,-2.467,-2.4716,-2.476,-2.4804,-2.4799,-2.479,-2.4746,-2.4818,-2.4847,-2.4719,-2.4594,-2.4594,-2.4607,-1.4143,-1.4789,-1.541,-1.6361,-1.7372,-1.7909,-1.8422,-1.8979,-1.9432,-1.969,-1.9705,-1.9705,-1.9782,-2.0085,-2.0224,-2.0632,-2.1181,-2.1524,-2.1857,-2.231,-2.2388,-2.2388,-2.248,-2.2651,-2.2773,-2.2848,-2.2979,-2.3165,-2.3236,-2.35,-2.3628,-2.3305,-2.3671,-2.3876,-2.3937,-2.4094,-2.419,-2.4209,-2.4228,-2.419,-2.3996,-2.3996,-2.4094,-2.3939,-2.4037,-2.4247,-2.4284,-2.4247,-2.4228,-2.4247,-2.4284,-2.4393,-2.4461,-2.4594,-2.467,-2.4639,-2.4578,-2.453,-2.441,-2.4375,-2.4321,-2.4228,-2.419,-2.4171,-2.4152,-2.4056,-2.3996,-2.3996,-2.4132,-2.419,-2.4228,-2.4393,-2.4478,-2.4559,-2.4697,-2.4842,-2.4981,-2.5024,-2.5072,-2.5138,-2.516,-2.516,-2.5149,-2.5037,-2.4911,-2.5118,-2.5126,-2.5096,-2.5072,-2.4923,-2.4987,-2.5115,-2.4904,-2.4766,-2.4823,-2.478,-2.4831,-2.4845,-2.4814,-2.476,-2.4716,-2.476,-2.4832,-2.4915,-2.4994,-2.491,-2.4896,-2.4942,-2.4974,-2.4955,-2.4974,-2.4921,-2.4879,-2.4874,-2.4794,-1.4143,-1.4789,-1.5832,-1.6908,-1.785,-1.8058,-1.866,-1.9477,-1.9609,-1.9705,-1.9705,-1.9762,-2.005,-2.0481,-2.0499,-2.0975,-2.1675,-2.1705,-2.2094,-2.2304,-2.2436,-2.2527,-2.2652,-2.2883,-2.3063,-2.3093,-2.3189,-2.3392,-2.3566,-2.3774,-2.3955,-2.3937,-2.4056,-2.4056,-2.4075,-2.4228,-2.4247,-2.4284,-2.4357,-2.4321,-2.4172,-2.4152,-2.419,-2.4248,-2.4426,-2.4493,-2.4543,-2.4642,-2.4639,-2.4654,-2.4654,-2.4607,-2.4512,-2.4559,-2.4495,-2.4393,-2.4478,-2.4461,-2.4426,-2.4409,-2.4357,-2.4339,-2.4303,-2.4284,-2.4247,-2.4133,-2.4094,-2.4113,-2.4151,-2.419,-2.4284,-2.4478,-2.4623,-2.4741,-2.485,-2.5,-2.5157,-2.5201,-2.5243,-2.5264,-2.5303,-2.5303,-2.5283,-2.5233,-2.5099,-2.5018,-2.4923,-2.491,-2.5012,-2.4962,-2.5025,-2.5087,-2.4942,-2.4861,-2.4981,-2.5063,-2.5056,-2.4987,-2.4921,-2.4865,-2.4851,-2.4947,-2.5038,-2.5145,-2.5201,-2.5134,-2.5141,-2.5228,-2.5258,-2.5171,-2.5172,-2.516,-2.5198,-2.5201,-2.505,-1.4376,-1.488,-1.6256,-1.732,-1.8031,-1.833,-1.8932,-1.9632,-1.9705,-1.9705,-1.9705,-1.9762,-2.0085,-2.0665,-2.0682,-2.1213,-2.1899,-2.1974,-2.2077,-2.2276,-2.2463,-2.2563,-2.2807,-2.3069,-2.3277,-2.3369,-2.3588,-2.3795,-2.3937,-2.4036,-2.417,-2.4228,-2.4266,-2.4321,-2.4358,-2.441,-2.4444,-2.4478,-2.4575,-2.4543,-2.4444,-2.4478,-2.4512,-2.4623,-2.4654,-2.4712,-2.4746,-2.4804,-2.4804,-2.4828,-2.4823,-2.4785,-2.4741,-2.4828,-2.4823,-2.478,-2.4752,-2.4666,-2.4554,-2.4508,-2.4474,-2.4493,-2.4526,-2.4561,-2.4561,-2.4476,-2.4373,-2.4392,-2.4338,-2.4375,-2.4512,-2.4685,-2.4716,-2.4804,-2.4917,-2.5072,-2.5209,-2.533,-2.5331,-2.5341,-2.537,-2.5409,-2.5399,-2.5389,-2.5299,-2.5299,-2.5132,-2.5094,-2.513,-2.5091,-2.513,-2.5141,-2.5031,-2.5038,-2.5184,-2.5225,-2.5222,-2.5144,-2.505,-2.5144,-2.518,-2.5214,-2.5269,-2.5322,-2.537,-2.5389,-2.5408,-2.5418,-2.5421,-2.5356,-2.5395,-2.5438,-2.5473,-2.5461,-2.5288,-1.4652,-1.505,-1.6489,-1.7549,-1.8118,-1.8588,-1.9109,-1.9632,-1.9705,-1.9747,-1.9818,-1.9803,-1.9984,-2.0177,-2.0416,-2.1007,-2.1477,-2.1869,-2.2077,-2.2237,-2.236,-2.2643,-2.2915,-2.3159,-2.3459,-2.3735,-2.3958,-2.4095,-2.421,-2.4284,-2.4303,-2.4284,-2.4392,-2.4526,-2.4591,-2.467,-2.4746,-2.4712,-2.4771,-2.4814,-2.4818,-2.4818,-2.4804,-2.4818,-2.4847,-2.4847,-2.4861,-2.4874,-2.4874,-2.491,-2.4981,-2.493,-2.4917,-2.4981,-2.5037,-2.5024,-2.4975,-2.493,-2.4911,-2.4831,-2.4809,-2.4799,-2.4832,-2.4832,-2.4818,-2.4794,-2.4704,-2.4654,-2.4607,-2.4591,-2.4746,-2.4837,-2.4851,-2.4907,-2.5031,-2.5146,-2.5293,-2.5437,-2.5418,-2.5398,-2.5444,-2.5483,-2.5483,-2.5493,-2.5493,-2.5504,-2.5523,-2.5514,-2.5474,-2.5354,-2.5321,-2.5311,-2.5264,-2.5322,-2.538,-2.5376,-2.5365,-2.536,-2.5302,-2.5437,-2.5504,-2.5415,-2.5385,-2.5453,-2.5481,-2.5461,-2.5473,-2.5475,-2.5495,-2.5464,-2.5542,-2.5549,-2.5515,-2.5498,-2.5461,-1.4549,-1.5499,-1.6312,-1.7225,-1.8044,-1.8242,-1.8822,-1.9617,-1.9726,-1.9874,-2.0124,-2.0193,-2.0246,-2.0299,-2.0731,-2.1213,-2.1658,-2.1957,-2.2135,-2.231,-2.2554,-2.2815,-2.3124,-2.3486,-2.3777,-2.4018,-2.421,-2.4303,-2.4428,-2.4462,-2.4528,-2.4639,-2.4685,-2.4746,-2.4746,-2.4818,-2.4861,-2.4855,-2.4917,-2.4981,-2.493,-2.4917,-2.4896,-2.4917,-2.4962,-2.5053,-2.516,-2.5201,-2.5212,-2.5222,-2.5212,-2.5107,-2.5072,-2.5061,-2.5103,-2.5111,-2.5075,-2.5031,-2.4994,-2.4981,-2.4947,-2.4915,-2.4947,-2.4968,-2.4993,-2.5018,-2.4953,-2.4987,-2.4915,-2.4814,-2.4902,-2.5031,-2.5076,-2.5132,-2.5236,-2.5316,-2.5447,-2.5479,-2.5485,-2.5466,-2.5473,-2.5493,-2.5503,-2.5498,-2.5498,-2.5517,-2.5517,-2.5517,-2.5508,-2.5489,-2.5479,-2.5463,-2.5428,-2.5459,-2.548,-2.5483,-2.5472,-2.5503,-2.5502,-2.5489,-2.5489,-2.551,-2.551,-2.5465,-2.5493,-2.5476,-2.5503,-2.5434,-2.542,-2.542,-2.5595,-2.5657,-2.5559,-2.5467,-2.5369]}]]